Wetterdaten: Mittwoch, 15.02.2017
Datum Zeit Temp. A. Feuchte A. Luftdruck Regen Wind Richtung Richtung Sonnenschein ET UV Solar Taupunkt Windchill Windben Empfang
15.02.2017 00:00 -0,1 C 90 % 1034,0 hPa 0,0 l/m 4,1 km/h (1 Bft) O-NO 63 0 min 0,000 mm 0,0 UV-I 0 W/m -1,5 C -0,1 C 6,4 km/h (2 Bft) 96,23 %
15.02.2017 00:02 -0,1 C 90 % 1034,0 hPa 0,0 l/m 5,6 km/h (1 Bft) NO 43 0 min 0,000 mm 0,0 UV-I 0 W/m -1,5 C -0,1 C 8,0 km/h (2 Bft) 100,00 %
15.02.2017 00:04 -0,1 C 90 % 1034,1 hPa 0,0 l/m 5,0 km/h (1 Bft) NO 49 0 min 0,000 mm 0,0 UV-I 0 W/m -1,5 C -0,1 C 8,0 km/h (2 Bft) 96,00 %
15.02.2017 00:06 -0,1 C 90 % 1034,1 hPa 0,0 l/m 4,8 km/h (1 Bft) O-NO 71 0 min 0,000 mm 0,0 UV-I 0 W/m -1,5 C -0,1 C 6,4 km/h (2 Bft) 90,00 %
15.02.2017 00:08 -0,2 C 90 % 1034,1 hPa 0,0 l/m 3,4 km/h (1 Bft) O-NO 72 0 min 0,000 mm 0,0 UV-I 0 W/m -1,6 C -0,2 C 6,4 km/h (2 Bft) 97,62 %
15.02.2017 00:10 -0,2 C 90 % 1034,1 hPa 0,0 l/m 3,9 km/h (1 Bft) O-NO 59 0 min 0,000 mm 0,0 UV-I 0 W/m -1,6 C -0,2 C 6,4 km/h (2 Bft) 94,34 %
15.02.2017 00:12 -0,2 C 90 % 1034,2 hPa 0,0 l/m 5,2 km/h (1 Bft) NO 52 0 min 0,000 mm 0,0 UV-I 0 W/m -1,6 C -0,2 C 8,0 km/h (2 Bft) 97,87 %
15.02.2017 00:14 -0,2 C 90 % 1034,2 hPa 0,0 l/m 6,4 km/h (2 Bft) O-NO 67 0 min 0,000 mm 0,0 UV-I 0 W/m -1,6 C -0,2 C 9,7 km/h (2 Bft) 96,00 %
15.02.2017 00:16 -0,2 C 90 % 1034,2 hPa 0,0 l/m 6,1 km/h (2 Bft) O-NO 71 0 min 0,000 mm 0,0 UV-I 0 W/m -1,6 C -0,2 C 8,0 km/h (2 Bft) 97,14 %
15.02.2017 00:18 -0,3 C 90 % 1034,3 hPa 0,0 l/m 6,0 km/h (2 Bft) O-NO 67 0 min 0,000 mm 0,0 UV-I 0 W/m -1,7 C -0,3 C 8,0 km/h (2 Bft) 96,43 %
15.02.2017 00:20 -0,3 C 90 % 1034,3 hPa 0,0 l/m 6,2 km/h (2 Bft) O 79 0 min 0,000 mm 0,0 UV-I 0 W/m -1,7 C -0,3 C 9,7 km/h (2 Bft) 95,12 %
15.02.2017 00:22 -0,3 C 91 % 1034,3 hPa 0,0 l/m 5,7 km/h (1 Bft) O-NO 74 0 min 0,000 mm 0,0 UV-I 0 W/m -1,6 C -0,3 C 8,0 km/h (2 Bft) 96,00 %
15.02.2017 00:24 -0,3 C 91 % 1034,4 hPa 0,0 l/m 6,7 km/h (2 Bft) O-NO 78 0 min 0,000 mm 0,0 UV-I 0 W/m -1,6 C -0,6 C 8,0 km/h (2 Bft) 94,34 %
15.02.2017 00:26 -0,3 C 91 % 1034,3 hPa 0,0 l/m 6,0 km/h (2 Bft) O-NO 75 0 min 0,000 mm 0,0 UV-I 0 W/m -1,6 C -0,3 C 12,9 km/h (3 Bft) 95,12 %
15.02.2017 00:28 -0,3 C 91 % 1034,3 hPa 0,0 l/m 7,4 km/h (2 Bft) O-NO 71 0 min 0,000 mm 0,0 UV-I 0 W/m -1,6 C -1,4 C 12,9 km/h (3 Bft) 96,00 %
15.02.2017 00:30 -0,3 C 91 % 1034,3 hPa 0,0 l/m 6,3 km/h (2 Bft) O 82 0 min 0,000 mm 0,0 UV-I 0 W/m -1,6 C -0,3 C 11,3 km/h (2 Bft) 94,74 %
15.02.2017 00:32 -0,3 C 91 % 1034,3 hPa 0,0 l/m 2,8 km/h (1 Bft) O 82 0 min 0,000 mm 0,0 UV-I 0 W/m -1,6 C -0,3 C 4,8 km/h (1 Bft) 98,00 %
15.02.2017 00:34 -0,5 C 90 % 1034,3 hPa 0,0 l/m 1,6 km/h (1 Bft) O 82 0 min 0,000 mm 0,0 UV-I 0 W/m -1,9 C -0,5 C 3,2 km/h (1 Bft) 97,87 %
15.02.2017 00:36 -0,8 C 90 % 1034,3 hPa 0,0 l/m 2,0 km/h (1 Bft) O 82 0 min 0,000 mm 0,0 UV-I 0 W/m -2,2 C -0,8 C 3,2 km/h (1 Bft) 97,73 %
15.02.2017 00:38 -1,2 C 89 % 1034,3 hPa 0,0 l/m 0,4 km/h (0 Bft) O 82 0 min 0,000 mm 0,0 UV-I 0 W/m -2,8 C -1,2 C 3,2 km/h (1 Bft) 97,87 %
15.02.2017 00:40 -1,3 C 90 % 1034,4 hPa 0,0 l/m 0,1 km/h (0 Bft) O 82 0 min 0,000 mm 0,0 UV-I 0 W/m -2,7 C -1,3 C 1,6 km/h (1 Bft) 96,23 %
15.02.2017 00:42 -1,6 C 91 % 1034,4 hPa 0,0 l/m 0,2 km/h (0 Bft) O 82 0 min 0,000 mm 0,0 UV-I 0 W/m -2,9 C -1,6 C 1,6 km/h (1 Bft) 97,87 %
15.02.2017 00:44 -1,7 C 91 % 1034,3 hPa 0,0 l/m 0,8 km/h (0 Bft) O 82 0 min 0,000 mm 0,0 UV-I 0 W/m -3,0 C -1,7 C 1,6 km/h (1 Bft) 100,00 %
15.02.2017 00:46 -1,8 C 92 % 1034,3 hPa 0,0 l/m 1,8 km/h (1 Bft) O 82 0 min 0,000 mm 0,0 UV-I 0 W/m -2,9 C -1,8 C 3,2 km/h (1 Bft) 95,74 %
15.02.2017 00:48 -1,8 C 92 % 1034,4 hPa 0,0 l/m 0,6 km/h (0 Bft) O 82 0 min 0,000 mm 0,0 UV-I 0 W/m -2,9 C -1,8 C 3,2 km/h (1 Bft) 100,00 %
15.02.2017 00:50 -1,8 C 92 % 1034,4 hPa 0,0 l/m 0,4 km/h (0 Bft) O 82 0 min 0,000 mm 0,0 UV-I 0 W/m -2,9 C -1,8 C 1,6 km/h (1 Bft) 96,00 %
15.02.2017 00:52 -1,9 C 92 % 1034,4 hPa 0,0 l/m 0,2 km/h (0 Bft) O 82 0 min 0,000 mm 0,0 UV-I 0 W/m -3,0 C -1,9 C 3,2 km/h (1 Bft) 97,87 %
15.02.2017 00:54 -2,0 C 92 % 1034,5 hPa 0,0 l/m 0,2 km/h (0 Bft) O 82 0 min 0,000 mm 0,0 UV-I 0 W/m -3,1 C -2,0 C 1,6 km/h (1 Bft) 100,00 %
15.02.2017 00:56 -2,1 C 92 % 1034,5 hPa 0,0 l/m 0,0 km/h (0 Bft) O 82 0 min 0,000 mm 0,0 UV-I 0 W/m -3,2 C -2,1 C 1,6 km/h (1 Bft) 95,74 %
15.02.2017 00:58 -2,1 C 93 % 1034,5 hPa 0,0 l/m 0,0 km/h (0 Bft) O 82 0 min 0,000 mm 0,0 UV-I 0 W/m -3,1 C -2,1 C 0,0 km/h (0 Bft) 98,00 %
15.02.2017 01:00 -2,1 C 93 % 1034,5 hPa 0,0 l/m 0,0 km/h (0 Bft) O 82 0 min 0,000 mm 0,0 UV-I 0 W/m -3,1 C -2,1 C 0,0 km/h (0 Bft) 95,74 %
15.02.2017 01:02 -2,2 C 93 % 1034,5 hPa 0,0 l/m 0,0 km/h (0 Bft) O 82 0 min 0,000 mm 0,0 UV-I 0 W/m -3,2 C -2,2 C 1,6 km/h (1 Bft) 94,00 %
15.02.2017 01:04 -2,2 C 93 % 1034,5 hPa 0,0 l/m 0,1 km/h (0 Bft) O 82 0 min 0,000 mm 0,0 UV-I 0 W/m -3,2 C -2,2 C 1,6 km/h (1 Bft) 100,00 %
15.02.2017 01:06 -2,2 C 93 % 1034,5 hPa 0,0 l/m 2,0 km/h (1 Bft) O 82 0 min 0,000 mm 0,0 UV-I 0 W/m -3,2 C -2,2 C 3,2 km/h (1 Bft) 91,49 %
15.02.2017 01:08 -2,2 C 93 % 1034,5 hPa 0,0 l/m 1,9 km/h (1 Bft) O 82 0 min 0,000 mm 0,0 UV-I 0 W/m -3,2 C -2,2 C 3,2 km/h (1 Bft) 98,21 %
15.02.2017 01:10 -2,2 C 93 % 1034,5 hPa 0,0 l/m 2,7 km/h (1 Bft) O 82 0 min 0,000 mm 0,0 UV-I 0 W/m -3,2 C -2,2 C 4,8 km/h (1 Bft) 91,49 %
15.02.2017 01:12 -2,2 C 94 % 1034,5 hPa 0,0 l/m 1,6 km/h (1 Bft) O 82 0 min 0,000 mm 0,0 UV-I 0 W/m -3,0 C -2,2 C 3,2 km/h (1 Bft) 97,87 %
15.02.2017 01:14 -2,2 C 94 % 1034,4 hPa 0,0 l/m 3,3 km/h (1 Bft) O 82 0 min 0,000 mm 0,0 UV-I 0 W/m -3,0 C -2,2 C 4,8 km/h (1 Bft) 95,45 %
15.02.2017 01:16 -2,3 C 94 % 1034,5 hPa 0,0 l/m 2,8 km/h (1 Bft) O 82 0 min 0,000 mm 0,0 UV-I 0 W/m -3,1 C -2,3 C 4,8 km/h (1 Bft) 96,00 %
15.02.2017 01:18 -2,3 C 94 % 1034,4 hPa 0,0 l/m 2,7 km/h (1 Bft) O 82 0 min 0,000 mm 0,0 UV-I 0 W/m -3,1 C -2,3 C 4,8 km/h (1 Bft) 95,12 %
15.02.2017 01:20 -2,3 C 94 % 1034,5 hPa 0,0 l/m 2,5 km/h (1 Bft) O 82 0 min 0,000 mm 0,0 UV-I 0 W/m -3,1 C -2,3 C 3,2 km/h (1 Bft) 94,00 %
15.02.2017 01:22 -2,3 C 94 % 1034,5 hPa 0,0 l/m 0,7 km/h (0 Bft) O 82 0 min 0,000 mm 0,0 UV-I 0 W/m -3,1 C -2,3 C 3,2 km/h (1 Bft) 92,00 %
15.02.2017 01:24 -2,2 C 94 % 1034,5 hPa 0,0 l/m 1,3 km/h (1 Bft) O 82 0 min 0,000 mm 0,0 UV-I 0 W/m -3,0 C -2,2 C 3,2 km/h (1 Bft) 90,24 %
15.02.2017 01:26 -2,2 C 94 % 1034,6 hPa 0,0 l/m 0,1 km/h (0 Bft) O 82 0 min 0,000 mm 0,0 UV-I 0 W/m -3,0 C -2,2 C 1,6 km/h (1 Bft) 97,87 %
15.02.2017 01:28 -2,3 C 94 % 1034,5 hPa 0,0 l/m 0,0 km/h (0 Bft) O 82 0 min 0,000 mm 0,0 UV-I 0 W/m -3,1 C -2,3 C 0,0 km/h (0 Bft) 95,74 %
15.02.2017 01:30 -2,4 C 94 % 1034,6 hPa 0,0 l/m 0,0 km/h (0 Bft) O 82 0 min 0,000 mm 0,0 UV-I 0 W/m -3,2 C -2,4 C 0,0 km/h (0 Bft) 98,00 %
15.02.2017 01:32 -2,6 C 94 % 1034,6 hPa 0,0 l/m 0,0 km/h (0 Bft) O 82 0 min 0,000 mm 0,0 UV-I 0 W/m -3,4 C -2,6 C 0,0 km/h (0 Bft) 100,00 %
15.02.2017 01:34 -2,7 C 94 % 1034,6 hPa 0,0 l/m 1,4 km/h (1 Bft) O 82 0 min 0,000 mm 0,0 UV-I 0 W/m -3,5 C -2,7 C 3,2 km/h (1 Bft) 100,00 %
15.02.2017 01:36 -2,8 C 94 % 1034,6 hPa 0,0 l/m 2,4 km/h (1 Bft) O 82 0 min 0,000 mm 0,0 UV-I 0 W/m -3,6 C -2,8 C 3,2 km/h (1 Bft) 98,00 %
15.02.2017 01:38 -2,8 C 94 % 1034,6 hPa 0,0 l/m 3,9 km/h (1 Bft) S-SO 157 0 min 0,000 mm 0,0 UV-I 0 W/m -3,6 C -2,8 C 4,8 km/h (1 Bft) 98,21 %
15.02.2017 01:40 -2,9 C 94 % 1034,5 hPa 0,0 l/m 3,2 km/h (1 Bft) S-SO 159 0 min 0,000 mm 0,0 UV-I 0 W/m -3,7 C -2,9 C 3,2 km/h (1 Bft) 100,00 %
15.02.2017 01:42 -2,9 C 94 % 1034,5 hPa 0,0 l/m 3,0 km/h (1 Bft) S-SO 159 0 min 0,000 mm 0,0 UV-I 0 W/m -3,7 C -2,9 C 6,4 km/h (2 Bft) 100,00 %
15.02.2017 01:44 -3,0 C 94 % 1034,5 hPa 0,0 l/m 2,6 km/h (1 Bft) S-SO 159 0 min 0,000 mm 0,0 UV-I 0 W/m -3,8 C -3,0 C 3,2 km/h (1 Bft) 100,00 %
15.02.2017 01:46 -2,9 C 94 % 1034,6 hPa 0,0 l/m 1,9 km/h (1 Bft) S-SO 159 0 min 0,000 mm 0,0 UV-I 0 W/m -3,7 C -2,9 C 3,2 km/h (1 Bft) 95,74 %
15.02.2017 01:48 -2,8 C 95 % 1034,6 hPa 0,0 l/m 1,8 km/h (1 Bft) S-SO 159 0 min 0,000 mm 0,0 UV-I 0 W/m -3,5 C -2,8 C 3,2 km/h (1 Bft) 100,00 %
15.02.2017 01:50 -2,8 C 94 % 1034,6 hPa 0,0 l/m 1,7 km/h (1 Bft) S-SO 159 0 min 0,000 mm 0,0 UV-I 0 W/m -3,6 C -2,8 C 3,2 km/h (1 Bft) 97,56 %
15.02.2017 01:52 -2,8 C 94 % 1034,6 hPa 0,0 l/m 2,5 km/h (1 Bft) S-SO 159 0 min 0,000 mm 0,0 UV-I 0 W/m -3,6 C -2,8 C 3,2 km/h (1 Bft) 96,23 %
15.02.2017 01:54 -2,8 C 94 % 1034,6 hPa 0,0 l/m 2,7 km/h (1 Bft) S-SO 159 0 min 0,000 mm 0,0 UV-I 0 W/m -3,6 C -2,8 C 3,2 km/h (1 Bft) 97,87 %
15.02.2017 01:56 -2,9 C 94 % 1034,5 hPa 0,0 l/m 2,7 km/h (1 Bft) S-SO 159 0 min 0,000 mm 0,0 UV-I 0 W/m -3,7 C -2,9 C 3,2 km/h (1 Bft) 97,87 %
15.02.2017 01:58 -2,9 C 94 % 1034,6 hPa 0,0 l/m 3,7 km/h (1 Bft) S-SO 159 0 min 0,000 mm 0,0 UV-I 0 W/m -3,7 C -2,9 C 6,4 km/h (2 Bft) 97,87 %
15.02.2017 02:00 -3,1 C 94 % 1034,6 hPa 0,0 l/m 2,9 km/h (1 Bft) S-SO 159 0 min 0,000 mm 0,0 UV-I 0 W/m -3,9 C -3,1 C 6,4 km/h (2 Bft) 86,84 %
15.02.2017 02:02 -3,1 C 94 % 1034,6 hPa 0,0 l/m 3,3 km/h (1 Bft) S-SO 159 0 min 0,000 mm 0,0 UV-I 0 W/m -3,9 C -3,1 C 6,4 km/h (2 Bft) 98,11 %
15.02.2017 02:04 -3,1 C 94 % 1034,6 hPa 0,0 l/m 2,7 km/h (1 Bft) S-SO 159 0 min 0,000 mm 0,0 UV-I 0 W/m -3,9 C -3,1 C 6,4 km/h (2 Bft) 100,00 %
15.02.2017 02:06 -3,1 C 94 % 1034,6 hPa 0,0 l/m 3,5 km/h (1 Bft) S-SO 159 0 min 0,000 mm 0,0 UV-I 0 W/m -3,9 C -3,1 C 6,4 km/h (2 Bft) 97,22 %
15.02.2017 02:08 -3,1 C 94 % 1034,6 hPa 0,0 l/m 3,8 km/h (1 Bft) S-SO 159 0 min 0,000 mm 0,0 UV-I 0 W/m -3,9 C -3,1 C 6,4 km/h (2 Bft) 100,00 %
15.02.2017 02:10 -3,1 C 94 % 1034,6 hPa 0,0 l/m 2,5 km/h (1 Bft) S-SO 159 0 min 0,000 mm 0,0 UV-I 0 W/m -3,9 C -3,1 C 6,4 km/h (2 Bft) 98,00 %
15.02.2017 02:12 -3,0 C 94 % 1034,6 hPa 0,0 l/m 3,1 km/h (1 Bft) S-SO 159 0 min 0,000 mm 0,0 UV-I 0 W/m -3,8 C -3,0 C 6,4 km/h (2 Bft) 97,87 %
15.02.2017 02:14 -3,0 C 94 % 1034,6 hPa 0,0 l/m 4,4 km/h (1 Bft) S-SO 159 0 min 0,000 mm 0,0 UV-I 0 W/m -3,8 C -3,0 C 6,4 km/h (2 Bft) 95,12 %
15.02.2017 02:16 -2,9 C 95 % 1034,6 hPa 0,0 l/m 2,9 km/h (1 Bft) S-SO 159 0 min 0,000 mm 0,0 UV-I 0 W/m -3,6 C -2,9 C 6,4 km/h (2 Bft) 98,21 %
15.02.2017 02:18 -3,1 C 94 % 1034,5 hPa 0,0 l/m 1,7 km/h (1 Bft) S-SO 159 0 min 0,000 mm 0,0 UV-I 0 W/m -3,9 C -3,1 C 3,2 km/h (1 Bft) 97,37 %
15.02.2017 02:20 -3,1 C 94 % 1034,5 hPa 0,0 l/m 1,2 km/h (1 Bft) S-SO 159 0 min 0,000 mm 0,0 UV-I 0 W/m -3,9 C -3,1 C 3,2 km/h (1 Bft) 96,00 %
15.02.2017 02:22 -3,1 C 94 % 1034,5 hPa 0,0 l/m 0,0 km/h (0 Bft) S-SO 159 0 min 0,000 mm 0,0 UV-I 0 W/m -3,9 C -3,1 C 0,0 km/h (0 Bft) 92,00 %
15.02.2017 02:24 -3,0 C 95 % 1034,5 hPa 0,0 l/m 0,0 km/h (0 Bft) S-SO 159 0 min 0,000 mm 0,0 UV-I 0 W/m -3,7 C -3,0 C 0,0 km/h (0 Bft) 97,14 %
15.02.2017 02:26 -3,0 C 95 % 1034,5 hPa 0,0 l/m 0,1 km/h (0 Bft) S-SO 159 0 min 0,000 mm 0,0 UV-I 0 W/m -3,7 C -3,0 C 1,6 km/h (1 Bft) 91,94 %
15.02.2017 02:28 -3,0 C 94 % 1034,5 hPa 0,0 l/m 1,5 km/h (1 Bft) S-SO 159 0 min 0,000 mm 0,0 UV-I 0 W/m -3,8 C -3,0 C 3,2 km/h (1 Bft) 97,37 %
15.02.2017 02:30 -2,9 C 95 % 1034,6 hPa 0,0 l/m 0,2 km/h (0 Bft) S-SO 159 0 min 0,000 mm 0,0 UV-I 0 W/m -3,6 C -2,9 C 1,6 km/h (1 Bft) 90,57 %
15.02.2017 02:32 -2,9 C 95 % 1034,5 hPa 0,0 l/m 0,0 km/h (0 Bft) S-SO 159 0 min 0,000 mm 0,0 UV-I 0 W/m -3,6 C -2,9 C 0,0 km/h (0 Bft) 93,62 %
15.02.2017 02:34 -2,8 C 95 % 1034,5 hPa 0,0 l/m 0,0 km/h (0 Bft) S-SO 159 0 min 0,000 mm 0,0 UV-I 0 W/m -3,5 C -2,8 C 1,6 km/h (1 Bft) 92,68 %
15.02.2017 02:36 -2,9 C 95 % 1034,5 hPa 0,0 l/m 0,0 km/h (0 Bft) S-SO 159 0 min 0,000 mm 0,0 UV-I 0 W/m -3,6 C -2,9 C 0,0 km/h (0 Bft) 94,34 %
15.02.2017 02:38 -2,9 C 95 % 1034,5 hPa 0,0 l/m 0,9 km/h (0 Bft) S-SO 159 0 min 0,000 mm 0,0 UV-I 0 W/m -3,6 C -2,9 C 3,2 km/h (1 Bft) 95,74 %
15.02.2017 02:40 -2,9 C 95 % 1034,5 hPa 0,0 l/m 2,0 km/h (1 Bft) S-SO 159 0 min 0,000 mm 0,0 UV-I 0 W/m -3,6 C -2,9 C 3,2 km/h (1 Bft) 94,00 %
15.02.2017 02:42 -2,9 C 95 % 1034,5 hPa 0,0 l/m 0,2 km/h (0 Bft) S-SO 159 0 min 0,000 mm 0,0 UV-I 0 W/m -3,6 C -2,9 C 1,6 km/h (1 Bft) 91,49 %
15.02.2017 02:44 -2,9 C 95 % 1034,5 hPa 0,0 l/m 0,1 km/h (0 Bft) S-SO 159 0 min 0,000 mm 0,0 UV-I 0 W/m -3,6 C -2,9 C 1,6 km/h (1 Bft) 97,37 %
15.02.2017 02:46 -2,9 C 95 % 1034,6 hPa 0,0 l/m 1,0 km/h (0 Bft) S-SO 159 0 min 0,000 mm 0,0 UV-I 0 W/m -3,6 C -2,9 C 3,2 km/h (1 Bft) 93,62 %
15.02.2017 02:48 -2,9 C 95 % 1034,5 hPa 0,0 l/m 2,2 km/h (1 Bft) S-SO 159 0 min 0,000 mm 0,0 UV-I 0 W/m -3,6 C -2,9 C 3,2 km/h (1 Bft) 96,23 %
15.02.2017 02:50 -2,9 C 95 % 1034,5 hPa 0,0 l/m 2,4 km/h (1 Bft) S-SO 159 0 min 0,000 mm 0,0 UV-I 0 W/m -3,6 C -2,9 C 3,2 km/h (1 Bft) 94,87 %
15.02.2017 02:52 -3,1 C 95 % 1034,6 hPa 0,0 l/m 3,6 km/h (1 Bft) S-SO 159 0 min 0,000 mm 0,0 UV-I 0 W/m -3,8 C -3,1 C 6,4 km/h (2 Bft) 96,23 %
15.02.2017 02:54 -3,2 C 95 % 1034,5 hPa 0,0 l/m 2,4 km/h (1 Bft) S-SO 159 0 min 0,000 mm 0,0 UV-I 0 W/m -3,9 C -3,2 C 6,4 km/h (2 Bft) 95,74 %
15.02.2017 02:56 -3,2 C 94 % 1034,5 hPa 0,0 l/m 3,6 km/h (1 Bft) S-SO 159 0 min 0,000 mm 0,0 UV-I 0 W/m -4,0 C -3,2 C 6,4 km/h (2 Bft) 98,00 %
15.02.2017 02:58 -3,2 C 95 % 1034,5 hPa 0,0 l/m 3,4 km/h (1 Bft) S-SO 159 0 min 0,000 mm 0,0 UV-I 0 W/m -3,9 C -3,2 C 6,4 km/h (2 Bft) 100,00 %
15.02.2017 03:00 -3,2 C 95 % 1034,6 hPa 0,0 l/m 2,4 km/h (1 Bft) S-SO 159 0 min 0,000 mm 0,0 UV-I 0 W/m -3,9 C -3,2 C 3,2 km/h (1 Bft) 96,00 %
15.02.2017 03:02 -3,2 C 95 % 1034,6 hPa 0,0 l/m 1,4 km/h (1 Bft) S-SO 159 0 min 0,000 mm 0,0 UV-I 0 W/m -3,9 C -3,2 C 3,2 km/h (1 Bft) 92,45 %
15.02.2017 03:04 -3,2 C 95 % 1034,6 hPa 0,0 l/m 1,2 km/h (1 Bft) S-SO 159 0 min 0,000 mm 0,0 UV-I 0 W/m -3,9 C -3,2 C 3,2 km/h (1 Bft) 100,00 %
15.02.2017 03:06 -3,2 C 95 % 1034,6 hPa 0,0 l/m 0,4 km/h (0 Bft) S-SO 159 0 min 0,000 mm 0,0 UV-I 0 W/m -3,9 C -3,2 C 1,6 km/h (1 Bft) 100,00 %
15.02.2017 03:08 -3,1 C 95 % 1034,6 hPa 0,0 l/m 0,6 km/h (0 Bft) S-SO 159 0 min 0,000 mm 0,0 UV-I 0 W/m -3,8 C -3,1 C 1,6 km/h (1 Bft) 100,00 %
15.02.2017 03:10 -3,2 C 95 % 1034,6 hPa 0,0 l/m 1,2 km/h (1 Bft) S-SO 159 0 min 0,000 mm 0,0 UV-I 0 W/m -3,9 C -3,2 C 1,6 km/h (1 Bft) 100,00 %
15.02.2017 03:12 -3,2 C 95 % 1034,6 hPa 0,0 l/m 2,4 km/h (1 Bft) S-SO 159 0 min 0,000 mm 0,0 UV-I 0 W/m -3,9 C -3,2 C 3,2 km/h (1 Bft) 100,00 %
15.02.2017 03:14 -3,2 C 95 % 1034,5 hPa 0,0 l/m 3,5 km/h (1 Bft) S-SO 159 0 min 0,000 mm 0,0 UV-I 0 W/m -3,9 C -3,2 C 6,4 km/h (2 Bft) 100,00 %
15.02.2017 03:16 -3,3 C 95 % 1034,6 hPa 0,0 l/m 3,4 km/h (1 Bft) S-SO 159 0 min 0,000 mm 0,0 UV-I 0 W/m -4,0 C -3,3 C 6,4 km/h (2 Bft) 100,00 %
15.02.2017 03:18 -3,3 C 95 % 1034,6 hPa 0,0 l/m 3,6 km/h (1 Bft) S-SO 166 0 min 0,000 mm 0,0 UV-I 0 W/m -4,0 C -3,3 C 6,4 km/h (2 Bft) 98,00 %
15.02.2017 03:20 -3,4 C 95 % 1034,6 hPa 0,0 l/m 5,7 km/h (1 Bft) S-SO 167 0 min 0,000 mm 0,0 UV-I 0 W/m -4,1 C -3,4 C 6,4 km/h (2 Bft) 98,00 %
15.02.2017 03:22 -3,3 C 95 % 1034,6 hPa 0,0 l/m 4,7 km/h (1 Bft) S 184 0 min 0,000 mm 0,0 UV-I 0 W/m -4,0 C -3,3 C 6,4 km/h (2 Bft) 97,37 %
15.02.2017 03:24 -3,3 C 95 % 1034,6 hPa 0,0 l/m 4,8 km/h (1 Bft) S 186 0 min 0,000 mm 0,0 UV-I 0 W/m -4,0 C -3,3 C 6,4 km/h (2 Bft) 100,00 %
15.02.2017 03:26 -3,2 C 95 % 1034,6 hPa 0,0 l/m 3,8 km/h (1 Bft) S 186 0 min 0,000 mm 0,0 UV-I 0 W/m -3,9 C -3,2 C 4,8 km/h (1 Bft) 97,87 %
15.02.2017 03:28 -3,2 C 95 % 1034,6 hPa 0,0 l/m 2,2 km/h (1 Bft) S 186 0 min 0,000 mm 0,0 UV-I 0 W/m -3,9 C -3,2 C 4,8 km/h (1 Bft) 97,87 %
15.02.2017 03:30 -3,2 C 95 % 1034,6 hPa 0,0 l/m 2,0 km/h (1 Bft) S 186 0 min 0,000 mm 0,0 UV-I 0 W/m -3,9 C -3,2 C 4,8 km/h (1 Bft) 96,23 %
15.02.2017 03:32 -3,3 C 95 % 1034,6 hPa 0,0 l/m 3,6 km/h (1 Bft) S 186 0 min 0,000 mm 0,0 UV-I 0 W/m -4,0 C -3,3 C 4,8 km/h (1 Bft) 97,44 %
15.02.2017 03:34 -3,4 C 95 % 1034,7 hPa 0,0 l/m 3,7 km/h (1 Bft) S 186 0 min 0,000 mm 0,0 UV-I 0 W/m -4,1 C -3,4 C 4,8 km/h (1 Bft) 98,11 %
15.02.2017 03:36 -3,3 C 95 % 1034,6 hPa 0,0 l/m 1,5 km/h (1 Bft) S 186 0 min 0,000 mm 0,0 UV-I 0 W/m -4,0 C -3,3 C 3,2 km/h (1 Bft) 94,00 %
15.02.2017 03:38 -3,3 C 95 % 1034,7 hPa 0,0 l/m 0,7 km/h (0 Bft) S 186 0 min 0,000 mm 0,0 UV-I 0 W/m -4,0 C -3,3 C 3,2 km/h (1 Bft) 94,29 %
15.02.2017 03:40 -3,3 C 95 % 1034,7 hPa 0,0 l/m 0,6 km/h (0 Bft) S 186 0 min 0,000 mm 0,0 UV-I 0 W/m -4,0 C -3,3 C 1,6 km/h (1 Bft) 93,22 %
15.02.2017 03:42 -3,3 C 95 % 1034,7 hPa 0,0 l/m 1,7 km/h (1 Bft) S 186 0 min 0,000 mm 0,0 UV-I 0 W/m -4,0 C -3,3 C 3,2 km/h (1 Bft) 94,74 %
15.02.2017 03:44 -3,3 C 95 % 1034,7 hPa 0,0 l/m 0,2 km/h (0 Bft) S 186 0 min 0,000 mm 0,0 UV-I 0 W/m -4,0 C -3,3 C 1,6 km/h (1 Bft) 96,00 %
15.02.2017 03:46 -3,4 C 95 % 1034,7 hPa 0,0 l/m 0,0 km/h (0 Bft) S 186 0 min 0,000 mm 0,0 UV-I 0 W/m -4,1 C -3,4 C 1,6 km/h (1 Bft) 96,00 %
15.02.2017 03:48 -3,4 C 95 % 1034,7 hPa 0,0 l/m 0,0 km/h (0 Bft) S 186 0 min 0,000 mm 0,0 UV-I 0 W/m -4,1 C -3,4 C 0,0 km/h (0 Bft) 97,37 %
15.02.2017 03:50 -3,4 C 95 % 1034,7 hPa 0,0 l/m 1,5 km/h (1 Bft) S 185 0 min 0,000 mm 0,0 UV-I 0 W/m -4,1 C -3,4 C 3,2 km/h (1 Bft) 96,23 %
15.02.2017 03:52 -3,4 C 95 % 1034,8 hPa 0,0 l/m 1,5 km/h (1 Bft) S 186 0 min 0,000 mm 0,0 UV-I 0 W/m -4,1 C -3,4 C 3,2 km/h (1 Bft) 96,00 %
15.02.2017 03:54 -3,5 C 95 % 1034,8 hPa 0,0 l/m 1,5 km/h (1 Bft) S 186 0 min 0,000 mm 0,0 UV-I 0 W/m -4,2 C -3,5 C 3,2 km/h (1 Bft) 100,00 %
15.02.2017 03:56 -3,5 C 95 % 1034,8 hPa 0,0 l/m 0,8 km/h (0 Bft) S 186 0 min 0,000 mm 0,0 UV-I 0 W/m -4,2 C -3,5 C 3,2 km/h (1 Bft) 98,11 %
15.02.2017 03:58 -3,5 C 95 % 1034,8 hPa 0,0 l/m 0,0 km/h (0 Bft) S 186 0 min 0,000 mm 0,0 UV-I 0 W/m -4,2 C -3,5 C 1,6 km/h (1 Bft) 100,00 %
15.02.2017 04:00 -3,4 C 95 % 1034,8 hPa 0,0 l/m 0,0 km/h (0 Bft) S 185 0 min 0,000 mm 0,0 UV-I 0 W/m -4,1 C -3,4 C 0,0 km/h (0 Bft) 92,11 %
15.02.2017 04:02 -3,4 C 95 % 1034,8 hPa 0,0 l/m 0,4 km/h (0 Bft) S 186 0 min 0,000 mm 0,0 UV-I 0 W/m -4,1 C -3,4 C 1,6 km/h (1 Bft) 100,00 %
15.02.2017 04:04 -3,4 C 95 % 1034,8 hPa 0,0 l/m 2,4 km/h (1 Bft) S 186 0 min 0,000 mm 0,0 UV-I 0 W/m -4,1 C -3,4 C 3,2 km/h (1 Bft) 98,11 %
15.02.2017 04:06 -3,3 C 95 % 1034,8 hPa 0,0 l/m 1,6 km/h (1 Bft) S 186 0 min 0,000 mm 0,0 UV-I 0 W/m -4,0 C -3,3 C 3,2 km/h (1 Bft) 94,87 %
15.02.2017 04:08 -3,4 C 95 % 1034,8 hPa 0,0 l/m 2,4 km/h (1 Bft) S 186 0 min 0,000 mm 0,0 UV-I 0 W/m -4,1 C -3,4 C 3,2 km/h (1 Bft) 97,37 %
15.02.2017 04:10 -3,6 C 95 % 1034,8 hPa 0,0 l/m 2,3 km/h (1 Bft) S 186 0 min 0,000 mm 0,0 UV-I 0 W/m -4,3 C -3,6 C 4,8 km/h (1 Bft) 100,00 %
15.02.2017 04:12 -3,7 C 95 % 1034,7 hPa 0,0 l/m 1,3 km/h (1 Bft) S 186 0 min 0,000 mm 0,0 UV-I 0 W/m -4,4 C -3,7 C 3,2 km/h (1 Bft) 97,87 %
15.02.2017 04:14 -3,7 C 95 % 1034,8 hPa 0,0 l/m 0,2 km/h (0 Bft) S 186 0 min 0,000 mm 0,0 UV-I 0 W/m -4,4 C -3,7 C 1,6 km/h (1 Bft) 100,00 %
15.02.2017 04:16 -3,7 C 95 % 1034,8 hPa 0,0 l/m 0,0 km/h (0 Bft) S 186 0 min 0,000 mm 0,0 UV-I 0 W/m -4,4 C -3,7 C 1,6 km/h (1 Bft) 100,00 %
15.02.2017 04:18 -3,7 C 95 % 1034,8 hPa 0,0 l/m 0,0 km/h (0 Bft) S 186 0 min 0,000 mm 0,0 UV-I 0 W/m -4,4 C -3,7 C 0,0 km/h (0 Bft) 100,00 %
15.02.2017 04:20 -3,7 C 95 % 1034,8 hPa 0,0 l/m 0,1 km/h (0 Bft) S 186 0 min 0,000 mm 0,0 UV-I 0 W/m -4,4 C -3,7 C 1,6 km/h (1 Bft) 98,46 %
15.02.2017 04:22 -3,7 C 95 % 1034,9 hPa 0,0 l/m 0,9 km/h (0 Bft) S 186 0 min 0,000 mm 0,0 UV-I 0 W/m -4,4 C -3,7 C 1,6 km/h (1 Bft) 97,87 %
15.02.2017 04:24 -3,8 C 95 % 1034,9 hPa 0,0 l/m 0,1 km/h (0 Bft) S 185 0 min 0,000 mm 0,0 UV-I 0 W/m -4,5 C -3,8 C 1,6 km/h (1 Bft) 100,00 %
15.02.2017 04:26 -3,9 C 95 % 1034,9 hPa 0,0 l/m 0,0 km/h (0 Bft) S 186 0 min 0,000 mm 0,0 UV-I 0 W/m -4,6 C -3,9 C 0,0 km/h (0 Bft) 97,87 %
15.02.2017 04:28 -3,9 C 95 % 1034,9 hPa 0,0 l/m 0,0 km/h (0 Bft) S 186 0 min 0,000 mm 0,0 UV-I 0 W/m -4,6 C -3,9 C 0,0 km/h (0 Bft) 97,87 %
15.02.2017 04:30 -3,7 C 96 % 1034,9 hPa 0,0 l/m 0,0 km/h (0 Bft) S 186 0 min 0,000 mm 0,0 UV-I 0 W/m -4,2 C -3,7 C 0,0 km/h (0 Bft) 94,74 %
15.02.2017 04:32 -3,7 C 96 % 1034,9 hPa 0,0 l/m 0,1 km/h (0 Bft) S 186 0 min 0,000 mm 0,0 UV-I 0 W/m -4,2 C -3,7 C 1,6 km/h (1 Bft) 94,00 %
15.02.2017 04:34 -3,6 C 95 % 1035,0 hPa 0,0 l/m 0,0 km/h (0 Bft) S 186 0 min 0,000 mm 0,0 UV-I 0 W/m -4,3 C -3,6 C 0,0 km/h (0 Bft) 92,00 %
15.02.2017 04:36 -3,7 C 95 % 1034,9 hPa 0,0 l/m 1,0 km/h (0 Bft) S 186 0 min 0,000 mm 0,0 UV-I 0 W/m -4,4 C -3,7 C 1,6 km/h (1 Bft) 97,37 %
15.02.2017 04:38 -3,8 C 95 % 1035,0 hPa 0,0 l/m 1,1 km/h (1 Bft) S 185 0 min 0,000 mm 0,0 UV-I 0 W/m -4,5 C -3,8 C 1,6 km/h (1 Bft) 89,36 %
15.02.2017 04:40 -3,8 C 95 % 1035,0 hPa 0,0 l/m 0,2 km/h (0 Bft) S 186 0 min 0,000 mm 0,0 UV-I 0 W/m -4,5 C -3,8 C 1,6 km/h (1 Bft) 94,00 %
15.02.2017 04:42 -3,9 C 95 % 1035,0 hPa 0,0 l/m 1,6 km/h (1 Bft) S 186 0 min 0,000 mm 0,0 UV-I 0 W/m -4,6 C -3,9 C 3,2 km/h (1 Bft) 92,00 %
15.02.2017 04:44 -3,9 C 95 % 1035,1 hPa 0,0 l/m 2,7 km/h (1 Bft) S 186 0 min 0,000 mm 0,0 UV-I 0 W/m -4,6 C -3,9 C 3,2 km/h (1 Bft) 94,00 %
15.02.2017 04:46 -4,1 C 95 % 1035,0 hPa 0,0 l/m 2,8 km/h (1 Bft) S 186 0 min 0,000 mm 0,0 UV-I 0 W/m -4,8 C -4,1 C 4,8 km/h (1 Bft) 92,11 %
15.02.2017 04:48 -4,1 C 95 % 1035,0 hPa 0,0 l/m 3,3 km/h (1 Bft) S 186 0 min 0,000 mm 0,0 UV-I 0 W/m -4,8 C -4,1 C 4,8 km/h (1 Bft) 92,45 %
15.02.2017 04:50 -4,2 C 95 % 1035,1 hPa 0,0 l/m 4,0 km/h (1 Bft) S 186 0 min 0,000 mm 0,0 UV-I 0 W/m -4,9 C -4,2 C 4,8 km/h (1 Bft) 94,00 %
15.02.2017 04:52 -4,2 C 95 % 1035,1 hPa 0,0 l/m 3,7 km/h (1 Bft) S 186 0 min 0,000 mm 0,0 UV-I 0 W/m -4,9 C -4,2 C 4,8 km/h (1 Bft) 90,48 %
15.02.2017 04:54 -4,1 C 95 % 1035,2 hPa 0,0 l/m 3,2 km/h (1 Bft) S 186 0 min 0,000 mm 0,0 UV-I 0 W/m -4,8 C -4,1 C 4,8 km/h (1 Bft) 91,49 %
15.02.2017 04:56 -4,0 C 96 % 1035,1 hPa 0,0 l/m 1,4 km/h (1 Bft) S 186 0 min 0,000 mm 0,0 UV-I 0 W/m -4,5 C -4,0 C 3,2 km/h (1 Bft) 92,45 %
15.02.2017 04:58 -4,0 C 95 % 1035,1 hPa 0,0 l/m 1,2 km/h (1 Bft) S 186 0 min 0,000 mm 0,0 UV-I 0 W/m -4,7 C -4,0 C 3,2 km/h (1 Bft) 95,12 %
15.02.2017 05:00 -4,1 C 95 % 1035,0 hPa 0,0 l/m 1,4 km/h (1 Bft) S 186 0 min 0,000 mm 0,0 UV-I 0 W/m -4,8 C -4,1 C 3,2 km/h (1 Bft) 91,49 %
15.02.2017 05:02 -4,1 C 95 % 1035,1 hPa 0,0 l/m 1,9 km/h (1 Bft) S 186 0 min 0,000 mm 0,0 UV-I 0 W/m -4,8 C -4,1 C 3,2 km/h (1 Bft) 97,56 %
15.02.2017 05:04 -4,1 C 96 % 1035,1 hPa 0,0 l/m 2,1 km/h (1 Bft) S 186 0 min 0,000 mm 0,0 UV-I 0 W/m -4,6 C -4,1 C 3,2 km/h (1 Bft) 92,45 %
15.02.2017 05:06 -4,0 C 96 % 1035,1 hPa 0,0 l/m 0,5 km/h (0 Bft) S 186 0 min 0,000 mm 0,0 UV-I 0 W/m -4,5 C -4,0 C 1,6 km/h (1 Bft) 94,74 %
15.02.2017 05:08 -4,0 C 96 % 1035,1 hPa 0,0 l/m 0,7 km/h (0 Bft) S 186 0 min 0,000 mm 0,0 UV-I 0 W/m -4,5 C -4,0 C 3,2 km/h (1 Bft) 94,00 %
15.02.2017 05:10 -3,9 C 96 % 1035,1 hPa 0,0 l/m 0,4 km/h (0 Bft) S 186 0 min 0,000 mm 0,0 UV-I 0 W/m -4,4 C -3,9 C 1,6 km/h (1 Bft) 95,74 %
15.02.2017 05:12 -3,9 C 96 % 1035,2 hPa 0,0 l/m 0,5 km/h (0 Bft) S 186 0 min 0,000 mm 0,0 UV-I 0 W/m -4,4 C -3,9 C 1,6 km/h (1 Bft) 98,11 %
15.02.2017 05:14 -3,8 C 96 % 1035,2 hPa 0,0 l/m 0,5 km/h (0 Bft) S 186 0 min 0,000 mm 0,0 UV-I 0 W/m -4,3 C -3,8 C 3,2 km/h (1 Bft) 95,74 %
15.02.2017 05:16 -3,8 C 96 % 1035,3 hPa 0,0 l/m 0,8 km/h (0 Bft) S 186 0 min 0,000 mm 0,0 UV-I 0 W/m -4,3 C -3,8 C 3,2 km/h (1 Bft) 97,56 %
15.02.2017 05:18 -3,7 C 96 % 1035,3 hPa 0,0 l/m 0,3 km/h (0 Bft) S 186 0 min 0,000 mm 0,0 UV-I 0 W/m -4,2 C -3,7 C 1,6 km/h (1 Bft) 98,00 %
15.02.2017 05:20 -3,8 C 96 % 1035,3 hPa 0,0 l/m 1,2 km/h (1 Bft) S 186 0 min 0,000 mm 0,0 UV-I 0 W/m -4,3 C -3,8 C 1,6 km/h (1 Bft) 96,00 %
15.02.2017 05:22 -3,8 C 96 % 1035,3 hPa 0,0 l/m 0,5 km/h (0 Bft) S 186 0 min 0,000 mm 0,0 UV-I 0 W/m -4,3 C -3,8 C 1,6 km/h (1 Bft) 94,00 %
15.02.2017 05:24 -3,8 C 96 % 1035,4 hPa 0,0 l/m 0,0 km/h (0 Bft) S 186 0 min 0,000 mm 0,0 UV-I 0 W/m -4,3 C -3,8 C 1,6 km/h (1 Bft) 97,87 %
15.02.2017 05:26 -3,7 C 96 % 1035,4 hPa 0,0 l/m 1,8 km/h (1 Bft) S 186 0 min 0,000 mm 0,0 UV-I 0 W/m -4,2 C -3,7 C 3,2 km/h (1 Bft) 100,00 %
15.02.2017 05:28 -3,7 C 96 % 1035,4 hPa 0,0 l/m 1,6 km/h (1 Bft) S 186 0 min 0,000 mm 0,0 UV-I 0 W/m -4,2 C -3,7 C 3,2 km/h (1 Bft) 96,00 %
15.02.2017 05:30 -3,9 C 95 % 1035,4 hPa 0,0 l/m 1,2 km/h (1 Bft) S 186 0 min 0,000 mm 0,0 UV-I 0 W/m -4,6 C -3,9 C 3,2 km/h (1 Bft) 97,56 %
15.02.2017 05:32 -4,2 C 95 % 1035,5 hPa 0,0 l/m 3,1 km/h (1 Bft) S 186 0 min 0,000 mm 0,0 UV-I 0 W/m -4,9 C -4,2 C 4,8 km/h (1 Bft) 96,00 %
15.02.2017 05:34 -4,3 C 95 % 1035,4 hPa 0,0 l/m 3,8 km/h (1 Bft) S 186 0 min 0,000 mm 0,0 UV-I 0 W/m -5,0 C -4,3 C 4,8 km/h (1 Bft) 95,83 %
15.02.2017 05:36 -4,3 C 95 % 1035,5 hPa 0,0 l/m 3,5 km/h (1 Bft) S 186 0 min 0,000 mm 0,0 UV-I 0 W/m -5,0 C -4,3 C 4,8 km/h (1 Bft) 95,74 %
15.02.2017 05:38 -4,2 C 95 % 1035,4 hPa 0,0 l/m 3,1 km/h (1 Bft) S 185 0 min 0,000 mm 0,0 UV-I 0 W/m -4,9 C -4,2 C 4,8 km/h (1 Bft) 93,62 %
15.02.2017 05:40 -4,2 C 96 % 1035,5 hPa 0,0 l/m 2,5 km/h (1 Bft) S 186 0 min 0,000 mm 0,0 UV-I 0 W/m -4,7 C -4,2 C 4,8 km/h (1 Bft) 100,00 %
15.02.2017 05:42 -4,1 C 96 % 1035,5 hPa 0,0 l/m 3,3 km/h (1 Bft) S 186 0 min 0,000 mm 0,0 UV-I 0 W/m -4,6 C -4,1 C 4,8 km/h (1 Bft) 97,37 %
15.02.2017 05:44 -4,0 C 96 % 1035,5 hPa 0,0 l/m 2,4 km/h (1 Bft) S 186 0 min 0,000 mm 0,0 UV-I 0 W/m -4,5 C -4,0 C 3,2 km/h (1 Bft) 95,74 %
15.02.2017 05:46 -4,2 C 96 % 1035,5 hPa 0,0 l/m 1,9 km/h (1 Bft) S 185 0 min 0,000 mm 0,0 UV-I 0 W/m -4,7 C -4,2 C 4,8 km/h (1 Bft) 92,68 %
15.02.2017 05:48 -4,2 C 95 % 1035,5 hPa 0,0 l/m 0,7 km/h (0 Bft) S 186 0 min 0,000 mm 0,0 UV-I 0 W/m -4,9 C -4,2 C 1,6 km/h (1 Bft) 96,61 %
15.02.2017 05:50 -4,2 C 95 % 1035,5 hPa 0,0 l/m 0,3 km/h (0 Bft) S 186 0 min 0,000 mm 0,0 UV-I 0 W/m -4,9 C -4,2 C 1,6 km/h (1 Bft) 98,00 %
15.02.2017 05:52 -3,9 C 96 % 1035,5 hPa 0,0 l/m 1,2 km/h (1 Bft) S 186 0 min 0,000 mm 0,0 UV-I 0 W/m -4,4 C -3,9 C 3,2 km/h (1 Bft) 92,11 %
15.02.2017 05:54 -3,8 C 96 % 1035,6 hPa 0,0 l/m 0,5 km/h (0 Bft) S 185 0 min 0,000 mm 0,0 UV-I 0 W/m -4,3 C -3,8 C 1,6 km/h (1 Bft) 92,00 %
15.02.2017 05:56 -3,8 C 96 % 1035,6 hPa 0,0 l/m 1,0 km/h (0 Bft) S 186 0 min 0,000 mm 0,0 UV-I 0 W/m -4,3 C -3,8 C 3,2 km/h (1 Bft) 92,00 %
15.02.2017 05:58 -3,8 C 96 % 1035,6 hPa 0,0 l/m 1,1 km/h (1 Bft) S 186 0 min 0,000 mm 0,0 UV-I 0 W/m -4,3 C -3,8 C 3,2 km/h (1 Bft) 95,45 %
15.02.2017 06:00 -3,8 C 96 % 1035,6 hPa 0,0 l/m 1,1 km/h (1 Bft) S 185 0 min 0,000 mm 0,0 UV-I 0 W/m -4,3 C -3,8 C 3,2 km/h (1 Bft) 98,00 %
15.02.2017 06:02 -3,8 C 96 % 1035,5 hPa 0,0 l/m 0,9 km/h (0 Bft) S 186 0 min 0,000 mm 0,0 UV-I 0 W/m -4,3 C -3,8 C 1,6 km/h (1 Bft) 95,12 %
15.02.2017 06:04 -3,7 C 96 % 1035,5 hPa 0,0 l/m 0,6 km/h (0 Bft) S 186 0 min 0,000 mm 0,0 UV-I 0 W/m -4,2 C -3,7 C 1,6 km/h (1 Bft) 86,00 %
15.02.2017 06:06 -3,8 C 96 % 1035,5 hPa 0,0 l/m 0,0 km/h (0 Bft) S 186 0 min 0,000 mm 0,0 UV-I 0 W/m -4,3 C -3,8 C 0,0 km/h (0 Bft) 94,87 %
15.02.2017 06:08 -3,9 C 95 % 1035,6 hPa 0,0 l/m 0,8 km/h (0 Bft) S 186 0 min 0,000 mm 0,0 UV-I 0 W/m -4,6 C -3,9 C 3,2 km/h (1 Bft) 94,00 %
15.02.2017 06:10 -4,0 C 95 % 1035,5 hPa 0,0 l/m 1,0 km/h (0 Bft) S 186 0 min 0,000 mm 0,0 UV-I 0 W/m -4,7 C -4,0 C 1,6 km/h (1 Bft) 93,62 %
15.02.2017 06:12 -4,2 C 95 % 1035,6 hPa 0,0 l/m 0,2 km/h (0 Bft) S 186 0 min 0,000 mm 0,0 UV-I 0 W/m -4,9 C -4,2 C 1,6 km/h (1 Bft) 98,11 %
15.02.2017 06:14 -4,2 C 95 % 1035,6 hPa 0,0 l/m 0,7 km/h (0 Bft) S 186 0 min 0,000 mm 0,0 UV-I 0 W/m -4,9 C -4,2 C 3,2 km/h (1 Bft) 95,92 %
15.02.2017 06:16 -4,2 C 96 % 1035,6 hPa 0,0 l/m 1,6 km/h (1 Bft) S 186 0 min 0,000 mm 0,0 UV-I 0 W/m -4,7 C -4,2 C 3,2 km/h (1 Bft) 91,67 %
15.02.2017 06:18 -4,3 C 95 % 1035,7 hPa 0,0 l/m 3,4 km/h (1 Bft) S 186 0 min 0,000 mm 0,0 UV-I 0 W/m -5,0 C -4,3 C 4,8 km/h (1 Bft) 97,37 %
15.02.2017 06:20 -4,4 C 95 % 1035,7 hPa 0,0 l/m 3,7 km/h (1 Bft) S 186 0 min 0,000 mm 0,0 UV-I 0 W/m -5,1 C -4,4 C 4,8 km/h (1 Bft) 96,92 %
15.02.2017 06:22 -4,4 C 95 % 1035,7 hPa 0,0 l/m 2,7 km/h (1 Bft) S 186 0 min 0,000 mm 0,0 UV-I 0 W/m -5,1 C -4,4 C 4,8 km/h (1 Bft) 100,00 %
15.02.2017 06:24 -4,4 C 95 % 1035,7 hPa 0,0 l/m 3,2 km/h (1 Bft) S 186 0 min 0,000 mm 0,0 UV-I 0 W/m -5,1 C -4,4 C 4,8 km/h (1 Bft) 97,56 %
15.02.2017 06:26 -4,4 C 95 % 1035,7 hPa 0,0 l/m 1,6 km/h (1 Bft) S 186 0 min 0,000 mm 0,0 UV-I 0 W/m -5,1 C -4,4 C 3,2 km/h (1 Bft) 95,74 %
15.02.2017 06:28 -4,3 C 96 % 1035,7 hPa 0,0 l/m 2,0 km/h (1 Bft) S 186 0 min 0,000 mm 0,0 UV-I 0 W/m -4,8 C -4,3 C 3,2 km/h (1 Bft) 92,00 %
15.02.2017 06:30 -4,3 C 96 % 1035,7 hPa 0,0 l/m 0,3 km/h (0 Bft) S 186 0 min 0,000 mm 0,0 UV-I 0 W/m -4,8 C -4,3 C 1,6 km/h (1 Bft) 95,12 %
15.02.2017 06:32 -4,3 C 96 % 1035,8 hPa 0,0 l/m 0,1 km/h (0 Bft) S 186 0 min 0,000 mm 0,0 UV-I 0 W/m -4,8 C -4,3 C 1,6 km/h (1 Bft) 98,11 %
15.02.2017 06:34 -4,3 C 96 % 1035,7 hPa 0,0 l/m 0,1 km/h (0 Bft) S 186 0 min 0,000 mm 0,0 UV-I 0 W/m -4,8 C -4,3 C 1,6 km/h (1 Bft) 100,00 %
15.02.2017 06:36 -4,2 C 96 % 1035,7 hPa 0,0 l/m 0,2 km/h (0 Bft) S 186 0 min 0,000 mm 0,0 UV-I 0 W/m -4,7 C -4,2 C 1,6 km/h (1 Bft) 94,74 %
15.02.2017 06:38 -4,1 C 96 % 1035,7 hPa 0,0 l/m 0,6 km/h (0 Bft) S 186 0 min 0,000 mm 0,0 UV-I 0 W/m -4,6 C -4,1 C 1,6 km/h (1 Bft) 92,86 %
15.02.2017 06:40 -4,0 C 96 % 1035,8 hPa 0,0 l/m 0,2 km/h (0 Bft) S 186 0 min 0,000 mm 0,0 UV-I 0 W/m -4,5 C -4,0 C 1,6 km/h (1 Bft) 95,12 %
15.02.2017 06:42 -4,1 C 96 % 1035,8 hPa 0,0 l/m 0,0 km/h (0 Bft) S 186 0 min 0,000 mm 0,0 UV-I 0 W/m -4,6 C -4,1 C 1,6 km/h (1 Bft) 90,57 %
15.02.2017 06:44 -4,2 C 95 % 1035,8 hPa 0,0 l/m 0,5 km/h (0 Bft) S 186 0 min 0,000 mm 0,0 UV-I 0 W/m -4,9 C -4,2 C 1,6 km/h (1 Bft) 100,00 %
15.02.2017 06:46 -4,2 C 95 % 1035,8 hPa 0,0 l/m 1,1 km/h (1 Bft) S 186 0 min 0,000 mm 0,0 UV-I 0 W/m -4,9 C -4,2 C 3,2 km/h (1 Bft) 94,92 %
15.02.2017 06:48 -4,2 C 96 % 1035,8 hPa 0,0 l/m 0,9 km/h (0 Bft) S 186 0 min 0,000 mm 0,0 UV-I 0 W/m -4,7 C -4,2 C 3,2 km/h (1 Bft) 100,00 %
15.02.2017 06:50 -4,2 C 96 % 1035,8 hPa 0,0 l/m 0,0 km/h (0 Bft) S 186 0 min 0,000 mm 0,0 UV-I 0 W/m -4,7 C -4,2 C 0,0 km/h (0 Bft) 95,74 %
15.02.2017 06:52 -4,2 C 96 % 1035,9 hPa 0,0 l/m 0,0 km/h (0 Bft) S 186 0 min 0,000 mm 0,0 UV-I 0 W/m -4,7 C -4,2 C 1,6 km/h (1 Bft) 94,00 %
15.02.2017 06:54 -4,2 C 96 % 1036,0 hPa 0,0 l/m 0,0 km/h (0 Bft) S 186 0 min 0,000 mm 0,0 UV-I 0 W/m -4,7 C -4,2 C 0,0 km/h (0 Bft) 93,62 %
15.02.2017 06:56 -4,2 C 96 % 1036,0 hPa 0,0 l/m 0,0 km/h (0 Bft) S 186 0 min 0,000 mm 0,0 UV-I 2 W/m -4,7 C -4,2 C 0,0 km/h (0 Bft) 96,00 %
15.02.2017 06:58 -4,2 C 96 % 1036,0 hPa 0,0 l/m 0,3 km/h (0 Bft) S 186 0 min 0,000 mm 0,0 UV-I 5 W/m -4,7 C -4,2 C 1,6 km/h (1 Bft) 94,74 %
15.02.2017 07:00 -4,2 C 96 % 1036,0 hPa 0,0 l/m 0,4 km/h (0 Bft) S 186 0 min 0,000 mm 0,0 UV-I 5 W/m -4,7 C -4,2 C 1,6 km/h (1 Bft) 94,00 %
15.02.2017 07:02 -4,1 C 96 % 1036,0 hPa 0,0 l/m 0,1 km/h (0 Bft) S 186 0 min 0,000 mm 0,0 UV-I 5 W/m -4,6 C -4,1 C 1,6 km/h (1 Bft) 94,00 %
15.02.2017 07:04 -4,1 C 96 % 1036,0 hPa 0,0 l/m 0,0 km/h (0 Bft) S 186 0 min 0,000 mm 0,0 UV-I 5 W/m -4,6 C -4,1 C 0,0 km/h (0 Bft) 91,49 %
15.02.2017 07:06 -4,1 C 96 % 1036,1 hPa 0,0 l/m 0,0 km/h (0 Bft) S 186 0 min 0,000 mm 0,0 UV-I 7 W/m -4,6 C -4,1 C 0,0 km/h (0 Bft) 96,00 %
15.02.2017 07:08 -4,2 C 96 % 1036,1 hPa 0,0 l/m 0,0 km/h (0 Bft) S 186 0 min 0,000 mm 0,0 UV-I 7 W/m -4,7 C -4,2 C 0,0 km/h (0 Bft) 94,74 %
15.02.2017 07:10 -4,3 C 95 % 1036,2 hPa 0,0 l/m 0,0 km/h (0 Bft) S 186 0 min 0,000 mm 0,0 UV-I 7 W/m -5,0 C -4,3 C 0,0 km/h (0 Bft) 96,00 %
15.02.2017 07:12 -4,3 C 96 % 1036,2 hPa 0,0 l/m 0,0 km/h (0 Bft) S 186 0 min 0,000 mm 0,0 UV-I 9 W/m -4,8 C -4,3 C 0,0 km/h (0 Bft) 97,87 %
15.02.2017 07:14 -4,3 C 96 % 1036,2 hPa 0,0 l/m 0,0 km/h (0 Bft) S 186 0 min 0,000 mm 0,0 UV-I 9 W/m -4,8 C -4,3 C 0,0 km/h (0 Bft) 95,74 %
15.02.2017 07:16 -4,3 C 96 % 1036,3 hPa 0,0 l/m 1,1 km/h (1 Bft) S 186 0 min 0,000 mm 0,0 UV-I 10 W/m -4,8 C -4,3 C 3,2 km/h (1 Bft) 96,00 %
15.02.2017 07:18 -4,4 C 95 % 1036,3 hPa 0,0 l/m 1,6 km/h (1 Bft) S 186 0 min 0,000 mm 0,0 UV-I 11 W/m -5,1 C -4,4 C 3,2 km/h (1 Bft) 93,62 %
15.02.2017 07:20 -4,4 C 95 % 1036,3 hPa 0,0 l/m 0,0 km/h (0 Bft) S 186 0 min 0,000 mm 0,0 UV-I 12 W/m -5,1 C -4,4 C 1,6 km/h (1 Bft) 95,74 %
15.02.2017 07:22 -4,5 C 95 % 1036,3 hPa 0,0 l/m 1,4 km/h (1 Bft) S 186 2 min 0,000 mm 0,0 UV-I 14 W/m -5,2 C -4,5 C 3,2 km/h (1 Bft) 91,67 %
15.02.2017 07:24 -4,6 C 95 % 1036,3 hPa 0,0 l/m 1,9 km/h (1 Bft) S 186 2 min 0,000 mm 0,0 UV-I 16 W/m -5,3 C -4,6 C 3,2 km/h (1 Bft) 95,31 %
15.02.2017 07:26 -4,7 C 95 % 1036,3 hPa 0,0 l/m 2,1 km/h (1 Bft) S 186 2 min 0,000 mm 0,0 UV-I 17 W/m -5,4 C -4,7 C 3,2 km/h (1 Bft) 100,00 %
15.02.2017 07:28 -4,7 C 95 % 1036,3 hPa 0,0 l/m 3,0 km/h (1 Bft) S 186 0 min 0,000 mm 0,0 UV-I 19 W/m -5,4 C -4,7 C 4,8 km/h (1 Bft) 97,87 %
15.02.2017 07:30 -4,7 C 95 % 1036,3 hPa 0,0 l/m 2,7 km/h (1 Bft) S 186 0 min 0,000 mm 0,0 UV-I 21 W/m -5,4 C -4,7 C 3,2 km/h (1 Bft) 97,44 %
15.02.2017 07:32 -4,7 C 95 % 1036,3 hPa 0,0 l/m 1,9 km/h (1 Bft) S 186 0 min 0,000 mm 0,0 UV-I 22 W/m -5,4 C -4,7 C 3,2 km/h (1 Bft) 98,00 %
15.02.2017 07:34 -4,6 C 96 % 1036,3 hPa 0,0 l/m 2,0 km/h (1 Bft) S 186 0 min 0,000 mm 0,0 UV-I 24 W/m -5,1 C -4,6 C 3,2 km/h (1 Bft) 100,00 %
15.02.2017 07:36 -4,6 C 96 % 1036,4 hPa 0,0 l/m 2,1 km/h (1 Bft) S 186 0 min 0,000 mm 0,0 UV-I 26 W/m -5,1 C -4,6 C 3,2 km/h (1 Bft) 97,22 %
15.02.2017 07:38 -4,4 C 96 % 1036,3 hPa 0,0 l/m 1,4 km/h (1 Bft) S 186 0 min 0,000 mm 0,0 UV-I 29 W/m -4,9 C -4,4 C 3,2 km/h (1 Bft) 100,00 %
15.02.2017 07:40 -4,4 C 96 % 1036,4 hPa 0,0 l/m 0,6 km/h (0 Bft) S 186 0 min 0,000 mm 0,0 UV-I 32 W/m -4,9 C -4,4 C 1,6 km/h (1 Bft) 98,00 %
15.02.2017 07:42 -4,5 C 95 % 1036,4 hPa 0,0 l/m 1,2 km/h (1 Bft) S 186 0 min 0,000 mm 0,0 UV-I 34 W/m -5,2 C -4,5 C 1,6 km/h (1 Bft) 100,00 %
15.02.2017 07:44 -4,4 C 95 % 1036,4 hPa 0,0 l/m 1,3 km/h (1 Bft) S 186 0 min 0,000 mm 0,0 UV-I 37 W/m -5,1 C -4,4 C 1,6 km/h (1 Bft) 96,00 %
15.02.2017 07:46 -4,3 C 96 % 1036,4 hPa 0,0 l/m 1,3 km/h (1 Bft) S 186 0 min 0,000 mm 0,0 UV-I 40 W/m -4,8 C -4,3 C 1,6 km/h (1 Bft) 100,00 %
15.02.2017 07:48 -4,3 C 96 % 1036,4 hPa 0,0 l/m 1,7 km/h (1 Bft) S 186 0 min 0,000 mm 0,0 UV-I 45 W/m -4,8 C -4,3 C 3,2 km/h (1 Bft) 100,00 %
15.02.2017 07:50 -4,3 C 96 % 1036,4 hPa 0,0 l/m 2,5 km/h (1 Bft) S 186 0 min 0,000 mm 0,0 UV-I 47 W/m -4,8 C -4,3 C 3,2 km/h (1 Bft) 100,00 %
15.02.2017 07:52 -4,2 C 96 % 1036,5 hPa 0,0 l/m 2,0 km/h (1 Bft) S 186 0 min 0,000 mm 0,0 UV-I 51 W/m -4,7 C -4,2 C 3,2 km/h (1 Bft) 100,00 %
15.02.2017 07:54 -4,2 C 96 % 1036,4 hPa 0,0 l/m 2,9 km/h (1 Bft) S 186 0 min 0,000 mm 0,0 UV-I 55 W/m -4,7 C -4,2 C 3,2 km/h (1 Bft) 97,56 %
15.02.2017 07:56 -4,2 C 96 % 1036,4 hPa 0,0 l/m 2,3 km/h (1 Bft) S 186 0 min 0,000 mm 0,0 UV-I 59 W/m -4,7 C -4,2 C 3,2 km/h (1 Bft) 98,11 %
15.02.2017 07:58 -4,2 C 95 % 1036,4 hPa 0,0 l/m 2,4 km/h (1 Bft) S 186 0 min 0,000 mm 0,0 UV-I 63 W/m -4,9 C -4,2 C 3,2 km/h (1 Bft) 95,74 %
15.02.2017 08:00 -4,2 C 95 % 1036,4 hPa 0,0 l/m 3,3 km/h (1 Bft) S 186 2 min 0,000 mm 0,0 UV-I 67 W/m -4,9 C -4,2 C 4,8 km/h (1 Bft) 95,12 %
15.02.2017 08:02 -4,2 C 95 % 1036,4 hPa 0,0 l/m 2,0 km/h (1 Bft) S 186 0 min 0,000 mm 0,0 UV-I 66 W/m -4,9 C -4,2 C 3,2 km/h (1 Bft) 97,87 %
15.02.2017 08:04 -4,1 C 96 % 1036,4 hPa 0,0 l/m 2,3 km/h (1 Bft) S 186 0 min 0,000 mm 0,0 UV-I 68 W/m -4,6 C -4,1 C 3,2 km/h (1 Bft) 97,22 %
15.02.2017 08:06 -4,1 C 96 % 1036,4 hPa 0,0 l/m 1,3 km/h (1 Bft) S 186 0 min 0,000 mm 0,0 UV-I 75 W/m -4,6 C -4,1 C 3,2 km/h (1 Bft) 95,52 %
15.02.2017 08:08 -4,0 C 96 % 1036,4 hPa 0,0 l/m 0,7 km/h (0 Bft) S 186 2 min 0,000 mm 0,0 UV-I 78 W/m -4,5 C -4,0 C 1,6 km/h (1 Bft) 97,73 %
15.02.2017 08:10 -3,9 C 96 % 1036,4 hPa 0,0 l/m 1,7 km/h (1 Bft) S 186 2 min 0,000 mm 0,0 UV-I 81 W/m -4,4 C -3,9 C 3,2 km/h (1 Bft) 97,62 %
15.02.2017 08:12 -3,9 C 96 % 1036,5 hPa 0,0 l/m 2,4 km/h (1 Bft) S 186 2 min 0,000 mm 0,0 UV-I 86 W/m -4,4 C -3,9 C 4,8 km/h (1 Bft) 96,00 %
15.02.2017 08:14 -3,8 C 96 % 1036,5 hPa 0,0 l/m 3,1 km/h (1 Bft) S 186 2 min 0,000 mm 0,0 UV-I 87 W/m -4,3 C -3,8 C 4,8 km/h (1 Bft) 97,37 %
15.02.2017 08:16 -3,9 C 96 % 1036,5 hPa 0,0 l/m 4,2 km/h (1 Bft) S 190 0 min 0,000 mm 0,0 UV-I 87 W/m -4,4 C -3,9 C 6,4 km/h (2 Bft) 100,00 %
15.02.2017 08:18 -3,8 C 96 % 1036,5 hPa 0,0 l/m 3,9 km/h (1 Bft) S-SW 198 0 min 0,000 mm 0,0 UV-I 90 W/m -4,3 C -3,8 C 6,4 km/h (2 Bft) 100,00 %
15.02.2017 08:20 -3,9 C 96 % 1036,6 hPa 0,0 l/m 3,5 km/h (1 Bft) S-SW 200 0 min 0,000 mm 0,0 UV-I 91 W/m -4,4 C -3,9 C 6,4 km/h (2 Bft) 100,00 %
15.02.2017 08:22 -3,9 C 96 % 1036,6 hPa 0,0 l/m 3,3 km/h (1 Bft) S-SW 200 0 min 0,000 mm 0,0 UV-I 93 W/m -4,4 C -3,9 C 4,8 km/h (1 Bft) 100,00 %
15.02.2017 08:24 -3,9 C 96 % 1036,6 hPa 0,0 l/m 3,5 km/h (1 Bft) S-SW 200 0 min 0,000 mm 0,0 UV-I 95 W/m -4,4 C -3,9 C 6,4 km/h (2 Bft) 98,11 %
15.02.2017 08:26 -3,9 C 96 % 1036,7 hPa 0,0 l/m 3,0 km/h (1 Bft) S-SW 200 2 min 0,000 mm 0,0 UV-I 103 W/m -4,4 C -3,9 C 4,8 km/h (1 Bft) 100,00 %
15.02.2017 08:28 -3,9 C 96 % 1036,7 hPa 0,0 l/m 3,2 km/h (1 Bft) S-SW 200 2 min 0,000 mm 0,0 UV-I 109 W/m -4,4 C -3,9 C 4,8 km/h (1 Bft) 98,11 %
15.02.2017 08:30 -3,9 C 96 % 1036,6 hPa 0,0 l/m 1,4 km/h (1 Bft) S-SW 200 2 min 0,000 mm 0,0 UV-I 114 W/m -4,4 C -3,9 C 3,2 km/h (1 Bft) 100,00 %
15.02.2017 08:32 -3,9 C 96 % 1036,7 hPa 0,0 l/m 3,0 km/h (1 Bft) S-SW 200 2 min 0,000 mm 0,0 UV-I 111 W/m -4,4 C -3,9 C 4,8 km/h (1 Bft) 100,00 %
15.02.2017 08:34 -3,9 C 96 % 1036,7 hPa 0,0 l/m 1,6 km/h (1 Bft) S-SW 200 0 min 0,000 mm 0,0 UV-I 110 W/m -4,4 C -3,9 C 4,8 km/h (1 Bft) 100,00 %
15.02.2017 08:36 -4,0 C 96 % 1036,7 hPa 0,0 l/m 1,1 km/h (1 Bft) S-SW 200 0 min 0,000 mm 0,0 UV-I 109 W/m -4,5 C -4,0 C 3,2 km/h (1 Bft) 100,00 %
15.02.2017 08:38 -3,9 C 96 % 1036,7 hPa 0,0 l/m 0,8 km/h (0 Bft) S-SW 200 0 min 0,000 mm 0,0 UV-I 111 W/m -4,4 C -3,9 C 3,2 km/h (1 Bft) 100,00 %
15.02.2017 08:40 -3,9 C 96 % 1036,7 hPa 0,0 l/m 1,2 km/h (1 Bft) S-SW 200 0 min 0,000 mm 0,0 UV-I 107 W/m -4,4 C -3,9 C 3,2 km/h (1 Bft) 100,00 %
15.02.2017 08:42 -3,9 C 96 % 1036,7 hPa 0,0 l/m 1,1 km/h (1 Bft) S-SW 200 0 min 0,000 mm 0,0 UV-I 107 W/m -4,4 C -3,9 C 3,2 km/h (1 Bft) 100,00 %
15.02.2017 08:44 -3,9 C 96 % 1036,7 hPa 0,0 l/m 0,5 km/h (0 Bft) S-SW 200 0 min 0,000 mm 0,0 UV-I 111 W/m -4,4 C -3,9 C 1,6 km/h (1 Bft) 92,00 %
15.02.2017 08:46 -3,9 C 96 % 1036,8 hPa 0,0 l/m 0,7 km/h (0 Bft) S-SW 200 0 min 0,000 mm 0,0 UV-I 118 W/m -4,4 C -3,9 C 1,6 km/h (1 Bft) 100,00 %
15.02.2017 08:48 -3,9 C 96 % 1036,8 hPa 0,0 l/m 0,4 km/h (0 Bft) S-SW 200 0 min 0,000 mm 0,0 UV-I 120 W/m -4,4 C -3,9 C 1,6 km/h (1 Bft) 94,74 %
15.02.2017 08:50 -3,9 C 96 % 1036,8 hPa 0,0 l/m 2,5 km/h (1 Bft) S-SW 200 0 min 0,000 mm 0,0 UV-I 118 W/m -4,4 C -3,9 C 3,2 km/h (1 Bft) 100,00 %
15.02.2017 08:52 -3,8 C 96 % 1036,8 hPa 0,0 l/m 2,1 km/h (1 Bft) S-SW 200 0 min 0,000 mm 0,0 UV-I 118 W/m -4,3 C -3,8 C 4,8 km/h (1 Bft) 97,44 %
15.02.2017 08:54 -3,8 C 96 % 1036,8 hPa 0,0 l/m 2,3 km/h (1 Bft) S-SW 200 0 min 0,000 mm 0,0 UV-I 112 W/m -4,3 C -3,8 C 3,2 km/h (1 Bft) 94,34 %
15.02.2017 08:56 -3,7 C 96 % 1036,8 hPa 0,0 l/m 2,5 km/h (1 Bft) S-SW 200 0 min 0,000 mm 0,0 UV-I 109 W/m -4,2 C -3,7 C 3,2 km/h (1 Bft) 98,00 %
15.02.2017 08:58 -3,7 C 97 % 1036,9 hPa 0,0 l/m 3,0 km/h (1 Bft) S-SW 200 0 min 0,000 mm 0,0 UV-I 113 W/m -4,1 C -3,7 C 4,8 km/h (1 Bft) 98,00 %
15.02.2017 09:00 -3,7 C 97 % 1036,9 hPa 0,0 l/m 1,0 km/h (0 Bft) S-SW 200 0 min 0,025 mm 0,0 UV-I 112 W/m -4,1 C -3,7 C 1,6 km/h (1 Bft) 97,37 %
15.02.2017 09:02 -3,6 C 96 % 1036,9 hPa 0,0 l/m 0,7 km/h (0 Bft) S-SW 200 0 min 0,000 mm 0,0 UV-I 112 W/m -4,1 C -3,6 C 1,6 km/h (1 Bft) 97,83 %
15.02.2017 09:04 -3,5 C 97 % 1036,9 hPa 0,0 l/m 2,5 km/h (1 Bft) S-SW 200 0 min 0,000 mm 0,0 UV-I 119 W/m -3,9 C -3,5 C 4,8 km/h (1 Bft) 95,74 %
15.02.2017 09:06 -3,5 C 96 % 1036,9 hPa 0,0 l/m 1,8 km/h (1 Bft) S-SW 200 0 min 0,000 mm 0,0 UV-I 121 W/m -4,0 C -3,5 C 4,8 km/h (1 Bft) 94,34 %
15.02.2017 09:08 -3,4 C 96 % 1037,0 hPa 0,0 l/m 1,1 km/h (1 Bft) S-SW 200 0 min 0,000 mm 0,0 UV-I 126 W/m -3,9 C -3,4 C 3,2 km/h (1 Bft) 96,00 %
15.02.2017 09:10 -3,4 C 96 % 1036,9 hPa 0,0 l/m 1,3 km/h (1 Bft) S-SW 200 0 min 0,000 mm 0,0 UV-I 130 W/m -3,9 C -3,4 C 3,2 km/h (1 Bft) 97,56 %
15.02.2017 09:12 -3,3 C 97 % 1037,0 hPa 0,0 l/m 1,9 km/h (1 Bft) S-SW 200 0 min 0,000 mm 0,0 UV-I 135 W/m -3,7 C -3,3 C 4,8 km/h (1 Bft) 97,87 %
15.02.2017 09:14 -3,3 C 97 % 1037,0 hPa 0,0 l/m 2,4 km/h (1 Bft) S-SW 200 0 min 0,000 mm 0,0 UV-I 137 W/m -3,7 C -3,3 C 4,8 km/h (1 Bft) 97,56 %
15.02.2017 09:16 -3,3 C 97 % 1037,0 hPa 0,0 l/m 3,9 km/h (1 Bft) S-SW 200 0 min 0,000 mm 0,0 UV-I 141 W/m -3,7 C -3,3 C 4,8 km/h (1 Bft) 94,34 %
15.02.2017 09:18 -3,3 C 97 % 1037,0 hPa 0,0 l/m 3,0 km/h (1 Bft) S-SW 200 0 min 0,000 mm 0,0 UV-I 145 W/m -3,7 C -3,3 C 4,8 km/h (1 Bft) 96,00 %
15.02.2017 09:20 -3,2 C 97 % 1037,0 hPa 0,0 l/m 3,8 km/h (1 Bft) S-SW 200 0 min 0,000 mm 0,0 UV-I 146 W/m -3,6 C -3,2 C 6,4 km/h (2 Bft) 95,74 %
15.02.2017 09:22 -3,2 C 97 % 1037,0 hPa 0,0 l/m 4,1 km/h (1 Bft) S-SW 200 0 min 0,000 mm 0,0 UV-I 156 W/m -3,6 C -3,2 C 6,4 km/h (2 Bft) 95,45 %
15.02.2017 09:24 -3,1 C 97 % 1037,0 hPa 0,0 l/m 2,4 km/h (1 Bft) S-SW 200 0 min 0,000 mm 0,0 UV-I 168 W/m -3,5 C -3,1 C 4,8 km/h (1 Bft) 93,62 %
15.02.2017 09:26 -3,1 C 97 % 1037,0 hPa 0,0 l/m 2,2 km/h (1 Bft) S-SW 200 0 min 0,000 mm 0,0 UV-I 172 W/m -3,5 C -3,1 C 4,8 km/h (1 Bft) 92,68 %
15.02.2017 09:28 -3,1 C 97 % 1037,0 hPa 0,0 l/m 3,8 km/h (1 Bft) S-SW 200 0 min 0,000 mm 0,0 UV-I 171 W/m -3,5 C -3,1 C 4,8 km/h (1 Bft) 92,86 %
15.02.2017 09:30 -2,9 C 97 % 1037,0 hPa 0,0 l/m 3,6 km/h (1 Bft) SW 214 0 min 0,000 mm 0,0 UV-I 180 W/m -3,3 C -2,9 C 4,8 km/h (1 Bft) 100,00 %
15.02.2017 09:32 -2,9 C 97 % 1037,0 hPa 0,0 l/m 3,5 km/h (1 Bft) SW 217 0 min 0,000 mm 0,0 UV-I 169 W/m -3,3 C -2,9 C 6,4 km/h (2 Bft) 94,23 %
15.02.2017 09:34 -2,9 C 97 % 1037,0 hPa 0,0 l/m 3,7 km/h (1 Bft) SW 229 0 min 0,000 mm 0,0 UV-I 176 W/m -3,3 C -2,9 C 4,8 km/h (1 Bft) 97,44 %
15.02.2017 09:36 -3,0 C 97 % 1037,1 hPa 0,0 l/m 2,8 km/h (1 Bft) SW 229 0 min 0,000 mm 0,0 UV-I 175 W/m -3,4 C -3,0 C 3,2 km/h (1 Bft) 94,34 %
15.02.2017 09:38 -2,9 C 97 % 1037,0 hPa 0,0 l/m 2,3 km/h (1 Bft) SW 229 0 min 0,000 mm 0,0 UV-I 177 W/m -3,3 C -2,9 C 4,8 km/h (1 Bft) 97,87 %
15.02.2017 09:40 -2,9 C 97 % 1037,1 hPa 0,0 l/m 3,6 km/h (1 Bft) SW 226 0 min 0,000 mm 0,2 UV-I 187 W/m -3,3 C -2,9 C 4,8 km/h (1 Bft) 95,74 %
15.02.2017 09:42 -2,9 C 97 % 1037,0 hPa 0,0 l/m 1,9 km/h (1 Bft) SW 226 2 min 0,000 mm 0,5 UV-I 199 W/m -3,3 C -2,9 C 4,8 km/h (1 Bft) 97,87 %
15.02.2017 09:44 -2,8 C 97 % 1037,0 hPa 0,0 l/m 2,7 km/h (1 Bft) SW 226 2 min 0,000 mm 0,5 UV-I 206 W/m -3,2 C -2,8 C 3,2 km/h (1 Bft) 97,56 %
15.02.2017 09:46 -2,8 C 97 % 1037,0 hPa 0,0 l/m 1,4 km/h (1 Bft) SW 226 2 min 0,000 mm 0,5 UV-I 204 W/m -3,2 C -2,8 C 4,8 km/h (1 Bft) 97,37 %
15.02.2017 09:48 -2,7 C 97 % 1037,0 hPa 0,0 l/m 1,6 km/h (1 Bft) SW 226 2 min 0,000 mm 0,5 UV-I 219 W/m -3,1 C -2,7 C 4,8 km/h (1 Bft) 98,46 %
15.02.2017 09:50 -2,7 C 97 % 1037,0 hPa 0,0 l/m 1,7 km/h (1 Bft) SW 226 2 min 0,000 mm 0,5 UV-I 216 W/m -3,1 C -2,7 C 3,2 km/h (1 Bft) 97,87 %
15.02.2017 09:52 -2,7 C 97 % 1037,0 hPa 0,0 l/m 2,4 km/h (1 Bft) SW 226 2 min 0,000 mm 0,5 UV-I 224 W/m -3,1 C -2,7 C 4,8 km/h (1 Bft) 100,00 %
15.02.2017 09:54 -2,6 C 97 % 1037,0 hPa 0,0 l/m 2,5 km/h (1 Bft) SW 226 2 min 0,000 mm 0,5 UV-I 209 W/m -3,0 C -2,6 C 4,8 km/h (1 Bft) 100,00 %
15.02.2017 09:56 -2,7 C 97 % 1037,0 hPa 0,0 l/m 3,5 km/h (1 Bft) SW 226 2 min 0,000 mm 0,5 UV-I 214 W/m -3,1 C -2,7 C 4,8 km/h (1 Bft) 100,00 %
15.02.2017 09:58 -2,7 C 97 % 1037,1 hPa 0,0 l/m 3,4 km/h (1 Bft) SW 226 2 min 0,000 mm 0,5 UV-I 211 W/m -3,1 C -2,7 C 4,8 km/h (1 Bft) 100,00 %
15.02.2017 10:00 -2,7 C 97 % 1037,0 hPa 0,0 l/m 2,2 km/h (1 Bft) SW 226 2 min 0,051 mm 0,6 UV-I 217 W/m -3,1 C -2,7 C 4,8 km/h (1 Bft) 100,00 %
15.02.2017 10:02 -2,7 C 97 % 1037,1 hPa 0,0 l/m 2,8 km/h (1 Bft) SW 226 2 min 0,000 mm 0,6 UV-I 223 W/m -3,1 C -2,7 C 4,8 km/h (1 Bft) 100,00 %
15.02.2017 10:04 -2,7 C 97 % 1037,1 hPa 0,0 l/m 2,9 km/h (1 Bft) SW 225 2 min 0,000 mm 0,6 UV-I 217 W/m -3,1 C -2,7 C 4,8 km/h (1 Bft) 100,00 %
15.02.2017 10:06 -2,6 C 97 % 1037,1 hPa 0,0 l/m 2,1 km/h (1 Bft) SW 225 2 min 0,000 mm 0,6 UV-I 225 W/m -3,0 C -2,6 C 4,8 km/h (1 Bft) 100,00 %
15.02.2017 10:08 -2,6 C 97 % 1037,1 hPa 0,0 l/m 3,0 km/h (1 Bft) SW 225 2 min 0,000 mm 0,6 UV-I 243 W/m -3,0 C -2,6 C 4,8 km/h (1 Bft) 100,00 %
15.02.2017 10:10 -2,5 C 97 % 1037,1 hPa 0,0 l/m 2,7 km/h (1 Bft) SW 225 2 min 0,000 mm 0,6 UV-I 252 W/m -2,9 C -2,5 C 4,8 km/h (1 Bft) 100,00 %
15.02.2017 10:12 -2,4 C 97 % 1037,1 hPa 0,0 l/m 2,9 km/h (1 Bft) SW 225 2 min 0,000 mm 0,7 UV-I 265 W/m -2,8 C -2,4 C 4,8 km/h (1 Bft) 100,00 %
15.02.2017 10:14 -2,3 C 97 % 1037,1 hPa 0,0 l/m 1,9 km/h (1 Bft) SW 225 2 min 0,000 mm 0,7 UV-I 239 W/m -2,7 C -2,3 C 3,2 km/h (1 Bft) 100,00 %
15.02.2017 10:16 -2,3 C 97 % 1037,1 hPa 0,0 l/m 1,9 km/h (1 Bft) SW 225 2 min 0,000 mm 0,7 UV-I 241 W/m -2,7 C -2,3 C 4,8 km/h (1 Bft) 98,11 %
15.02.2017 10:18 -2,3 C 97 % 1037,1 hPa 0,0 l/m 1,5 km/h (1 Bft) SW 225 2 min 0,000 mm 0,7 UV-I 255 W/m -2,7 C -2,3 C 4,8 km/h (1 Bft) 100,00 %
15.02.2017 10:20 -2,3 C 97 % 1037,1 hPa 0,0 l/m 0,4 km/h (0 Bft) SW 226 2 min 0,000 mm 0,7 UV-I 265 W/m -2,7 C -2,3 C 1,6 km/h (1 Bft) 100,00 %
15.02.2017 10:22 -2,2 C 97 % 1037,1 hPa 0,0 l/m 1,5 km/h (1 Bft) SW 225 2 min 0,000 mm 0,7 UV-I 274 W/m -2,6 C -2,2 C 3,2 km/h (1 Bft) 100,00 %
15.02.2017 10:24 -2,2 C 97 % 1037,1 hPa 0,0 l/m 0,2 km/h (0 Bft) SW 225 2 min 0,000 mm 0,7 UV-I 261 W/m -2,6 C -2,2 C 1,6 km/h (1 Bft) 97,87 %
15.02.2017 10:26 -2,1 C 97 % 1037,1 hPa 0,0 l/m 1,2 km/h (1 Bft) SW 225 2 min 0,000 mm 0,8 UV-I 264 W/m -2,5 C -2,1 C 3,2 km/h (1 Bft) 100,00 %
15.02.2017 10:28 -2,1 C 97 % 1037,2 hPa 0,0 l/m 1,5 km/h (1 Bft) SW 225 2 min 0,000 mm 0,8 UV-I 271 W/m -2,5 C -2,1 C 3,2 km/h (1 Bft) 100,00 %
15.02.2017 10:30 -2,2 C 97 % 1037,1 hPa 0,0 l/m 1,2 km/h (1 Bft) SW 225 2 min 0,000 mm 0,8 UV-I 254 W/m -2,6 C -2,2 C 3,2 km/h (1 Bft) 98,11 %
15.02.2017 10:32 -2,2 C 97 % 1037,1 hPa 0,0 l/m 1,4 km/h (1 Bft) SW 226 2 min 0,000 mm 0,9 UV-I 315 W/m -2,6 C -2,2 C 3,2 km/h (1 Bft) 95,12 %
15.02.2017 10:34 -2,2 C 97 % 1037,1 hPa 0,0 l/m 1,5 km/h (1 Bft) SW 225 2 min 0,000 mm 0,9 UV-I 275 W/m -2,6 C -2,2 C 3,2 km/h (1 Bft) 98,00 %
15.02.2017 10:36 -1,9 C 97 % 1037,1 hPa 0,0 l/m 1,5 km/h (1 Bft) SW 225 2 min 0,000 mm 0,9 UV-I 323 W/m -2,3 C -1,9 C 3,2 km/h (1 Bft) 100,00 %
15.02.2017 10:38 -1,8 C 97 % 1037,1 hPa 0,0 l/m 1,2 km/h (1 Bft) SW 226 2 min 0,000 mm 0,9 UV-I 327 W/m -2,2 C -1,8 C 3,2 km/h (1 Bft) 100,00 %
15.02.2017 10:40 -1,7 C 97 % 1037,1 hPa 0,0 l/m 1,4 km/h (1 Bft) SW 226 2 min 0,000 mm 0,9 UV-I 342 W/m -2,1 C -1,7 C 3,2 km/h (1 Bft) 100,00 %
15.02.2017 10:42 -1,6 C 97 % 1037,2 hPa 0,0 l/m 1,8 km/h (1 Bft) SW 226 2 min 0,000 mm 1,0 UV-I 323 W/m -2,0 C -1,6 C 3,2 km/h (1 Bft) 100,00 %
15.02.2017 10:44 -1,5 C 98 % 1037,1 hPa 0,0 l/m 1,4 km/h (1 Bft) SW 225 2 min 0,000 mm 1,0 UV-I 406 W/m -1,8 C -1,5 C 3,2 km/h (1 Bft) 100,00 %
15.02.2017 10:46 -1,4 C 97 % 1037,2 hPa 0,0 l/m 2,3 km/h (1 Bft) SW 226 2 min 0,000 mm 1,0 UV-I 360 W/m -1,8 C -1,4 C 3,2 km/h (1 Bft) 94,00 %
15.02.2017 10:48 -1,3 C 97 % 1037,2 hPa 0,0 l/m 2,5 km/h (1 Bft) SW 225 2 min 0,000 mm 1,0 UV-I 361 W/m -1,7 C -1,3 C 4,8 km/h (1 Bft) 96,00 %
15.02.2017 10:50 -1,3 C 98 % 1037,3 hPa 0,0 l/m 2,7 km/h (1 Bft) SW 226 2 min 0,000 mm 1,0 UV-I 364 W/m -1,6 C -1,3 C 4,8 km/h (1 Bft) 91,49 %
15.02.2017 10:52 -1,2 C 98 % 1037,3 hPa 0,0 l/m 3,2 km/h (1 Bft) SW 226 2 min 0,000 mm 1,1 UV-I 410 W/m -1,5 C -1,2 C 4,8 km/h (1 Bft) 98,04 %
15.02.2017 10:54 -1,2 C 97 % 1037,3 hPa 0,0 l/m 2,7 km/h (1 Bft) SW 226 2 min 0,000 mm 1,1 UV-I 403 W/m -1,6 C -1,2 C 4,8 km/h (1 Bft) 100,00 %
15.02.2017 10:56 -1,0 C 97 % 1037,3 hPa 0,0 l/m 3,0 km/h (1 Bft) SW 226 2 min 0,000 mm 1,1 UV-I 396 W/m -1,4 C -1,0 C 4,8 km/h (1 Bft) 92,31 %
15.02.2017 10:58 -1,0 C 97 % 1037,3 hPa 0,0 l/m 1,8 km/h (1 Bft) SW 226 2 min 0,000 mm 1,1 UV-I 416 W/m -1,4 C -1,0 C 3,2 km/h (1 Bft) 96,00 %
15.02.2017 11:00 -0,9 C 97 % 1037,2 hPa 0,0 l/m 3,0 km/h (1 Bft) SW 226 2 min 0,102 mm 1,1 UV-I 422 W/m -1,3 C -0,9 C 4,8 km/h (1 Bft) 92,68 %
15.02.2017 11:02 -0,9 C 97 % 1037,2 hPa 0,0 l/m 1,9 km/h (1 Bft) SW 226 2 min 0,000 mm 1,1 UV-I 423 W/m -1,3 C -0,9 C 3,2 km/h (1 Bft) 98,00 %
15.02.2017 11:04 -0,7 C 97 % 1037,2 hPa 0,0 l/m 3,3 km/h (1 Bft) SW 226 2 min 0,000 mm 1,2 UV-I 428 W/m -1,1 C -0,7 C 4,8 km/h (1 Bft) 97,37 %
15.02.2017 11:06 -0,7 C 97 % 1037,1 hPa 0,0 l/m 3,0 km/h (1 Bft) SW 226 2 min 0,000 mm 1,2 UV-I 435 W/m -1,1 C -0,7 C 4,8 km/h (1 Bft) 94,00 %
15.02.2017 11:08 -0,5 C 97 % 1037,1 hPa 0,0 l/m 1,5 km/h (1 Bft) SW 226 2 min 0,000 mm 1,2 UV-I 441 W/m -0,9 C -0,5 C 3,2 km/h (1 Bft) 96,00 %
15.02.2017 11:10 -0,4 C 97 % 1037,1 hPa 0,0 l/m 2,0 km/h (1 Bft) SW 226 2 min 0,000 mm 1,2 UV-I 445 W/m -0,8 C -0,4 C 3,2 km/h (1 Bft) 95,12 %
15.02.2017 11:12 -0,3 C 97 % 1037,0 hPa 0,0 l/m 0,2 km/h (0 Bft) SW 226 2 min 0,000 mm 1,2 UV-I 449 W/m -0,7 C -0,3 C 1,6 km/h (1 Bft) 98,11 %
15.02.2017 11:14 -0,3 C 97 % 1037,0 hPa 0,0 l/m 0,1 km/h (0 Bft) SW 226 2 min 0,000 mm 1,2 UV-I 454 W/m -0,7 C -0,3 C 1,6 km/h (1 Bft) 98,00 %
15.02.2017 11:16 -0,3 C 97 % 1037,0 hPa 0,0 l/m 0,2 km/h (0 Bft) SW 226 2 min 0,000 mm 1,2 UV-I 461 W/m -0,7 C -0,3 C 1,6 km/h (1 Bft) 94,29 %
15.02.2017 11:18 -0,2 C 96 % 1037,0 hPa 0,0 l/m 0,2 km/h (0 Bft) SW 226 2 min 0,000 mm 1,3 UV-I 467 W/m -0,8 C -0,2 C 1,6 km/h (1 Bft) 100,00 %
15.02.2017 11:20 -0,1 C 96 % 1037,0 hPa 0,0 l/m 0,6 km/h (0 Bft) SW 226 2 min 0,000 mm 1,3 UV-I 470 W/m -0,7 C -0,1 C 1,6 km/h (1 Bft) 97,87 %
15.02.2017 11:22 0,3 C 96 % 1037,0 hPa 0,0 l/m 0,9 km/h (0 Bft) SW 225 2 min 0,000 mm 1,3 UV-I 475 W/m -0,3 C 0,3 C 3,2 km/h (1 Bft) 100,00 %
15.02.2017 11:24 0,4 C 95 % 1036,9 hPa 0,0 l/m 0,8 km/h (0 Bft) SW 225 2 min 0,000 mm 1,3 UV-I 474 W/m -0,3 C 0,4 C 3,2 km/h (1 Bft) 100,00 %
15.02.2017 11:26 0,4 C 94 % 1036,9 hPa 0,0 l/m 1,6 km/h (1 Bft) SW 226 2 min 0,000 mm 1,3 UV-I 478 W/m -0,5 C 0,4 C 4,8 km/h (1 Bft) 100,00 %
15.02.2017 11:28 0,4 C 94 % 1036,9 hPa 0,0 l/m 0,3 km/h (0 Bft) SW 225 2 min 0,000 mm 1,3 UV-I 478 W/m -0,5 C 0,4 C 1,6 km/h (1 Bft) 96,23 %
15.02.2017 11:30 0,6 C 93 % 1036,9 hPa 0,0 l/m 0,4 km/h (0 Bft) SW 225 2 min 0,000 mm 1,3 UV-I 481 W/m -0,4 C 0,6 C 3,2 km/h (1 Bft) 95,24 %
15.02.2017 11:32 0,4 C 92 % 1036,8 hPa 0,0 l/m 1,5 km/h (1 Bft) SW 225 2 min 0,000 mm 1,3 UV-I 481 W/m -0,7 C 0,4 C 4,8 km/h (1 Bft) 100,00 %
15.02.2017 11:34 0,6 C 93 % 1036,8 hPa 0,0 l/m 3,3 km/h (1 Bft) SW 225 2 min 0,000 mm 1,3 UV-I 483 W/m -0,4 C 0,6 C 6,4 km/h (2 Bft) 96,00 %
15.02.2017 11:36 0,7 C 92 % 1036,8 hPa 0,0 l/m 2,3 km/h (1 Bft) SW 225 2 min 0,000 mm 1,3 UV-I 481 W/m -0,4 C 0,7 C 4,8 km/h (1 Bft) 94,00 %
15.02.2017 11:38 0,9 C 92 % 1036,8 hPa 0,0 l/m 2,4 km/h (1 Bft) SW 225 2 min 0,000 mm 1,3 UV-I 484 W/m -0,2 C 0,9 C 4,8 km/h (1 Bft) 97,87 %
15.02.2017 11:40 1,1 C 92 % 1036,8 hPa 0,0 l/m 3,4 km/h (1 Bft) SW 225 2 min 0,000 mm 1,3 UV-I 487 W/m -0,1 C 1,1 C 4,8 km/h (1 Bft) 97,87 %
15.02.2017 11:42 1,1 C 91 % 1036,8 hPa 0,0 l/m 2,7 km/h (1 Bft) SW 226 2 min 0,000 mm 1,3 UV-I 489 W/m -0,2 C 1,1 C 4,8 km/h (1 Bft) 92,11 %
15.02.2017 11:44 1,2 C 91 % 1036,8 hPa 0,0 l/m 2,1 km/h (1 Bft) SW 227 2 min 0,000 mm 1,3 UV-I 487 W/m -0,1 C 1,2 C 3,2 km/h (1 Bft) 98,11 %
15.02.2017 11:46 1,2 C 90 % 1036,8 hPa 0,0 l/m 4,1 km/h (1 Bft) SW 224 2 min 0,000 mm 1,3 UV-I 488 W/m -0,3 C 1,2 C 6,4 km/h (2 Bft) 97,92 %
15.02.2017 11:48 1,2 C 90 % 1036,8 hPa 0,0 l/m 1,3 km/h (1 Bft) SW 224 2 min 0,000 mm 1,3 UV-I 489 W/m -0,3 C 1,2 C 4,8 km/h (1 Bft) 95,74 %
15.02.2017 11:50 1,3 C 91 % 1036,7 hPa 0,0 l/m 1,8 km/h (1 Bft) SW 224 2 min 0,000 mm 1,3 UV-I 491 W/m -0,0 C 1,3 C 3,2 km/h (1 Bft) 97,14 %
15.02.2017 11:52 1,3 C 90 % 1036,7 hPa 0,0 l/m 0,4 km/h (0 Bft) SW 224 2 min 0,000 mm 1,4 UV-I 493 W/m -0,2 C 1,3 C 1,6 km/h (1 Bft) 98,11 %
15.02.2017 11:54 1,4 C 89 % 1036,7 hPa 0,0 l/m 0,3 km/h (0 Bft) SW 224 2 min 0,000 mm 1,4 UV-I 493 W/m -0,2 C 1,4 C 3,2 km/h (1 Bft) 98,00 %
15.02.2017 11:56 1,4 C 89 % 1036,7 hPa 0,0 l/m 0,1 km/h (0 Bft) SW 224 2 min 0,000 mm 1,4 UV-I 495 W/m -0,2 C 1,4 C 1,6 km/h (1 Bft) 97,37 %
15.02.2017 11:58 1,7 C 89 % 1036,6 hPa 0,0 l/m 1,3 km/h (1 Bft) SW 224 2 min 0,000 mm 1,4 UV-I 495 W/m 0,1 C 1,7 C 1,6 km/h (1 Bft) 100,00 %
15.02.2017 12:00 1,7 C 88 % 1036,6 hPa 0,0 l/m 1,0 km/h (0 Bft) SW 224 2 min 0,152 mm 1,4 UV-I 496 W/m -0,1 C 1,7 C 1,6 km/h (1 Bft) 91,67 %
15.02.2017 12:02 1,8 C 88 % 1036,6 hPa 0,0 l/m 1,4 km/h (1 Bft) SW 224 2 min 0,000 mm 1,4 UV-I 497 W/m 0,0 C 1,8 C 3,2 km/h (1 Bft) 96,88 %
15.02.2017 12:04 1,8 C 88 % 1036,6 hPa 0,0 l/m 0,8 km/h (0 Bft) SW 224 2 min 0,000 mm 1,4 UV-I 497 W/m 0,0 C 1,8 C 1,6 km/h (1 Bft) 94,34 %
15.02.2017 12:06 1,9 C 88 % 1036,6 hPa 0,0 l/m 0,7 km/h (0 Bft) SW 224 2 min 0,000 mm 1,4 UV-I 498 W/m 0,1 C 1,9 C 3,2 km/h (1 Bft) 98,00 %
15.02.2017 12:08 2,1 C 87 % 1036,5 hPa 0,0 l/m 1,5 km/h (1 Bft) SW 224 2 min 0,000 mm 1,4 UV-I 499 W/m 0,2 C 2,1 C 4,8 km/h (1 Bft) 91,67 %
15.02.2017 12:10 2,1 C 87 % 1036,5 hPa 0,0 l/m 0,4 km/h (0 Bft) SW 224 2 min 0,000 mm 1,4 UV-I 498 W/m 0,2 C 2,1 C 1,6 km/h (1 Bft) 97,01 %
15.02.2017 12:12 2,2 C 87 % 1036,5 hPa 0,0 l/m 0,7 km/h (0 Bft) SW 224 2 min 0,000 mm 1,4 UV-I 497 W/m 0,3 C 2,2 C 3,2 km/h (1 Bft) 97,62 %
15.02.2017 12:14 2,3 C 87 % 1036,5 hPa 0,0 l/m 0,1 km/h (0 Bft) SW 224 2 min 0,000 mm 1,4 UV-I 497 W/m 0,4 C 2,3 C 1,6 km/h (1 Bft) 96,00 %
15.02.2017 12:16 2,6 C 85 % 1036,5 hPa 0,0 l/m 0,0 km/h (0 Bft) SW 224 2 min 0,000 mm 1,4 UV-I 497 W/m 0,3 C 2,6 C 1,6 km/h (1 Bft) 94,00 %
15.02.2017 12:18 2,7 C 87 % 1036,4 hPa 0,0 l/m 1,0 km/h (0 Bft) SW 225 2 min 0,000 mm 1,4 UV-I 497 W/m 0,8 C 2,7 C 3,2 km/h (1 Bft) 95,45 %
15.02.2017 12:20 2,7 C 85 % 1036,4 hPa 0,0 l/m 0,9 km/h (0 Bft) SW 225 2 min 0,000 mm 1,4 UV-I 498 W/m 0,4 C 2,7 C 1,6 km/h (1 Bft) 96,00 %
15.02.2017 12:22 2,6 C 85 % 1036,3 hPa 0,0 l/m 0,3 km/h (0 Bft) SW 224 2 min 0,000 mm 1,4 UV-I 496 W/m 0,3 C 2,6 C 1,6 km/h (1 Bft) 92,68 %
15.02.2017 12:24 2,6 C 84 % 1036,3 hPa 0,0 l/m 0,6 km/h (0 Bft) SW 224 2 min 0,000 mm 1,4 UV-I 497 W/m 0,2 C 2,6 C 1,6 km/h (1 Bft) 96,23 %
15.02.2017 12:26 2,7 C 84 % 1036,3 hPa 0,0 l/m 0,4 km/h (0 Bft) SW 225 2 min 0,000 mm 1,4 UV-I 498 W/m 0,3 C 2,7 C 1,6 km/h (1 Bft) 100,00 %
15.02.2017 12:28 2,8 C 84 % 1036,3 hPa 0,0 l/m 1,3 km/h (1 Bft) SW 224 2 min 0,000 mm 1,4 UV-I 497 W/m 0,4 C 2,8 C 3,2 km/h (1 Bft) 97,73 %
15.02.2017 12:30 2,9 C 84 % 1036,3 hPa 0,0 l/m 0,8 km/h (0 Bft) SW 224 2 min 0,000 mm 1,4 UV-I 496 W/m 0,5 C 2,9 C 1,6 km/h (1 Bft) 96,00 %
15.02.2017 12:32 3,0 C 84 % 1036,2 hPa 0,0 l/m 1,5 km/h (1 Bft) SW 224 2 min 0,000 mm 1,4 UV-I 496 W/m 0,6 C 3,0 C 4,8 km/h (1 Bft) 94,00 %
15.02.2017 12:34 3,0 C 84 % 1036,3 hPa 0,0 l/m 0,3 km/h (0 Bft) SW 224 2 min 0,000 mm 1,4 UV-I 496 W/m 0,6 C 3,0 C 1,6 km/h (1 Bft) 92,11 %
15.02.2017 12:36 3,1 C 84 % 1036,2 hPa 0,0 l/m 0,3 km/h (0 Bft) SW 225 2 min 0,000 mm 1,4 UV-I 496 W/m 0,7 C 3,1 C 1,6 km/h (1 Bft) 94,34 %
15.02.2017 12:38 3,1 C 83 % 1036,2 hPa 0,0 l/m 1,1 km/h (1 Bft) SW 225 2 min 0,000 mm 1,4 UV-I 495 W/m 0,5 C 3,1 C 3,2 km/h (1 Bft) 98,00 %
15.02.2017 12:40 3,2 C 83 % 1036,2 hPa 0,0 l/m 0,6 km/h (0 Bft) SW 225 2 min 0,000 mm 1,4 UV-I 491 W/m 0,6 C 3,2 C 3,2 km/h (1 Bft) 97,56 %
15.02.2017 12:42 3,2 C 82 % 1036,2 hPa 0,0 l/m 2,1 km/h (1 Bft) SW 225 2 min 0,000 mm 1,4 UV-I 489 W/m 0,4 C 3,2 C 4,8 km/h (1 Bft) 98,00 %
15.02.2017 12:44 3,2 C 83 % 1036,1 hPa 0,0 l/m 1,1 km/h (1 Bft) SW 226 2 min 0,000 mm 1,4 UV-I 489 W/m 0,6 C 3,2 C 3,2 km/h (1 Bft) 97,87 %
15.02.2017 12:46 3,2 C 82 % 1036,1 hPa 0,0 l/m 1,6 km/h (1 Bft) SW 227 2 min 0,000 mm 1,4 UV-I 488 W/m 0,4 C 3,2 C 3,2 km/h (1 Bft) 97,50 %
15.02.2017 12:48 3,2 C 82 % 1036,0 hPa 0,0 l/m 0,5 km/h (0 Bft) SW 227 2 min 0,000 mm 1,4 UV-I 490 W/m 0,4 C 3,2 C 1,6 km/h (1 Bft) 97,87 %
15.02.2017 12:50 3,3 C 83 % 1036,0 hPa 0,0 l/m 0,7 km/h (0 Bft) SW 227 2 min 0,000 mm 1,4 UV-I 486 W/m 0,7 C 3,3 C 1,6 km/h (1 Bft) 93,62 %
15.02.2017 12:52 3,3 C 83 % 1036,0 hPa 0,0 l/m 0,5 km/h (0 Bft) SW 227 2 min 0,000 mm 1,4 UV-I 483 W/m 0,7 C 3,3 C 3,2 km/h (1 Bft) 95,74 %
15.02.2017 12:54 3,5 C 83 % 1036,0 hPa 0,0 l/m 1,5 km/h (1 Bft) SW 228 2 min 0,000 mm 1,4 UV-I 484 W/m 0,9 C 3,5 C 3,2 km/h (1 Bft) 94,64 %
15.02.2017 12:56 3,4 C 82 % 1035,9 hPa 0,0 l/m 1,6 km/h (1 Bft) SW 228 2 min 0,000 mm 1,4 UV-I 487 W/m 0,6 C 3,4 C 4,8 km/h (1 Bft) 97,14 %
15.02.2017 12:58 3,5 C 82 % 1035,9 hPa 0,0 l/m 2,0 km/h (1 Bft) SW 228 2 min 0,000 mm 1,3 UV-I 485 W/m 0,7 C 3,5 C 4,8 km/h (1 Bft) 100,00 %
15.02.2017 13:00 3,5 C 81 % 1036,0 hPa 0,0 l/m 2,0 km/h (1 Bft) SW 228 2 min 0,178 mm 1,3 UV-I 481 W/m 0,6 C 3,5 C 4,8 km/h (1 Bft) 96,77 %
15.02.2017 13:02 3,6 C 82 % 1035,9 hPa 0,0 l/m 1,0 km/h (0 Bft) SW 228 2 min 0,000 mm 1,3 UV-I 481 W/m 0,8 C 3,6 C 3,2 km/h (1 Bft) 95,74 %
15.02.2017 13:04 3,6 C 82 % 1035,9 hPa 0,0 l/m 1,0 km/h (0 Bft) SW 228 2 min 0,000 mm 1,3 UV-I 479 W/m 0,8 C 3,6 C 3,2 km/h (1 Bft) 100,00 %
15.02.2017 13:06 3,6 C 82 % 1035,9 hPa 0,0 l/m 0,3 km/h (0 Bft) SW 228 2 min 0,000 mm 1,3 UV-I 478 W/m 0,8 C 3,6 C 1,6 km/h (1 Bft) 94,74 %
15.02.2017 13:08 3,6 C 81 % 1035,9 hPa 0,0 l/m 0,2 km/h (0 Bft) SW 228 2 min 0,000 mm 1,3 UV-I 476 W/m 0,7 C 3,6 C 1,6 km/h (1 Bft) 100,00 %
15.02.2017 13:10 3,6 C 82 % 1035,9 hPa 0,0 l/m 0,3 km/h (0 Bft) SW 228 2 min 0,000 mm 1,3 UV-I 475 W/m 0,8 C 3,6 C 1,6 km/h (1 Bft) 100,00 %
15.02.2017 13:12 3,7 C 82 % 1035,9 hPa 0,0 l/m 0,9 km/h (0 Bft) SW 228 2 min 0,000 mm 1,3 UV-I 473 W/m 0,9 C 3,7 C 3,2 km/h (1 Bft) 98,11 %
15.02.2017 13:14 3,8 C 82 % 1035,9 hPa 0,0 l/m 1,1 km/h (1 Bft) SW 228 2 min 0,000 mm 1,3 UV-I 471 W/m 1,0 C 3,8 C 3,2 km/h (1 Bft) 100,00 %
15.02.2017 13:16 3,8 C 80 % 1035,9 hPa 0,0 l/m 1,0 km/h (0 Bft) SW 228 2 min 0,000 mm 1,3 UV-I 468 W/m 0,7 C 3,8 C 3,2 km/h (1 Bft) 100,00 %
15.02.2017 13:18 3,8 C 81 % 1035,9 hPa 0,0 l/m 1,5 km/h (1 Bft) SW 229 2 min 0,000 mm 1,3 UV-I 467 W/m 0,8 C 3,8 C 3,2 km/h (1 Bft) 97,87 %
15.02.2017 13:20 3,9 C 81 % 1035,8 hPa 0,0 l/m 0,2 km/h (0 Bft) SW 229 2 min 0,000 mm 1,3 UV-I 466 W/m 0,9 C 3,9 C 1,6 km/h (1 Bft) 95,12 %
15.02.2017 13:22 4,1 C 81 % 1035,8 hPa 0,0 l/m 0,4 km/h (0 Bft) SW 229 2 min 0,000 mm 1,3 UV-I 465 W/m 1,1 C 4,1 C 1,6 km/h (1 Bft) 100,00 %
15.02.2017 13:24 4,1 C 80 % 1035,8 hPa 0,0 l/m 0,9 km/h (0 Bft) SW 229 2 min 0,000 mm 1,3 UV-I 465 W/m 1,0 C 4,1 C 3,2 km/h (1 Bft) 100,00 %
15.02.2017 13:26 4,1 C 81 % 1035,7 hPa 0,0 l/m 1,4 km/h (1 Bft) SW 229 2 min 0,000 mm 1,2 UV-I 461 W/m 1,1 C 4,1 C 3,2 km/h (1 Bft) 98,00 %
15.02.2017 13:28 4,1 C 79 % 1035,7 hPa 0,0 l/m 1,0 km/h (0 Bft) SW 229 2 min 0,000 mm 1,2 UV-I 461 W/m 0,8 C 4,1 C 3,2 km/h (1 Bft) 100,00 %
15.02.2017 13:30 4,1 C 80 % 1035,7 hPa 0,0 l/m 2,2 km/h (1 Bft) SW 229 2 min 0,000 mm 1,2 UV-I 457 W/m 1,0 C 4,1 C 4,8 km/h (1 Bft) 90,00 %
15.02.2017 13:32 4,1 C 79 % 1035,7 hPa 0,0 l/m 1,9 km/h (1 Bft) SW 229 2 min 0,000 mm 1,2 UV-I 456 W/m 0,8 C 4,1 C 4,8 km/h (1 Bft) 95,74 %
15.02.2017 13:34 4,0 C 79 % 1035,6 hPa 0,0 l/m 1,5 km/h (1 Bft) SW 229 2 min 0,000 mm 1,2 UV-I 455 W/m 0,7 C 4,0 C 3,2 km/h (1 Bft) 95,74 %
15.02.2017 13:36 4,2 C 81 % 1035,6 hPa 0,0 l/m 0,9 km/h (0 Bft) SW 229 2 min 0,000 mm 1,2 UV-I 454 W/m 1,2 C 4,2 C 1,6 km/h (1 Bft) 94,00 %
15.02.2017 13:38 4,3 C 80 % 1035,6 hPa 0,0 l/m 0,3 km/h (0 Bft) SW 229 2 min 0,000 mm 1,2 UV-I 451 W/m 1,2 C 4,3 C 1,6 km/h (1 Bft) 96,00 %
15.02.2017 13:40 4,3 C 80 % 1035,5 hPa 0,0 l/m 1,2 km/h (1 Bft) SW 229 2 min 0,000 mm 1,2 UV-I 445 W/m 1,2 C 4,3 C 3,2 km/h (1 Bft) 97,56 %
15.02.2017 13:42 4,4 C 79 % 1035,5 hPa 0,0 l/m 0,7 km/h (0 Bft) SW 230 2 min 0,000 mm 1,1 UV-I 442 W/m 1,1 C 4,4 C 4,8 km/h (1 Bft) 96,00 %
15.02.2017 13:44 4,4 C 79 % 1035,5 hPa 0,0 l/m 1,3 km/h (1 Bft) SW 230 2 min 0,000 mm 1,1 UV-I 440 W/m 1,1 C 4,4 C 3,2 km/h (1 Bft) 88,00 %
15.02.2017 13:46 4,3 C 79 % 1035,5 hPa 0,0 l/m 1,3 km/h (1 Bft) SW 230 2 min 0,000 mm 1,1 UV-I 438 W/m 1,0 C 4,3 C 3,2 km/h (1 Bft) 98,00 %
15.02.2017 13:48 4,4 C 80 % 1035,5 hPa 0,0 l/m 1,9 km/h (1 Bft) SW 231 2 min 0,000 mm 1,1 UV-I 435 W/m 1,3 C 4,4 C 3,2 km/h (1 Bft) 92,11 %
15.02.2017 13:50 4,4 C 80 % 1035,5 hPa 0,0 l/m 1,8 km/h (1 Bft) SW 231 2 min 0,000 mm 1,1 UV-I 433 W/m 1,3 C 4,4 C 3,2 km/h (1 Bft) 91,49 %
15.02.2017 13:52 4,4 C 79 % 1035,5 hPa 0,0 l/m 0,1 km/h (0 Bft) SW 231 2 min 0,000 mm 1,1 UV-I 432 W/m 1,1 C 4,4 C 1,6 km/h (1 Bft) 95,74 %
15.02.2017 13:54 4,6 C 80 % 1035,5 hPa 0,0 l/m 0,0 km/h (0 Bft) SW 231 2 min 0,000 mm 1,1 UV-I 430 W/m 1,5 C 4,6 C 0,0 km/h (0 Bft) 100,00 %
15.02.2017 13:56 4,7 C 81 % 1035,5 hPa 0,0 l/m 0,5 km/h (0 Bft) SW 231 2 min 0,000 mm 1,1 UV-I 426 W/m 1,7 C 4,7 C 3,2 km/h (1 Bft) 92,00 %
15.02.2017 13:58 4,7 C 79 % 1035,5 hPa 0,0 l/m 2,2 km/h (1 Bft) SW 233 2 min 0,000 mm 1,1 UV-I 422 W/m 1,4 C 4,7 C 4,8 km/h (1 Bft) 97,37 %
15.02.2017 14:00 4,8 C 79 % 1035,4 hPa 0,0 l/m 2,4 km/h (1 Bft) SW 234 2 min 0,178 mm 1,0 UV-I 419 W/m 1,5 C 4,8 C 3,2 km/h (1 Bft) 97,87 %
15.02.2017 14:02 4,8 C 79 % 1035,4 hPa 0,0 l/m 0,3 km/h (0 Bft) SW 234 2 min 0,000 mm 1,0 UV-I 415 W/m 1,5 C 4,8 C 3,2 km/h (1 Bft) 97,87 %
15.02.2017 14:04 4,8 C 78 % 1035,4 hPa 0,0 l/m 1,9 km/h (1 Bft) SW 235 2 min 0,000 mm 1,0 UV-I 414 W/m 1,3 C 4,8 C 4,8 km/h (1 Bft) 94,34 %
15.02.2017 14:06 4,8 C 78 % 1035,4 hPa 0,0 l/m 3,5 km/h (1 Bft) W-SW 237 2 min 0,000 mm 1,0 UV-I 412 W/m 1,3 C 4,8 C 4,8 km/h (1 Bft) 96,00 %
15.02.2017 14:08 5,1 C 78 % 1035,3 hPa 0,0 l/m 4,1 km/h (1 Bft) SW 236 2 min 0,000 mm 1,0 UV-I 410 W/m 1,6 C 5,1 C 6,4 km/h (2 Bft) 100,00 %
15.02.2017 14:10 5,0 C 77 % 1035,3 hPa 0,0 l/m 2,6 km/h (1 Bft) SW 236 2 min 0,000 mm 1,0 UV-I 406 W/m 1,3 C 5,0 C 4,8 km/h (1 Bft) 95,12 %
15.02.2017 14:12 5,1 C 78 % 1035,3 hPa 0,0 l/m 3,2 km/h (1 Bft) SW 236 2 min 0,000 mm 0,9 UV-I 403 W/m 1,6 C 5,1 C 4,8 km/h (1 Bft) 92,45 %
15.02.2017 14:14 4,9 C 77 % 1035,3 hPa 0,0 l/m 3,2 km/h (1 Bft) SW 236 2 min 0,000 mm 0,9 UV-I 400 W/m 1,2 C 4,9 C 4,8 km/h (1 Bft) 100,00 %
15.02.2017 14:16 4,9 C 78 % 1035,3 hPa 0,0 l/m 1,6 km/h (1 Bft) SW 236 2 min 0,000 mm 0,9 UV-I 396 W/m 1,4 C 4,9 C 4,8 km/h (1 Bft) 96,00 %
15.02.2017 14:18 5,0 C 77 % 1035,3 hPa 0,0 l/m 5,0 km/h (1 Bft) SW 233 2 min 0,000 mm 0,9 UV-I 391 W/m 1,3 C 5,0 C 6,4 km/h (2 Bft) 94,00 %
15.02.2017 14:20 5,0 C 77 % 1035,3 hPa 0,0 l/m 5,8 km/h (2 Bft) SW 230 2 min 0,000 mm 0,9 UV-I 389 W/m 1,3 C 5,0 C 8,0 km/h (2 Bft) 88,57 %
15.02.2017 14:22 5,0 C 77 % 1035,3 hPa 0,0 l/m 3,7 km/h (1 Bft) SW 230 2 min 0,000 mm 0,9 UV-I 388 W/m 1,3 C 5,0 C 6,4 km/h (2 Bft) 95,74 %
15.02.2017 14:24 5,1 C 77 % 1035,3 hPa 0,0 l/m 3,8 km/h (1 Bft) SW 229 2 min 0,000 mm 0,9 UV-I 383 W/m 1,4 C 5,1 C 6,4 km/h (2 Bft) 98,00 %
15.02.2017 14:26 5,0 C 77 % 1035,3 hPa 0,0 l/m 1,4 km/h (1 Bft) SW 229 2 min 0,000 mm 0,8 UV-I 380 W/m 1,3 C 5,0 C 4,8 km/h (1 Bft) 90,91 %
15.02.2017 14:28 5,1 C 76 % 1035,3 hPa 0,0 l/m 5,0 km/h (1 Bft) SW 221 2 min 0,000 mm 0,8 UV-I 373 W/m 1,2 C 5,1 C 8,0 km/h (2 Bft) 98,00 %
15.02.2017 14:30 5,1 C 76 % 1035,3 hPa 0,0 l/m 4,7 km/h (1 Bft) SW 221 2 min 0,000 mm 0,8 UV-I 369 W/m 1,2 C 5,1 C 8,0 km/h (2 Bft) 96,00 %
15.02.2017 14:32 5,1 C 76 % 1035,3 hPa 0,0 l/m 4,7 km/h (1 Bft) SW 229 2 min 0,000 mm 0,8 UV-I 365 W/m 1,2 C 5,1 C 6,4 km/h (2 Bft) 94,00 %
15.02.2017 14:34 5,2 C 76 % 1035,3 hPa 0,0 l/m 2,3 km/h (1 Bft) SW 230 2 min 0,000 mm 0,8 UV-I 361 W/m 1,3 C 5,2 C 6,4 km/h (2 Bft) 97,14 %
15.02.2017 14:36 5,2 C 76 % 1035,3 hPa 0,0 l/m 2,9 km/h (1 Bft) W-SW 257 2 min 0,000 mm 0,8 UV-I 357 W/m 1,3 C 5,2 C 6,4 km/h (2 Bft) 96,43 %
15.02.2017 14:38 5,1 C 76 % 1035,3 hPa 0,0 l/m 3,7 km/h (1 Bft) W-SW 244 2 min 0,000 mm 0,7 UV-I 354 W/m 1,2 C 5,1 C 6,4 km/h (2 Bft) 96,00 %
15.02.2017 14:40 5,1 C 75 % 1035,3 hPa 0,0 l/m 3,4 km/h (1 Bft) W-SW 240 2 min 0,000 mm 0,7 UV-I 351 W/m 1,0 C 5,1 C 6,4 km/h (2 Bft) 95,45 %
15.02.2017 14:42 5,1 C 75 % 1035,2 hPa 0,0 l/m 3,1 km/h (1 Bft) W-SW 240 2 min 0,000 mm 0,7 UV-I 347 W/m 1,0 C 5,1 C 4,8 km/h (1 Bft) 96,30 %
15.02.2017 14:44 5,1 C 75 % 1035,2 hPa 0,0 l/m 2,8 km/h (1 Bft) W-SW 240 2 min 0,000 mm 0,7 UV-I 342 W/m 1,0 C 5,1 C 6,4 km/h (2 Bft) 98,39 %
15.02.2017 14:46 5,1 C 75 % 1035,2 hPa 0,0 l/m 3,4 km/h (1 Bft) SW 236 2 min 0,000 mm 0,7 UV-I 339 W/m 1,0 C 5,1 C 6,4 km/h (2 Bft) 94,23 %
15.02.2017 14:48 5,0 C 75 % 1035,2 hPa 0,0 l/m 3,3 km/h (1 Bft) SW 235 2 min 0,000 mm 0,7 UV-I 335 W/m 0,9 C 5,0 C 6,4 km/h (2 Bft) 93,62 %
15.02.2017 14:50 5,0 C 75 % 1035,2 hPa 0,0 l/m 3,5 km/h (1 Bft) SW 236 2 min 0,000 mm 0,7 UV-I 330 W/m 0,9 C 5,0 C 6,4 km/h (2 Bft) 97,92 %
15.02.2017 14:52 5,1 C 75 % 1035,3 hPa 0,0 l/m 3,4 km/h (1 Bft) SW 235 2 min 0,000 mm 0,7 UV-I 328 W/m 1,0 C 5,1 C 6,4 km/h (2 Bft) 97,37 %
15.02.2017 14:54 5,1 C 74 % 1035,3 hPa 0,0 l/m 3,3 km/h (1 Bft) W-SW 238 2 min 0,000 mm 0,6 UV-I 326 W/m 0,9 C 5,1 C 4,8 km/h (1 Bft) 95,74 %
15.02.2017 14:56 5,0 C 74 % 1035,2 hPa 0,0 l/m 5,1 km/h (1 Bft) W 262 2 min 0,000 mm 0,6 UV-I 323 W/m 0,8 C 5,0 C 9,7 km/h (2 Bft) 100,00 %
15.02.2017 14:58 5,1 C 73 % 1035,2 hPa 0,0 l/m 3,6 km/h (1 Bft) W 262 2 min 0,000 mm 0,6 UV-I 319 W/m 0,7 C 5,1 C 9,7 km/h (2 Bft) 90,00 %
15.02.2017 15:00 5,2 C 72 % 1035,2 hPa 0,0 l/m 2,7 km/h (1 Bft) W-SW 257 2 min 0,152 mm 0,6 UV-I 313 W/m 0,6 C 5,2 C 4,8 km/h (1 Bft) 98,00 %
15.02.2017 15:02 5,1 C 73 % 1035,2 hPa 0,0 l/m 2,5 km/h (1 Bft) W-SW 256 2 min 0,000 mm 0,6 UV-I 309 W/m 0,7 C 5,1 C 6,4 km/h (2 Bft) 97,37 %
15.02.2017 15:04 5,1 C 72 % 1035,2 hPa 0,0 l/m 3,4 km/h (1 Bft) W-SW 256 2 min 0,000 mm 0,6 UV-I 302 W/m 0,5 C 5,1 C 4,8 km/h (1 Bft) 93,62 %
15.02.2017 15:06 5,1 C 72 % 1035,2 hPa 0,0 l/m 0,6 km/h (0 Bft) W-SW 256 2 min 0,000 mm 0,6 UV-I 297 W/m 0,5 C 5,1 C 3,2 km/h (1 Bft) 94,34 %
15.02.2017 15:08 5,1 C 73 % 1035,2 hPa 0,0 l/m 3,4 km/h (1 Bft) W-SW 254 2 min 0,000 mm 0,5 UV-I 295 W/m 0,7 C 5,1 C 4,8 km/h (1 Bft) 95,45 %
15.02.2017 15:10 5,1 C 72 % 1035,2 hPa 0,0 l/m 3,7 km/h (1 Bft) W-SW 254 2 min 0,000 mm 0,5 UV-I 290 W/m 0,5 C 5,1 C 4,8 km/h (1 Bft) 94,34 %
15.02.2017 15:12 5,1 C 72 % 1035,2 hPa 0,0 l/m 4,4 km/h (1 Bft) W-SW 244 2 min 0,000 mm 0,5 UV-I 286 W/m 0,5 C 5,1 C 6,4 km/h (2 Bft) 97,56 %
15.02.2017 15:14 5,1 C 72 % 1035,1 hPa 0,0 l/m 3,1 km/h (1 Bft) W-SW 244 2 min 0,000 mm 0,5 UV-I 281 W/m 0,5 C 5,1 C 4,8 km/h (1 Bft) 98,11 %
15.02.2017 15:16 5,1 C 71 % 1035,1 hPa 0,0 l/m 3,6 km/h (1 Bft) W-SW 244 2 min 0,000 mm 0,5 UV-I 276 W/m 0,3 C 5,1 C 6,4 km/h (2 Bft) 97,37 %
15.02.2017 15:18 5,2 C 71 % 1035,1 hPa 0,0 l/m 3,4 km/h (1 Bft) W-SW 244 2 min 0,000 mm 0,5 UV-I 272 W/m 0,4 C 5,2 C 6,4 km/h (2 Bft) 96,23 %
15.02.2017 15:20 5,2 C 70 % 1035,1 hPa 0,0 l/m 4,0 km/h (1 Bft) W-SW 243 2 min 0,000 mm 0,5 UV-I 267 W/m 0,2 C 5,2 C 6,4 km/h (2 Bft) 95,12 %
15.02.2017 15:22 5,2 C 70 % 1035,1 hPa 0,0 l/m 2,0 km/h (1 Bft) W-SW 243 2 min 0,000 mm 0,0 UV-I 261 W/m 0,2 C 5,2 C 4,8 km/h (1 Bft) 96,00 %
15.02.2017 15:24 5,3 C 71 % 1035,1 hPa 0,0 l/m 1,2 km/h (1 Bft) W-SW 243 2 min 0,000 mm 0,0 UV-I 258 W/m 0,5 C 5,3 C 3,2 km/h (1 Bft) 94,87 %
15.02.2017 15:26 5,3 C 71 % 1035,1 hPa 0,0 l/m 2,6 km/h (1 Bft) W-SW 243 2 min 0,000 mm 0,0 UV-I 253 W/m 0,5 C 5,3 C 6,4 km/h (2 Bft) 98,11 %
15.02.2017 15:28 5,3 C 71 % 1035,0 hPa 0,0 l/m 3,4 km/h (1 Bft) W-SW 243 2 min 0,000 mm 0,0 UV-I 247 W/m 0,5 C 5,3 C 6,4 km/h (2 Bft) 96,15 %
15.02.2017 15:30 5,3 C 72 % 1035,0 hPa 0,0 l/m 2,5 km/h (1 Bft) W-SW 243 2 min 0,000 mm 0,0 UV-I 243 W/m 0,7 C 5,3 C 4,8 km/h (1 Bft) 97,92 %
15.02.2017 15:32 5,3 C 72 % 1035,0 hPa 0,0 l/m 3,0 km/h (1 Bft) W-SW 243 2 min 0,000 mm 0,0 UV-I 237 W/m 0,7 C 5,3 C 4,8 km/h (1 Bft) 95,74 %
15.02.2017 15:34 5,3 C 72 % 1035,0 hPa 0,0 l/m 4,2 km/h (1 Bft) W-SW 243 2 min 0,000 mm 0,0 UV-I 232 W/m 0,7 C 5,3 C 4,8 km/h (1 Bft) 100,00 %
15.02.2017 15:36 5,3 C 72 % 1035,0 hPa 0,0 l/m 4,0 km/h (1 Bft) W-SW 242 2 min 0,000 mm 0,0 UV-I 228 W/m 0,7 C 5,3 C 6,4 km/h (2 Bft) 98,00 %
15.02.2017 15:38 5,3 C 72 % 1035,0 hPa 0,0 l/m 3,5 km/h (1 Bft) W-SW 242 2 min 0,000 mm 0,0 UV-I 222 W/m 0,7 C 5,3 C 6,4 km/h (2 Bft) 100,00 %
15.02.2017 15:40 5,3 C 73 % 1035,0 hPa 0,0 l/m 3,7 km/h (1 Bft) W-SW 242 2 min 0,000 mm 0,0 UV-I 218 W/m 0,9 C 5,3 C 6,4 km/h (2 Bft) 97,73 %
15.02.2017 15:42 5,3 C 73 % 1035,0 hPa 0,0 l/m 2,0 km/h (1 Bft) W-SW 242 2 min 0,000 mm 0,0 UV-I 213 W/m 0,9 C 5,3 C 4,8 km/h (1 Bft) 100,00 %
15.02.2017 15:44 5,3 C 72 % 1034,9 hPa 0,0 l/m 2,7 km/h (1 Bft) W-SW 242 2 min 0,000 mm 0,0 UV-I 208 W/m 0,7 C 5,3 C 6,4 km/h (2 Bft) 98,11 %
15.02.2017 15:46 5,2 C 73 % 1034,9 hPa 0,0 l/m 1,9 km/h (1 Bft) W-SW 242 2 min 0,000 mm 0,0 UV-I 204 W/m 0,8 C 5,2 C 4,8 km/h (1 Bft) 97,37 %
15.02.2017 15:48 5,2 C 73 % 1035,0 hPa 0,0 l/m 3,7 km/h (1 Bft) W-SW 242 2 min 0,000 mm 0,0 UV-I 199 W/m 0,8 C 5,2 C 4,8 km/h (1 Bft) 98,11 %
15.02.2017 15:50 5,2 C 73 % 1035,0 hPa 0,0 l/m 2,9 km/h (1 Bft) W-SW 242 2 min 0,000 mm 0,0 UV-I 193 W/m 0,8 C 5,2 C 4,8 km/h (1 Bft) 97,87 %
15.02.2017 15:52 5,2 C 73 % 1035,0 hPa 0,0 l/m 3,1 km/h (1 Bft) W-SW 242 2 min 0,000 mm 0,0 UV-I 188 W/m 0,8 C 5,2 C 4,8 km/h (1 Bft) 95,92 %
15.02.2017 15:54 5,2 C 73 % 1034,9 hPa 0,0 l/m 2,8 km/h (1 Bft) W-SW 242 2 min 0,000 mm 0,0 UV-I 183 W/m 0,8 C 5,2 C 4,8 km/h (1 Bft) 100,00 %
15.02.2017 15:56 5,3 C 73 % 1034,9 hPa 0,0 l/m 1,3 km/h (1 Bft) W-SW 242 2 min 0,000 mm 0,0 UV-I 177 W/m 0,9 C 5,3 C 4,8 km/h (1 Bft) 100,00 %
15.02.2017 15:58 5,3 C 73 % 1034,9 hPa 0,0 l/m 2,4 km/h (1 Bft) W-SW 242 2 min 0,000 mm 0,0 UV-I 174 W/m 0,9 C 5,3 C 4,8 km/h (1 Bft) 97,87 %
15.02.2017 16:00 5,3 C 72 % 1034,9 hPa 0,0 l/m 2,0 km/h (1 Bft) W-SW 242 2 min 0,102 mm 0,0 UV-I 169 W/m 0,7 C 5,3 C 4,8 km/h (1 Bft) 97,22 %
15.02.2017 16:02 5,2 C 72 % 1034,9 hPa 0,0 l/m 3,3 km/h (1 Bft) W-SW 242 2 min 0,000 mm 0,0 UV-I 164 W/m 0,6 C 5,2 C 4,8 km/h (1 Bft) 98,36 %
15.02.2017 16:04 5,2 C 72 % 1034,9 hPa 0,0 l/m 3,3 km/h (1 Bft) W-SW 242 2 min 0,000 mm 0,0 UV-I 159 W/m 0,6 C 5,2 C 4,8 km/h (1 Bft) 95,74 %
15.02.2017 16:06 5,2 C 72 % 1034,9 hPa 0,0 l/m 1,9 km/h (1 Bft) W-SW 242 2 min 0,000 mm 0,0 UV-I 154 W/m 0,6 C 5,2 C 3,2 km/h (1 Bft) 97,87 %
15.02.2017 16:08 5,2 C 72 % 1034,9 hPa 0,0 l/m 2,4 km/h (1 Bft) W-SW 242 2 min 0,000 mm 0,0 UV-I 150 W/m 0,6 C 5,2 C 4,8 km/h (1 Bft) 97,44 %
15.02.2017 16:10 5,2 C 73 % 1034,8 hPa 0,0 l/m 1,7 km/h (1 Bft) W-SW 242 2 min 0,000 mm 0,0 UV-I 145 W/m 0,8 C 5,2 C 3,2 km/h (1 Bft) 98,00 %
15.02.2017 16:12 5,1 C 72 % 1034,8 hPa 0,0 l/m 0,3 km/h (0 Bft) W-SW 242 2 min 0,000 mm 0,0 UV-I 140 W/m 0,5 C 5,1 C 1,6 km/h (1 Bft) 100,00 %
15.02.2017 16:14 5,2 C 73 % 1034,8 hPa 0,0 l/m 2,9 km/h (1 Bft) W-SW 242 2 min 0,000 mm 0,0 UV-I 136 W/m 0,8 C 5,2 C 4,8 km/h (1 Bft) 100,00 %
15.02.2017 16:16 5,2 C 72 % 1034,8 hPa 0,0 l/m 3,3 km/h (1 Bft) W-SW 242 2 min 0,000 mm 0,0 UV-I 132 W/m 0,6 C 5,2 C 4,8 km/h (1 Bft) 98,21 %
15.02.2017 16:18 5,2 C 72 % 1034,8 hPa 0,0 l/m 1,1 km/h (1 Bft) W-SW 242 2 min 0,000 mm 0,0 UV-I 127 W/m 0,6 C 5,2 C 4,8 km/h (1 Bft) 97,56 %
15.02.2017 16:20 5,2 C 71 % 1034,8 hPa 0,0 l/m 1,8 km/h (1 Bft) W-SW 242 2 min 0,000 mm 0,0 UV-I 122 W/m 0,4 C 5,2 C 4,8 km/h (1 Bft) 96,23 %
15.02.2017 16:22 5,2 C 71 % 1034,8 hPa 0,0 l/m 1,1 km/h (1 Bft) W-SW 242 2 min 0,000 mm 0,0 UV-I 118 W/m 0,4 C 5,2 C 3,2 km/h (1 Bft) 97,73 %
15.02.2017 16:24 5,2 C 71 % 1034,8 hPa 0,0 l/m 1,1 km/h (1 Bft) W-SW 242 2 min 0,000 mm 0,0 UV-I 113 W/m 0,4 C 5,2 C 3,2 km/h (1 Bft) 100,00 %
15.02.2017 16:26 5,2 C 71 % 1034,8 hPa 0,0 l/m 0,2 km/h (0 Bft) W-SW 242 2 min 0,000 mm 0,0 UV-I 108 W/m 0,4 C 5,2 C 1,6 km/h (1 Bft) 98,11 %
15.02.2017 16:28 5,2 C 71 % 1034,7 hPa 0,0 l/m 0,4 km/h (0 Bft) W-SW 242 2 min 0,000 mm 0,0 UV-I 104 W/m 0,4 C 5,2 C 1,6 km/h (1 Bft) 100,00 %
15.02.2017 16:30 5,3 C 71 % 1034,7 hPa 0,0 l/m 0,5 km/h (0 Bft) W-SW 242 2 min 0,000 mm 0,0 UV-I 98 W/m 0,5 C 5,3 C 1,6 km/h (1 Bft) 98,00 %
15.02.2017 16:32 5,2 C 72 % 1034,8 hPa 0,0 l/m 1,4 km/h (1 Bft) W-SW 242 2 min 0,000 mm 0,0 UV-I 94 W/m 0,6 C 5,2 C 3,2 km/h (1 Bft) 100,00 %
15.02.2017 16:34 5,1 C 73 % 1034,7 hPa 0,0 l/m 0,6 km/h (0 Bft) W-SW 242 2 min 0,000 mm 0,0 UV-I 90 W/m 0,7 C 5,1 C 1,6 km/h (1 Bft) 100,00 %
15.02.2017 16:36 5,1 C 72 % 1034,7 hPa 0,0 l/m 0,8 km/h (0 Bft) W-SW 242 2 min 0,000 mm 0,0 UV-I 85 W/m 0,5 C 5,1 C 3,2 km/h (1 Bft) 98,31 %
15.02.2017 16:38 5,0 C 72 % 1034,7 hPa 0,0 l/m 0,3 km/h (0 Bft) W-SW 242 2 min 0,000 mm 0,0 UV-I 79 W/m 0,4 C 5,0 C 1,6 km/h (1 Bft) 97,37 %
15.02.2017 16:40 5,0 C 72 % 1034,7 hPa 0,0 l/m 0,8 km/h (0 Bft) W-SW 242 2 min 0,000 mm 0,0 UV-I 76 W/m 0,4 C 5,0 C 1,6 km/h (1 Bft) 100,00 %
15.02.2017 16:42 5,0 C 72 % 1034,7 hPa 0,0 l/m 0,1 km/h (0 Bft) W-SW 242 2 min 0,000 mm 0,0 UV-I 71 W/m 0,4 C 5,0 C 1,6 km/h (1 Bft) 96,00 %
15.02.2017 16:44 4,9 C 72 % 1034,7 hPa 0,0 l/m 0,0 km/h (0 Bft) W-SW 242 2 min 0,000 mm 0,0 UV-I 68 W/m 0,3 C 4,9 C 0,0 km/h (0 Bft) 98,00 %
15.02.2017 16:46 4,8 C 73 % 1034,7 hPa 0,0 l/m 0,0 km/h (0 Bft) W-SW 242 2 min 0,000 mm 0,0 UV-I 63 W/m 0,4 C 4,8 C 1,6 km/h (1 Bft) 98,08 %
15.02.2017 16:48 4,8 C 73 % 1034,7 hPa 0,0 l/m 0,0 km/h (0 Bft) W-SW 242 2 min 0,000 mm 0,0 UV-I 59 W/m 0,4 C 4,8 C 0,0 km/h (0 Bft) 100,00 %
15.02.2017 16:50 4,8 C 73 % 1034,7 hPa 0,0 l/m 0,0 km/h (0 Bft) W-SW 242 2 min 0,000 mm 0,0 UV-I 54 W/m 0,4 C 4,8 C 0,0 km/h (0 Bft) 97,73 %
15.02.2017 16:52 4,7 C 73 % 1034,7 hPa 0,0 l/m 0,0 km/h (0 Bft) W-SW 242 2 min 0,000 mm 0,0 UV-I 51 W/m 0,3 C 4,7 C 0,0 km/h (0 Bft) 100,00 %
15.02.2017 16:54 4,7 C 73 % 1034,7 hPa 0,0 l/m 0,0 km/h (0 Bft) W-SW 242 2 min 0,000 mm 0,0 UV-I 47 W/m 0,3 C 4,7 C 0,0 km/h (0 Bft) 97,87 %
15.02.2017 16:56 4,4 C 74 % 1034,8 hPa 0,0 l/m 0,0 km/h (0 Bft) W-SW 242 2 min 0,000 mm 0,0 UV-I 42 W/m 0,2 C 4,4 C 0,0 km/h (0 Bft) 98,00 %
15.02.2017 16:58 4,2 C 75 % 1034,7 hPa 0,0 l/m 0,0 km/h (0 Bft) W-SW 242 2 min 0,000 mm 0,0 UV-I 38 W/m 0,2 C 4,2 C 0,0 km/h (0 Bft) 98,00 %
15.02.2017 17:00 4,0 C 76 % 1034,7 hPa 0,0 l/m 0,0 km/h (0 Bft) W-SW 242 2 min 0,000 mm 0,0 UV-I 36 W/m 0,2 C 4,0 C 0,0 km/h (0 Bft) 97,37 %
15.02.2017 17:02 3,8 C 76 % 1034,7 hPa 0,0 l/m 0,0 km/h (0 Bft) W-SW 242 2 min 0,051 mm 0,0 UV-I 32 W/m -0,0 C 3,8 C 0,0 km/h (0 Bft) 98,11 %
15.02.2017 17:04 3,4 C 77 % 1034,8 hPa 0,0 l/m 0,0 km/h (0 Bft) W-SW 242 2 min 0,000 mm 0,0 UV-I 30 W/m -0,2 C 3,4 C 0,0 km/h (0 Bft) 89,36 %
15.02.2017 17:06 3,2 C 78 % 1034,7 hPa 0,0 l/m 0,2 km/h (0 Bft) W-SW 242 2 min 0,000 mm 0,0 UV-I 26 W/m -0,3 C 3,2 C 1,6 km/h (1 Bft) 100,00 %
15.02.2017 17:08 3,0 C 79 % 1034,7 hPa 0,0 l/m 0,0 km/h (0 Bft) W-SW 242 2 min 0,000 mm 0,0 UV-I 24 W/m -0,3 C 3,0 C 0,0 km/h (0 Bft) 97,87 %
15.02.2017 17:10 3,1 C 79 % 1034,7 hPa 0,0 l/m 0,0 km/h (0 Bft) W-SW 242 2 min 0,000 mm 0,0 UV-I 21 W/m -0,2 C 3,1 C 0,0 km/h (0 Bft) 97,37 %
15.02.2017 17:12 3,1 C 79 % 1034,7 hPa 0,0 l/m 0,0 km/h (0 Bft) W-SW 242 2 min 0,000 mm 0,0 UV-I 19 W/m -0,2 C 3,1 C 0,0 km/h (0 Bft) 100,00 %
15.02.2017 17:14 2,8 C 79 % 1034,7 hPa 0,0 l/m 2,4 km/h (1 Bft) W-SW 242 2 min 0,000 mm 0,0 UV-I 18 W/m -0,5 C 2,8 C 3,2 km/h (1 Bft) 97,87 %
15.02.2017 17:16 2,7 C 81 % 1034,8 hPa 0,0 l/m 2,6 km/h (1 Bft) W-SW 242 0 min 0,000 mm 0,0 UV-I 15 W/m -0,2 C 2,7 C 3,2 km/h (1 Bft) 100,00 %
15.02.2017 17:18 2,6 C 80 % 1034,7 hPa 0,0 l/m 1,6 km/h (1 Bft) W-SW 242 0 min 0,000 mm 0,0 UV-I 14 W/m -0,5 C 2,6 C 3,2 km/h (1 Bft) 97,73 %
15.02.2017 17:20 2,6 C 81 % 1034,7 hPa 0,0 l/m 1,5 km/h (1 Bft) W-SW 242 0 min 0,000 mm 0,0 UV-I 12 W/m -0,3 C 2,6 C 3,2 km/h (1 Bft) 96,00 %
15.02.2017 17:22 2,4 C 81 % 1034,7 hPa 0,0 l/m 1,3 km/h (1 Bft) W-SW 242 0 min 0,000 mm 0,0 UV-I 11 W/m -0,5 C 2,4 C 1,6 km/h (1 Bft) 100,00 %
15.02.2017 17:24 2,4 C 81 % 1034,8 hPa 0,0 l/m 1,0 km/h (0 Bft) W-SW 242 0 min 0,000 mm 0,0 UV-I 11 W/m -0,5 C 2,4 C 1,6 km/h (1 Bft) 98,00 %
15.02.2017 17:26 2,4 C 81 % 1034,8 hPa 0,0 l/m 0,7 km/h (0 Bft) W-SW 242 0 min 0,000 mm 0,0 UV-I 9 W/m -0,5 C 2,4 C 3,2 km/h (1 Bft) 100,00 %
15.02.2017 17:28 2,2 C 81 % 1034,7 hPa 0,0 l/m 2,9 km/h (1 Bft) W-SW 242 0 min 0,000 mm 0,0 UV-I 8 W/m -0,7 C 2,2 C 3,2 km/h (1 Bft) 98,39 %
15.02.2017 17:30 2,1 C 82 % 1034,8 hPa 0,0 l/m 2,2 km/h (1 Bft) W-SW 242 0 min 0,000 mm 0,0 UV-I 7 W/m -0,6 C 2,1 C 3,2 km/h (1 Bft) 100,00 %
15.02.2017 17:32 1,9 C 82 % 1034,7 hPa 0,0 l/m 1,8 km/h (1 Bft) W-SW 242 0 min 0,000 mm 0,0 UV-I 7 W/m -0,8 C 1,9 C 3,2 km/h (1 Bft) 100,00 %
15.02.2017 17:34 1,8 C 83 % 1034,7 hPa 0,0 l/m 0,7 km/h (0 Bft) W-SW 242 0 min 0,000 mm 0,0 UV-I 6 W/m -0,8 C 1,8 C 1,6 km/h (1 Bft) 100,00 %
15.02.2017 17:36 1,6 C 83 % 1034,8 hPa 0,0 l/m 1,6 km/h (1 Bft) W-SW 242 0 min 0,000 mm 0,0 UV-I 5 W/m -1,0 C 1,6 C 3,2 km/h (1 Bft) 100,00 %
15.02.2017 17:38 1,7 C 83 % 1034,8 hPa 0,0 l/m 0,5 km/h (0 Bft) W-SW 242 0 min 0,000 mm 0,0 UV-I 5 W/m -0,9 C 1,7 C 1,6 km/h (1 Bft) 98,53 %
15.02.2017 17:40 1,5 C 83 % 1034,8 hPa 0,0 l/m 0,1 km/h (0 Bft) W-SW 242 0 min 0,000 mm 0,0 UV-I 5 W/m -1,1 C 1,5 C 1,6 km/h (1 Bft) 97,37 %
15.02.2017 17:42 1,3 C 84 % 1034,8 hPa 0,0 l/m 0,1 km/h (0 Bft) W-SW 242 0 min 0,000 mm 0,0 UV-I 2 W/m -1,1 C 1,3 C 1,6 km/h (1 Bft) 100,00 %
15.02.2017 17:44 1,3 C 85 % 1034,8 hPa 0,0 l/m 1,1 km/h (1 Bft) W-SW 242 0 min 0,000 mm 0,0 UV-I 0 W/m -0,9 C 1,3 C 3,2 km/h (1 Bft) 95,74 %
15.02.2017 17:46 1,4 C 85 % 1034,8 hPa 0,0 l/m 0,5 km/h (0 Bft) W-SW 242 0 min 0,000 mm 0,0 UV-I 0 W/m -0,8 C 1,4 C 1,6 km/h (1 Bft) 95,74 %
15.02.2017 17:48 1,6 C 84 % 1034,8 hPa 0,0 l/m 2,4 km/h (1 Bft) W-SW 242 0 min 0,000 mm 0,0 UV-I 0 W/m -0,8 C 1,6 C 3,2 km/h (1 Bft) 98,00 %
15.02.2017 17:50 1,6 C 84 % 1034,8 hPa 0,0 l/m 3,1 km/h (1 Bft) W-SW 242 0 min 0,000 mm 0,0 UV-I 0 W/m -0,8 C 1,6 C 4,8 km/h (1 Bft) 97,87 %
15.02.2017 17:52 1,6 C 84 % 1034,9 hPa 0,0 l/m 3,5 km/h (1 Bft) W-SW 242 0 min 0,000 mm 0,0 UV-I 0 W/m -0,8 C 1,6 C 4,8 km/h (1 Bft) 96,23 %
15.02.2017 17:54 1,6 C 84 % 1034,9 hPa 0,0 l/m 3,3 km/h (1 Bft) W-SW 242 0 min 0,000 mm 0,0 UV-I 0 W/m -0,8 C 1,6 C 4,8 km/h (1 Bft) 97,14 %
15.02.2017 17:56 1,4 C 83 % 1034,9 hPa 0,0 l/m 2,7 km/h (1 Bft) W-SW 242 0 min 0,000 mm 0,0 UV-I 0 W/m -1,2 C 1,4 C 3,2 km/h (1 Bft) 96,43 %
15.02.2017 17:58 1,2 C 84 % 1034,9 hPa 0,0 l/m 2,2 km/h (1 Bft) W-SW 242 0 min 0,000 mm 0,0 UV-I 0 W/m -1,2 C 1,2 C 3,2 km/h (1 Bft) 94,74 %
15.02.2017 18:00 1,2 C 84 % 1034,9 hPa 0,0 l/m 1,3 km/h (1 Bft) W-SW 242 0 min 0,000 mm 0,0 UV-I 0 W/m -1,2 C 1,2 C 3,2 km/h (1 Bft) 96,00 %
15.02.2017 18:02 1,3 C 85 % 1034,9 hPa 0,0 l/m 0,6 km/h (0 Bft) W-SW 242 0 min 0,000 mm 0,0 UV-I 0 W/m -0,9 C 1,3 C 1,6 km/h (1 Bft) 100,00 %
15.02.2017 18:04 1,4 C 84 % 1034,9 hPa 0,0 l/m 0,7 km/h (0 Bft) W-SW 242 0 min 0,000 mm 0,0 UV-I 0 W/m -1,0 C 1,4 C 1,6 km/h (1 Bft) 95,45 %
15.02.2017 18:06 1,1 C 83 % 1034,9 hPa 0,0 l/m 0,3 km/h (0 Bft) W-SW 242 0 min 0,000 mm 0,0 UV-I 0 W/m -1,5 C 1,1 C 1,6 km/h (1 Bft) 100,00 %
15.02.2017 18:08 0,8 C 85 % 1034,9 hPa 0,0 l/m 0,4 km/h (0 Bft) W-SW 242 0 min 0,000 mm 0,0 UV-I 0 W/m -1,4 C 0,8 C 1,6 km/h (1 Bft) 100,00 %
15.02.2017 18:10 0,7 C 86 % 1034,9 hPa 0,0 l/m 0,1 km/h (0 Bft) W-SW 242 0 min 0,000 mm 0,0 UV-I 0 W/m -1,4 C 0,7 C 1,6 km/h (1 Bft) 100,00 %
15.02.2017 18:12 0,6 C 86 % 1034,9 hPa 0,0 l/m 0,4 km/h (0 Bft) W-SW 242 0 min 0,000 mm 0,0 UV-I 0 W/m -1,5 C 0,6 C 1,6 km/h (1 Bft) 100,00 %
15.02.2017 18:14 0,4 C 86 % 1034,9 hPa 0,0 l/m 0,3 km/h (0 Bft) W-SW 242 0 min 0,000 mm 0,0 UV-I 0 W/m -1,7 C 0,4 C 1,6 km/h (1 Bft) 98,11 %
15.02.2017 18:16 0,4 C 87 % 1035,0 hPa 0,0 l/m 0,0 km/h (0 Bft) W-SW 242 0 min 0,000 mm 0,0 UV-I 0 W/m -1,5 C 0,4 C 0,0 km/h (0 Bft) 95,74 %
15.02.2017 18:18 0,3 C 88 % 1035,0 hPa 0,0 l/m 0,2 km/h (0 Bft) W-SW 242 0 min 0,000 mm 0,0 UV-I 0 W/m -1,4 C 0,3 C 1,6 km/h (1 Bft) 97,87 %
15.02.2017 18:20 0,2 C 87 % 1035,0 hPa 0,0 l/m 1,7 km/h (1 Bft) W-SW 242 0 min 0,000 mm 0,0 UV-I 0 W/m -1,7 C 0,2 C 3,2 km/h (1 Bft) 95,45 %
15.02.2017 18:22 0,1 C 88 % 1035,1 hPa 0,0 l/m 3,6 km/h (1 Bft) W-SW 242 0 min 0,000 mm 0,0 UV-I 0 W/m -1,6 C 0,1 C 4,8 km/h (1 Bft) 91,49 %
15.02.2017 18:24 0,1 C 88 % 1035,1 hPa 0,0 l/m 3,7 km/h (1 Bft) W-SW 242 0 min 0,000 mm 0,0 UV-I 0 W/m -1,6 C 0,1 C 4,8 km/h (1 Bft) 95,74 %
15.02.2017 18:26 0,2 C 89 % 1035,1 hPa 0,0 l/m 3,5 km/h (1 Bft) W-SW 242 0 min 0,000 mm 0,0 UV-I 0 W/m -1,4 C 0,2 C 4,8 km/h (1 Bft) 92,68 %
15.02.2017 18:28 0,2 C 89 % 1035,1 hPa 0,0 l/m 1,0 km/h (0 Bft) W-SW 242 0 min 0,000 mm 0,0 UV-I 0 W/m -1,4 C 0,2 C 3,2 km/h (1 Bft) 90,00 %
15.02.2017 18:30 0,3 C 89 % 1035,1 hPa 0,0 l/m 0,0 km/h (0 Bft) W-SW 242 0 min 0,000 mm 0,0 UV-I 0 W/m -1,3 C 0,3 C 0,0 km/h (0 Bft) 97,87 %
15.02.2017 18:32 0,4 C 89 % 1035,1 hPa 0,0 l/m 0,2 km/h (0 Bft) W-SW 242 0 min 0,000 mm 0,0 UV-I 0 W/m -1,2 C 0,4 C 1,6 km/h (1 Bft) 93,18 %
15.02.2017 18:34 0,6 C 89 % 1035,1 hPa 0,0 l/m 0,0 km/h (0 Bft) W-SW 242 0 min 0,000 mm 0,0 UV-I 0 W/m -1,0 C 0,6 C 0,0 km/h (0 Bft) 92,00 %
15.02.2017 18:36 0,6 C 88 % 1035,0 hPa 0,0 l/m 0,0 km/h (0 Bft) W-SW 242 0 min 0,000 mm 0,0 UV-I 0 W/m -1,2 C 0,6 C 0,0 km/h (0 Bft) 96,00 %
15.02.2017 18:38 0,6 C 88 % 1035,1 hPa 0,0 l/m 0,0 km/h (0 Bft) W-SW 242 0 min 0,000 mm 0,0 UV-I 0 W/m -1,2 C 0,6 C 0,0 km/h (0 Bft) 95,12 %
15.02.2017 18:40 0,6 C 88 % 1035,0 hPa 0,0 l/m 0,0 km/h (0 Bft) W-SW 242 0 min 0,000 mm 0,0 UV-I 0 W/m -1,2 C 0,6 C 0,0 km/h (0 Bft) 94,00 %
15.02.2017 18:42 0,5 C 88 % 1035,1 hPa 0,0 l/m 0,0 km/h (0 Bft) W-SW 242 0 min 0,000 mm 0,0 UV-I 0 W/m -1,3 C 0,5 C 0,0 km/h (0 Bft) 93,62 %
15.02.2017 18:44 0,5 C 88 % 1035,1 hPa 0,0 l/m 0,0 km/h (0 Bft) W-SW 242 0 min 0,000 mm 0,0 UV-I 0 W/m -1,3 C 0,5 C 0,0 km/h (0 Bft) 91,67 %
15.02.2017 18:46 0,5 C 88 % 1035,1 hPa 0,0 l/m 0,0 km/h (0 Bft) W-SW 242 0 min 0,000 mm 0,0 UV-I 0 W/m -1,3 C 0,5 C 0,0 km/h (0 Bft) 97,67 %
15.02.2017 18:48 0,6 C 88 % 1035,1 hPa 0,0 l/m 0,0 km/h (0 Bft) W-SW 242 0 min 0,000 mm 0,0 UV-I 0 W/m -1,2 C 0,6 C 0,0 km/h (0 Bft) 95,74 %
15.02.2017 18:50 0,7 C 88 % 1035,0 hPa 0,0 l/m 0,0 km/h (0 Bft) W-SW 242 0 min 0,000 mm 0,0 UV-I 0 W/m -1,1 C 0,7 C 0,0 km/h (0 Bft) 94,00 %
15.02.2017 18:52 0,6 C 87 % 1035,0 hPa 0,0 l/m 0,0 km/h (0 Bft) W-SW 242 0 min 0,000 mm 0,0 UV-I 0 W/m -1,3 C 0,6 C 0,0 km/h (0 Bft) 96,00 %
15.02.2017 18:54 0,6 C 88 % 1035,0 hPa 0,0 l/m 0,2 km/h (0 Bft) W-SW 242 0 min 0,000 mm 0,0 UV-I 0 W/m -1,2 C 0,6 C 1,6 km/h (1 Bft) 97,87 %
15.02.2017 18:56 0,6 C 87 % 1035,1 hPa 0,0 l/m 2,9 km/h (1 Bft) W-SW 242 0 min 0,000 mm 0,0 UV-I 0 W/m -1,3 C 0,6 C 3,2 km/h (1 Bft) 96,00 %
15.02.2017 18:58 0,5 C 88 % 1035,1 hPa 0,0 l/m 2,2 km/h (1 Bft) W-SW 242 0 min 0,000 mm 0,0 UV-I 0 W/m -1,3 C 0,5 C 3,2 km/h (1 Bft) 97,37 %
15.02.2017 19:00 0,4 C 87 % 1035,1 hPa 0,0 l/m 1,0 km/h (0 Bft) W-SW 242 0 min 0,000 mm 0,0 UV-I 0 W/m -1,5 C 0,4 C 1,6 km/h (1 Bft) 94,00 %
15.02.2017 19:02 0,3 C 88 % 1035,1 hPa 0,0 l/m 1,4 km/h (1 Bft) W-SW 242 0 min 0,000 mm 0,0 UV-I 0 W/m -1,4 C 0,3 C 3,2 km/h (1 Bft) 93,75 %
15.02.2017 19:04 0,2 C 88 % 1035,1 hPa 0,0 l/m 2,6 km/h (1 Bft) W-SW 242 0 min 0,000 mm 0,0 UV-I 0 W/m -1,5 C 0,2 C 3,2 km/h (1 Bft) 100,00 %
15.02.2017 19:06 0,3 C 89 % 1035,1 hPa 0,0 l/m 2,8 km/h (1 Bft) W-SW 242 0 min 0,000 mm 0,0 UV-I 0 W/m -1,3 C 0,3 C 3,2 km/h (1 Bft) 97,56 %
15.02.2017 19:08 0,3 C 89 % 1035,1 hPa 0,0 l/m 2,9 km/h (1 Bft) W-SW 242 0 min 0,000 mm 0,0 UV-I 0 W/m -1,3 C 0,3 C 4,8 km/h (1 Bft) 96,00 %
15.02.2017 19:10 0,3 C 88 % 1035,2 hPa 0,0 l/m 3,2 km/h (1 Bft) W-SW 242 0 min 0,000 mm 0,0 UV-I 0 W/m -1,4 C 0,3 C 3,2 km/h (1 Bft) 92,11 %
15.02.2017 19:12 0,4 C 89 % 1035,1 hPa 0,0 l/m 3,3 km/h (1 Bft) W-SW 242 0 min 0,000 mm 0,0 UV-I 0 W/m -1,2 C 0,4 C 4,8 km/h (1 Bft) 96,00 %
15.02.2017 19:14 0,4 C 88 % 1035,1 hPa 0,0 l/m 3,1 km/h (1 Bft) W-SW 242 0 min 0,000 mm 0,0 UV-I 0 W/m -1,3 C 0,4 C 4,8 km/h (1 Bft) 90,57 %
15.02.2017 19:16 0,3 C 88 % 1035,1 hPa 0,0 l/m 3,3 km/h (1 Bft) W-SW 242 0 min 0,000 mm 0,0 UV-I 0 W/m -1,4 C 0,3 C 4,8 km/h (1 Bft) 97,56 %
15.02.2017 19:18 0,2 C 88 % 1035,1 hPa 0,0 l/m 3,3 km/h (1 Bft) W-SW 242 0 min 0,000 mm 0,0 UV-I 0 W/m -1,5 C 0,2 C 4,8 km/h (1 Bft) 96,00 %
15.02.2017 19:20 0,1 C 88 % 1035,2 hPa 0,0 l/m 4,3 km/h (1 Bft) W-SW 242 0 min 0,000 mm 0,0 UV-I 0 W/m -1,6 C 0,1 C 4,8 km/h (1 Bft) 95,74 %
15.02.2017 19:22 -0,2 C 88 % 1035,2 hPa 0,0 l/m 3,7 km/h (1 Bft) W-SW 242 0 min 0,000 mm 0,0 UV-I 0 W/m -1,9 C -0,2 C 4,8 km/h (1 Bft) 97,44 %
15.02.2017 19:24 -0,3 C 89 % 1035,2 hPa 0,0 l/m 3,9 km/h (1 Bft) W-SW 242 0 min 0,000 mm 0,0 UV-I 0 W/m -1,9 C -0,3 C 4,8 km/h (1 Bft) 98,00 %
15.02.2017 19:26 -0,2 C 89 % 1035,2 hPa 0,0 l/m 3,2 km/h (1 Bft) W-SW 242 0 min 0,000 mm 0,0 UV-I 0 W/m -1,8 C -0,2 C 4,8 km/h (1 Bft) 94,00 %
15.02.2017 19:28 -0,2 C 90 % 1035,2 hPa 0,0 l/m 2,6 km/h (1 Bft) W-SW 242 0 min 0,000 mm 0,0 UV-I 0 W/m -1,6 C -0,2 C 3,2 km/h (1 Bft) 96,00 %
15.02.2017 19:30 0,0 C 90 % 1035,2 hPa 0,0 l/m 2,0 km/h (1 Bft) W-SW 242 0 min 0,000 mm 0,0 UV-I 0 W/m -1,4 C 0,0 C 3,2 km/h (1 Bft) 94,00 %
15.02.2017 19:32 0,0 C 89 % 1035,2 hPa 0,0 l/m 2,1 km/h (1 Bft) W-SW 242 0 min 0,000 mm 0,0 UV-I 0 W/m -1,6 C 0,0 C 3,2 km/h (1 Bft) 100,00 %
15.02.2017 19:34 0,2 C 90 % 1035,2 hPa 0,0 l/m 2,0 km/h (1 Bft) W-SW 242 0 min 0,000 mm 0,0 UV-I 0 W/m -1,2 C 0,2 C 3,2 km/h (1 Bft) 96,00 %
15.02.2017 19:36 0,2 C 89 % 1035,2 hPa 0,0 l/m 2,5 km/h (1 Bft) W-SW 242 0 min 0,000 mm 0,0 UV-I 0 W/m -1,4 C 0,2 C 3,2 km/h (1 Bft) 92,00 %
15.02.2017 19:38 0,2 C 89 % 1035,2 hPa 0,0 l/m 2,6 km/h (1 Bft) W-SW 242 0 min 0,000 mm 0,0 UV-I 0 W/m -1,4 C 0,2 C 3,2 km/h (1 Bft) 97,56 %
15.02.2017 19:40 0,2 C 89 % 1035,2 hPa 0,0 l/m 3,3 km/h (1 Bft) W-SW 242 0 min 0,000 mm 0,0 UV-I 0 W/m -1,4 C 0,2 C 4,8 km/h (1 Bft) 97,87 %
15.02.2017 19:42 0,1 C 89 % 1035,2 hPa 0,0 l/m 4,5 km/h (1 Bft) W-SW 242 0 min 0,000 mm 0,0 UV-I 0 W/m -1,5 C 0,1 C 6,4 km/h (2 Bft) 95,74 %
15.02.2017 19:44 -0,1 C 89 % 1035,2 hPa 0,0 l/m 3,9 km/h (1 Bft) W-SW 242 0 min 0,000 mm 0,0 UV-I 0 W/m -1,7 C -0,1 C 6,4 km/h (2 Bft) 92,86 %
15.02.2017 19:46 -0,1 C 89 % 1035,2 hPa 0,0 l/m 3,7 km/h (1 Bft) W-SW 242 0 min 0,000 mm 0,0 UV-I 0 W/m -1,7 C -0,1 C 4,8 km/h (1 Bft) 94,74 %
15.02.2017 19:48 -0,1 C 90 % 1035,2 hPa 0,0 l/m 3,1 km/h (1 Bft) W-SW 242 0 min 0,000 mm 0,0 UV-I 0 W/m -1,5 C -0,1 C 4,8 km/h (1 Bft) 92,45 %
15.02.2017 19:50 -0,2 C 90 % 1035,2 hPa 0,0 l/m 3,3 km/h (1 Bft) W-SW 242 0 min 0,000 mm 0,0 UV-I 0 W/m -1,6 C -0,2 C 4,8 km/h (1 Bft) 97,37 %
15.02.2017 19:52 -0,2 C 89 % 1035,1 hPa 0,0 l/m 3,2 km/h (1 Bft) W-SW 242 0 min 0,000 mm 0,0 UV-I 0 W/m -1,8 C -0,2 C 4,8 km/h (1 Bft) 95,74 %
15.02.2017 19:54 -0,2 C 90 % 1035,2 hPa 0,0 l/m 3,4 km/h (1 Bft) W-SW 242 0 min 0,000 mm 0,0 UV-I 0 W/m -1,6 C -0,2 C 4,8 km/h (1 Bft) 98,00 %
15.02.2017 19:56 -0,2 C 90 % 1035,2 hPa 0,0 l/m 3,4 km/h (1 Bft) W-SW 242 0 min 0,000 mm 0,0 UV-I 0 W/m -1,6 C -0,2 C 4,8 km/h (1 Bft) 98,00 %
15.02.2017 19:58 -0,3 C 90 % 1035,2 hPa 0,0 l/m 3,1 km/h (1 Bft) W-SW 242 0 min 0,000 mm 0,0 UV-I 0 W/m -1,7 C -0,3 C 3,2 km/h (1 Bft) 98,00 %
15.02.2017 20:00 -0,3 C 90 % 1035,2 hPa 0,0 l/m 3,1 km/h (1 Bft) W-SW 242 0 min 0,000 mm 0,0 UV-I 0 W/m -1,7 C -0,3 C 3,2 km/h (1 Bft) 94,87 %
15.02.2017 20:02 -0,3 C 90 % 1035,1 hPa 0,0 l/m 2,4 km/h (1 Bft) W-SW 242 0 min 0,000 mm 0,0 UV-I 0 W/m -1,7 C -0,3 C 3,2 km/h (1 Bft) 94,23 %
15.02.2017 20:04 -0,3 C 90 % 1035,1 hPa 0,0 l/m 2,2 km/h (1 Bft) W-SW 242 0 min 0,000 mm 0,0 UV-I 0 W/m -1,7 C -0,3 C 3,2 km/h (1 Bft) 95,74 %
15.02.2017 20:06 -0,3 C 90 % 1035,1 hPa 0,0 l/m 2,2 km/h (1 Bft) W-SW 242 0 min 0,000 mm 0,0 UV-I 0 W/m -1,7 C -0,3 C 3,2 km/h (1 Bft) 97,92 %
15.02.2017 20:08 -0,3 C 91 % 1035,1 hPa 0,0 l/m 1,8 km/h (1 Bft) W-SW 242 0 min 0,000 mm 0,0 UV-I 0 W/m -1,6 C -0,3 C 3,2 km/h (1 Bft) 100,00 %
15.02.2017 20:10 -0,3 C 91 % 1035,1 hPa 0,0 l/m 1,6 km/h (1 Bft) W-SW 242 0 min 0,000 mm 0,0 UV-I 0 W/m -1,6 C -0,3 C 3,2 km/h (1 Bft) 96,00 %
15.02.2017 20:12 -0,3 C 91 % 1035,1 hPa 0,0 l/m 0,4 km/h (0 Bft) W-SW 242 0 min 0,000 mm 0,0 UV-I 0 W/m -1,6 C -0,3 C 1,6 km/h (1 Bft) 94,64 %
15.02.2017 20:14 -0,3 C 91 % 1035,2 hPa 0,0 l/m 1,1 km/h (1 Bft) W-SW 242 0 min 0,000 mm 0,0 UV-I 0 W/m -1,6 C -0,3 C 3,2 km/h (1 Bft) 95,12 %
15.02.2017 20:16 -0,3 C 91 % 1035,1 hPa 0,0 l/m 1,5 km/h (1 Bft) W-SW 242 0 min 0,000 mm 0,0 UV-I 0 W/m -1,6 C -0,3 C 3,2 km/h (1 Bft) 94,34 %
15.02.2017 20:18 -0,3 C 91 % 1035,2 hPa 0,0 l/m 2,1 km/h (1 Bft) W-SW 242 0 min 0,000 mm 0,0 UV-I 0 W/m -1,6 C -0,3 C 3,2 km/h (1 Bft) 97,56 %
15.02.2017 20:20 -0,3 C 91 % 1035,2 hPa 0,0 l/m 3,1 km/h (1 Bft) W-SW 242 0 min 0,000 mm 0,0 UV-I 0 W/m -1,6 C -0,3 C 4,8 km/h (1 Bft) 97,56 %
15.02.2017 20:22 -0,3 C 91 % 1035,2 hPa 0,0 l/m 2,5 km/h (1 Bft) W-SW 242 0 min 0,000 mm 0,0 UV-I 0 W/m -1,6 C -0,3 C 4,8 km/h (1 Bft) 90,00 %
15.02.2017 20:24 -0,3 C 91 % 1035,2 hPa 0,0 l/m 2,2 km/h (1 Bft) W-SW 242 0 min 0,000 mm 0,0 UV-I 0 W/m -1,6 C -0,3 C 4,8 km/h (1 Bft) 97,87 %
15.02.2017 20:26 -0,3 C 91 % 1035,2 hPa 0,0 l/m 0,5 km/h (0 Bft) W-SW 242 0 min 0,000 mm 0,0 UV-I 0 W/m -1,6 C -0,3 C 1,6 km/h (1 Bft) 90,00 %
15.02.2017 20:28 -0,3 C 91 % 1035,2 hPa 0,0 l/m 0,4 km/h (0 Bft) W-SW 242 0 min 0,000 mm 0,0 UV-I 0 W/m -1,6 C -0,3 C 1,6 km/h (1 Bft) 93,62 %
15.02.2017 20:30 -0,3 C 91 % 1035,2 hPa 0,0 l/m 1,1 km/h (1 Bft) W-SW 242 0 min 0,000 mm 0,0 UV-I 0 W/m -1,6 C -0,3 C 3,2 km/h (1 Bft) 95,74 %
15.02.2017 20:32 -0,3 C 91 % 1035,3 hPa 0,0 l/m 1,3 km/h (1 Bft) W-SW 242 0 min 0,000 mm 0,0 UV-I 0 W/m -1,6 C -0,3 C 3,2 km/h (1 Bft) 92,68 %
15.02.2017 20:34 -0,2 C 91 % 1035,2 hPa 0,0 l/m 1,1 km/h (1 Bft) W-SW 242 0 min 0,000 mm 0,0 UV-I 0 W/m -1,5 C -0,2 C 3,2 km/h (1 Bft) 94,34 %
15.02.2017 20:36 -0,1 C 91 % 1035,2 hPa 0,0 l/m 1,8 km/h (1 Bft) W-SW 242 0 min 0,000 mm 0,0 UV-I 0 W/m -1,4 C -0,1 C 3,2 km/h (1 Bft) 96,00 %
15.02.2017 20:38 -0,2 C 91 % 1035,3 hPa 0,0 l/m 1,6 km/h (1 Bft) W-SW 242 0 min 0,000 mm 0,0 UV-I 0 W/m -1,5 C -0,2 C 3,2 km/h (1 Bft) 87,23 %
15.02.2017 20:40 -0,2 C 91 % 1035,3 hPa 0,0 l/m 2,3 km/h (1 Bft) W-SW 242 0 min 0,000 mm 0,0 UV-I 0 W/m -1,5 C -0,2 C 3,2 km/h (1 Bft) 97,87 %
15.02.2017 20:42 -0,3 C 91 % 1035,4 hPa 0,0 l/m 2,9 km/h (1 Bft) W-SW 242 0 min 0,000 mm 0,0 UV-I 0 W/m -1,6 C -0,3 C 4,8 km/h (1 Bft) 97,56 %
15.02.2017 20:44 -0,3 C 91 % 1035,4 hPa 0,0 l/m 2,5 km/h (1 Bft) W-SW 242 0 min 0,000 mm 0,0 UV-I 0 W/m -1,6 C -0,3 C 4,8 km/h (1 Bft) 100,00 %
15.02.2017 20:46 -0,5 C 90 % 1035,4 hPa 0,0 l/m 2,7 km/h (1 Bft) W-SW 242 0 min 0,000 mm 0,0 UV-I 0 W/m -1,9 C -0,5 C 4,8 km/h (1 Bft) 98,28 %
15.02.2017 20:48 -0,6 C 91 % 1035,4 hPa 0,0 l/m 2,7 km/h (1 Bft) W-SW 242 0 min 0,000 mm 0,0 UV-I 0 W/m -1,9 C -0,6 C 4,8 km/h (1 Bft) 93,18 %
15.02.2017 20:50 -0,7 C 91 % 1035,4 hPa 0,0 l/m 2,1 km/h (1 Bft) W-SW 242 0 min 0,000 mm 0,0 UV-I 0 W/m -2,0 C -0,7 C 3,2 km/h (1 Bft) 100,00 %
15.02.2017 20:52 -0,6 C 92 % 1035,4 hPa 0,0 l/m 3,1 km/h (1 Bft) W-SW 242 0 min 0,000 mm 0,0 UV-I 0 W/m -1,7 C -0,6 C 4,8 km/h (1 Bft) 97,87 %
15.02.2017 20:54 -0,6 C 92 % 1035,5 hPa 0,0 l/m 2,9 km/h (1 Bft) W-SW 242 0 min 0,000 mm 0,0 UV-I 0 W/m -1,7 C -0,6 C 4,8 km/h (1 Bft) 97,37 %
15.02.2017 20:56 -0,6 C 91 % 1035,4 hPa 0,0 l/m 3,2 km/h (1 Bft) W-SW 242 0 min 0,000 mm 0,0 UV-I 0 W/m -1,9 C -0,6 C 4,8 km/h (1 Bft) 100,00 %
15.02.2017 20:58 -0,6 C 92 % 1035,5 hPa 0,0 l/m 3,3 km/h (1 Bft) W-SW 242 0 min 0,000 mm 0,0 UV-I 0 W/m -1,7 C -0,6 C 4,8 km/h (1 Bft) 100,00 %
15.02.2017 21:00 -0,7 C 92 % 1035,5 hPa 0,0 l/m 3,1 km/h (1 Bft) W-SW 242 0 min 0,000 mm 0,0 UV-I 0 W/m -1,8 C -0,7 C 4,8 km/h (1 Bft) 91,49 %
15.02.2017 21:02 -0,8 C 92 % 1035,6 hPa 0,0 l/m 2,9 km/h (1 Bft) W-SW 242 0 min 0,000 mm 0,0 UV-I 0 W/m -1,9 C -0,8 C 4,8 km/h (1 Bft) 97,56 %
15.02.2017 21:04 -0,9 C 92 % 1035,6 hPa 0,0 l/m 2,6 km/h (1 Bft) W-SW 242 0 min 0,000 mm 0,0 UV-I 0 W/m -2,0 C -0,9 C 3,2 km/h (1 Bft) 96,23 %
15.02.2017 21:06 -0,8 C 92 % 1035,5 hPa 0,0 l/m 2,2 km/h (1 Bft) W-SW 242 0 min 0,000 mm 0,0 UV-I 0 W/m -1,9 C -0,8 C 3,2 km/h (1 Bft) 95,74 %
15.02.2017 21:08 -0,8 C 92 % 1035,5 hPa 0,0 l/m 1,9 km/h (1 Bft) W-SW 242 0 min 0,000 mm 0,0 UV-I 0 W/m -1,9 C -0,8 C 3,2 km/h (1 Bft) 95,12 %
15.02.2017 21:10 -0,7 C 93 % 1035,5 hPa 0,0 l/m 2,1 km/h (1 Bft) W-SW 242 0 min 0,000 mm 0,0 UV-I 0 W/m -1,7 C -0,7 C 3,2 km/h (1 Bft) 98,21 %
15.02.2017 21:12 -0,6 C 92 % 1035,5 hPa 0,0 l/m 2,3 km/h (1 Bft) W-SW 242 0 min 0,000 mm 0,0 UV-I 0 W/m -1,7 C -0,6 C 4,8 km/h (1 Bft) 100,00 %
15.02.2017 21:14 -0,5 C 92 % 1035,5 hPa 0,0 l/m 2,6 km/h (1 Bft) W-SW 242 0 min 0,000 mm 0,0 UV-I 0 W/m -1,6 C -0,5 C 3,2 km/h (1 Bft) 94,34 %
15.02.2017 21:16 -0,5 C 92 % 1035,5 hPa 0,0 l/m 2,7 km/h (1 Bft) W-SW 242 0 min 0,000 mm 0,0 UV-I 0 W/m -1,6 C -0,5 C 4,8 km/h (1 Bft) 100,00 %
15.02.2017 21:18 -0,4 C 92 % 1035,5 hPa 0,0 l/m 2,2 km/h (1 Bft) W-SW 242 0 min 0,000 mm 0,0 UV-I 0 W/m -1,5 C -0,4 C 3,2 km/h (1 Bft) 98,11 %
15.02.2017 21:20 -0,3 C 92 % 1035,5 hPa 0,0 l/m 2,0 km/h (1 Bft) W-SW 242 0 min 0,000 mm 0,0 UV-I 0 W/m -1,4 C -0,3 C 3,2 km/h (1 Bft) 100,00 %
15.02.2017 21:22 -0,2 C 92 % 1035,5 hPa 0,0 l/m 2,1 km/h (1 Bft) W-SW 242 0 min 0,000 mm 0,0 UV-I 0 W/m -1,3 C -0,2 C 3,2 km/h (1 Bft) 100,00 %
15.02.2017 21:24 0,0 C 92 % 1035,5 hPa 0,0 l/m 2,1 km/h (1 Bft) W-SW 242 0 min 0,000 mm 0,0 UV-I 0 W/m -1,1 C 0,0 C 3,2 km/h (1 Bft) 94,00 %
15.02.2017 21:26 0,1 C 91 % 1035,5 hPa 0,0 l/m 2,0 km/h (1 Bft) W-SW 242 0 min 0,000 mm 0,0 UV-I 0 W/m -1,2 C 0,1 C 3,2 km/h (1 Bft) 100,00 %
15.02.2017 21:28 0,1 C 91 % 1035,5 hPa 0,0 l/m 2,2 km/h (1 Bft) W-SW 242 0 min 0,000 mm 0,0 UV-I 0 W/m -1,2 C 0,1 C 4,8 km/h (1 Bft) 98,00 %
15.02.2017 21:30 0,2 C 90 % 1035,5 hPa 0,0 l/m 2,3 km/h (1 Bft) W-SW 242 0 min 0,000 mm 0,0 UV-I 0 W/m -1,2 C 0,2 C 4,8 km/h (1 Bft) 100,00 %
15.02.2017 21:32 0,1 C 90 % 1035,5 hPa 0,0 l/m 1,6 km/h (1 Bft) W-SW 242 0 min 0,000 mm 0,0 UV-I 0 W/m -1,3 C 0,1 C 3,2 km/h (1 Bft) 98,11 %
15.02.2017 21:34 0,1 C 90 % 1035,6 hPa 0,0 l/m 1,6 km/h (1 Bft) W-SW 242 0 min 0,000 mm 0,0 UV-I 0 W/m -1,3 C 0,1 C 3,2 km/h (1 Bft) 100,00 %
15.02.2017 21:36 -0,1 C 90 % 1035,5 hPa 0,0 l/m 1,0 km/h (0 Bft) W-SW 242 0 min 0,000 mm 0,0 UV-I 0 W/m -1,5 C -0,1 C 3,2 km/h (1 Bft) 97,37 %
15.02.2017 21:38 -0,2 C 90 % 1035,6 hPa 0,0 l/m 1,6 km/h (1 Bft) W-SW 242 0 min 0,000 mm 0,0 UV-I 0 W/m -1,6 C -0,2 C 3,2 km/h (1 Bft) 97,73 %
15.02.2017 21:40 -0,4 C 90 % 1035,6 hPa 0,0 l/m 2,9 km/h (1 Bft) W-SW 242 0 min 0,000 mm 0,0 UV-I 0 W/m -1,8 C -0,4 C 4,8 km/h (1 Bft) 98,11 %
15.02.2017 21:42 -0,7 C 90 % 1035,6 hPa 0,0 l/m 3,8 km/h (1 Bft) W-SW 242 0 min 0,000 mm 0,0 UV-I 0 W/m -2,1 C -0,7 C 4,8 km/h (1 Bft) 97,87 %
15.02.2017 21:44 -0,7 C 91 % 1035,5 hPa 0,0 l/m 3,0 km/h (1 Bft) W-SW 242 0 min 0,000 mm 0,0 UV-I 0 W/m -2,0 C -0,7 C 4,8 km/h (1 Bft) 100,00 %
15.02.2017 21:46 -0,7 C 92 % 1035,5 hPa 0,0 l/m 2,5 km/h (1 Bft) W-SW 242 0 min 0,000 mm 0,0 UV-I 0 W/m -1,8 C -0,7 C 3,2 km/h (1 Bft) 98,53 %
15.02.2017 21:48 -0,5 C 92 % 1035,5 hPa 0,0 l/m 2,1 km/h (1 Bft) W-SW 242 0 min 0,000 mm 0,0 UV-I 0 W/m -1,6 C -0,5 C 4,8 km/h (1 Bft) 100,00 %
15.02.2017 21:50 -0,3 C 92 % 1035,5 hPa 0,0 l/m 1,9 km/h (1 Bft) W-SW 242 0 min 0,000 mm 0,0 UV-I 0 W/m -1,4 C -0,3 C 3,2 km/h (1 Bft) 98,00 %
15.02.2017 21:52 -0,2 C 91 % 1035,6 hPa 0,0 l/m 1,7 km/h (1 Bft) W-SW 242 0 min 0,000 mm 0,0 UV-I 0 W/m -1,5 C -0,2 C 3,2 km/h (1 Bft) 97,87 %
15.02.2017 21:54 -0,2 C 91 % 1035,5 hPa 0,0 l/m 2,5 km/h (1 Bft) W-SW 242 0 min 0,000 mm 0,0 UV-I 0 W/m -1,5 C -0,2 C 4,8 km/h (1 Bft) 97,56 %
15.02.2017 21:56 -0,2 C 90 % 1035,5 hPa 0,0 l/m 3,0 km/h (1 Bft) W-SW 242 0 min 0,000 mm 0,0 UV-I 0 W/m -1,6 C -0,2 C 4,8 km/h (1 Bft) 95,74 %
15.02.2017 21:58 -0,3 C 90 % 1035,5 hPa 0,0 l/m 3,4 km/h (1 Bft) W-SW 242 0 min 0,000 mm 0,0 UV-I 0 W/m -1,7 C -0,3 C 4,8 km/h (1 Bft) 93,62 %
15.02.2017 22:00 -0,5 C 90 % 1035,5 hPa 0,0 l/m 2,9 km/h (1 Bft) W-SW 242 0 min 0,000 mm 0,0 UV-I 0 W/m -1,9 C -0,5 C 4,8 km/h (1 Bft) 94,64 %
15.02.2017 22:02 -0,6 C 91 % 1035,5 hPa 0,0 l/m 3,0 km/h (1 Bft) W-SW 242 0 min 0,000 mm 0,0 UV-I 0 W/m -1,9 C -0,6 C 4,8 km/h (1 Bft) 92,31 %
15.02.2017 22:04 -0,7 C 91 % 1035,6 hPa 0,0 l/m 2,7 km/h (1 Bft) W-SW 242 0 min 0,000 mm 0,0 UV-I 0 W/m -2,0 C -0,7 C 4,8 km/h (1 Bft) 89,36 %
15.02.2017 22:06 -0,8 C 91 % 1035,6 hPa 0,0 l/m 2,7 km/h (1 Bft) W-SW 242 0 min 0,000 mm 0,0 UV-I 0 W/m -2,1 C -0,8 C 4,8 km/h (1 Bft) 94,00 %
15.02.2017 22:08 -0,7 C 92 % 1035,5 hPa 0,0 l/m 1,8 km/h (1 Bft) W-SW 242 0 min 0,000 mm 0,0 UV-I 0 W/m -1,8 C -0,7 C 3,2 km/h (1 Bft) 89,36 %
15.02.2017 22:10 -0,7 C 92 % 1035,6 hPa 0,0 l/m 0,8 km/h (0 Bft) W-SW 242 0 min 0,000 mm 0,0 UV-I 0 W/m -1,8 C -0,7 C 1,6 km/h (1 Bft) 94,00 %
15.02.2017 22:12 -0,7 C 92 % 1035,6 hPa 0,0 l/m 1,4 km/h (1 Bft) W-SW 242 0 min 0,000 mm 0,0 UV-I 0 W/m -1,8 C -0,7 C 3,2 km/h (1 Bft) 94,29 %
15.02.2017 22:14 -0,7 C 92 % 1035,6 hPa 0,0 l/m 1,8 km/h (1 Bft) W-SW 242 0 min 0,000 mm 0,0 UV-I 0 W/m -1,8 C -0,7 C 3,2 km/h (1 Bft) 92,86 %
15.02.2017 22:16 -0,8 C 91 % 1035,6 hPa 0,0 l/m 2,0 km/h (1 Bft) W-SW 242 0 min 0,000 mm 0,0 UV-I 0 W/m -2,1 C -0,8 C 3,2 km/h (1 Bft) 96,00 %
15.02.2017 22:18 -0,8 C 92 % 1035,5 hPa 0,0 l/m 3,7 km/h (1 Bft) W-SW 242 0 min 0,000 mm 0,0 UV-I 0 W/m -1,9 C -0,8 C 6,4 km/h (2 Bft) 89,47 %
15.02.2017 22:20 -0,7 C 92 % 1035,5 hPa 0,0 l/m 3,7 km/h (1 Bft) W-SW 242 0 min 0,000 mm 0,0 UV-I 0 W/m -1,8 C -0,7 C 4,8 km/h (1 Bft) 94,34 %
15.02.2017 22:22 -0,7 C 92 % 1035,5 hPa 0,0 l/m 2,3 km/h (1 Bft) W-SW 242 0 min 0,000 mm 0,0 UV-I 0 W/m -1,8 C -0,7 C 4,8 km/h (1 Bft) 91,49 %
15.02.2017 22:24 -0,8 C 92 % 1035,5 hPa 0,0 l/m 2,6 km/h (1 Bft) W-SW 242 0 min 0,000 mm 0,0 UV-I 0 W/m -1,9 C -0,8 C 3,2 km/h (1 Bft) 100,00 %
15.02.2017 22:26 -0,8 C 92 % 1035,5 hPa 0,0 l/m 2,6 km/h (1 Bft) W-SW 242 0 min 0,000 mm 0,0 UV-I 0 W/m -1,9 C -0,8 C 3,2 km/h (1 Bft) 92,65 %
15.02.2017 22:28 -0,9 C 92 % 1035,5 hPa 0,0 l/m 3,4 km/h (1 Bft) W-SW 242 0 min 0,000 mm 0,0 UV-I 0 W/m -2,0 C -0,9 C 4,8 km/h (1 Bft) 95,12 %
15.02.2017 22:30 -1,1 C 92 % 1035,5 hPa 0,0 l/m 3,5 km/h (1 Bft) W-SW 242 0 min 0,000 mm 0,0 UV-I 0 W/m -2,2 C -1,1 C 4,8 km/h (1 Bft) 95,12 %
15.02.2017 22:32 -1,1 C 92 % 1035,5 hPa 0,0 l/m 3,9 km/h (1 Bft) W-SW 242 0 min 0,000 mm 0,0 UV-I 0 W/m -2,2 C -1,1 C 4,8 km/h (1 Bft) 96,23 %
15.02.2017 22:34 -1,1 C 92 % 1035,5 hPa 0,0 l/m 3,6 km/h (1 Bft) W-SW 242 0 min 0,000 mm 0,0 UV-I 0 W/m -2,2 C -1,1 C 4,8 km/h (1 Bft) 96,23 %
15.02.2017 22:36 -1,2 C 92 % 1035,5 hPa 0,0 l/m 3,7 km/h (1 Bft) W-SW 242 0 min 0,000 mm 0,0 UV-I 0 W/m -2,3 C -1,2 C 4,8 km/h (1 Bft) 97,56 %
15.02.2017 22:38 -1,2 C 92 % 1035,5 hPa 0,0 l/m 4,2 km/h (1 Bft) W-SW 242 0 min 0,000 mm 0,0 UV-I 0 W/m -2,3 C -1,2 C 4,8 km/h (1 Bft) 96,23 %
15.02.2017 22:40 -1,1 C 93 % 1035,5 hPa 0,0 l/m 3,4 km/h (1 Bft) W-SW 242 0 min 0,000 mm 0,0 UV-I 0 W/m -2,1 C -1,1 C 4,8 km/h (1 Bft) 91,49 %
15.02.2017 22:42 -1,1 C 93 % 1035,5 hPa 0,0 l/m 2,2 km/h (1 Bft) W-SW 242 0 min 0,000 mm 0,0 UV-I 0 W/m -2,1 C -1,1 C 3,2 km/h (1 Bft) 94,00 %
15.02.2017 22:44 -1,0 C 93 % 1035,5 hPa 0,0 l/m 2,0 km/h (1 Bft) W-SW 242 0 min 0,000 mm 0,0 UV-I 0 W/m -2,0 C -1,0 C 3,2 km/h (1 Bft) 94,87 %
15.02.2017 22:46 -0,8 C 93 % 1035,5 hPa 0,0 l/m 1,5 km/h (1 Bft) W-SW 242 0 min 0,000 mm 0,0 UV-I 0 W/m -1,8 C -0,8 C 3,2 km/h (1 Bft) 100,00 %
15.02.2017 22:48 -0,8 C 93 % 1035,5 hPa 0,0 l/m 1,3 km/h (1 Bft) W-SW 242 0 min 0,000 mm 0,0 UV-I 0 W/m -1,8 C -0,8 C 3,2 km/h (1 Bft) 95,74 %
15.02.2017 22:50 -0,6 C 93 % 1035,5 hPa 0,0 l/m 1,6 km/h (1 Bft) W-SW 242 0 min 0,000 mm 0,0 UV-I 0 W/m -1,6 C -0,6 C 3,2 km/h (1 Bft) 97,56 %
15.02.2017 22:52 -0,4 C 92 % 1035,5 hPa 0,0 l/m 0,6 km/h (0 Bft) W-SW 242 0 min 0,000 mm 0,0 UV-I 0 W/m -1,5 C -0,4 C 1,6 km/h (1 Bft) 98,21 %
15.02.2017 22:54 -0,5 C 92 % 1035,4 hPa 0,0 l/m 0,1 km/h (0 Bft) W-SW 242 0 min 0,000 mm 0,0 UV-I 0 W/m -1,6 C -0,5 C 1,6 km/h (1 Bft) 95,65 %
15.02.2017 22:56 -0,4 C 92 % 1035,5 hPa 0,0 l/m 0,0 km/h (0 Bft) W-SW 242 0 min 0,000 mm 0,0 UV-I 0 W/m -1,5 C -0,4 C 0,0 km/h (0 Bft) 100,00 %
15.02.2017 22:58 -0,4 C 92 % 1035,5 hPa 0,0 l/m 0,0 km/h (0 Bft) W-SW 242 0 min 0,000 mm 0,0 UV-I 0 W/m -1,5 C -0,4 C 0,0 km/h (0 Bft) 96,00 %
15.02.2017 23:00 -0,4 C 92 % 1035,4 hPa 0,0 l/m 0,0 km/h (0 Bft) W-SW 242 0 min 0,000 mm 0,0 UV-I 0 W/m -1,5 C -0,4 C 0,0 km/h (0 Bft) 97,87 %
15.02.2017 23:02 -0,5 C 91 % 1035,4 hPa 0,0 l/m 0,0 km/h (0 Bft) W-SW 242 0 min 0,000 mm 0,0 UV-I 0 W/m -1,8 C -0,5 C 0,0 km/h (0 Bft) 97,87 %
15.02.2017 23:04 -0,6 C 91 % 1035,4 hPa 0,0 l/m 0,0 km/h (0 Bft) W-SW 242 0 min 0,000 mm 0,0 UV-I 0 W/m -1,9 C -0,6 C 0,0 km/h (0 Bft) 100,00 %
15.02.2017 23:06 -0,6 C 92 % 1035,4 hPa 0,0 l/m 0,0 km/h (0 Bft) W-SW 242 0 min 0,000 mm 0,0 UV-I 0 W/m -1,7 C -0,6 C 0,0 km/h (0 Bft) 97,87 %
15.02.2017 23:08 -0,7 C 92 % 1035,4 hPa 0,0 l/m 0,0 km/h (0 Bft) W-SW 242 0 min 0,000 mm 0,0 UV-I 0 W/m -1,8 C -0,7 C 0,0 km/h (0 Bft) 97,87 %
15.02.2017 23:10 -0,8 C 92 % 1035,5 hPa 0,0 l/m 0,0 km/h (0 Bft) W-SW 242 0 min 0,000 mm 0,0 UV-I 0 W/m -1,9 C -0,8 C 0,0 km/h (0 Bft) 98,18 %
15.02.2017 23:12 -0,9 C 92 % 1035,5 hPa 0,0 l/m 0,0 km/h (0 Bft) W-SW 242 0 min 0,000 mm 0,0 UV-I 0 W/m -2,0 C -0,9 C 0,0 km/h (0 Bft) 100,00 %
15.02.2017 23:14 -1,1 C 92 % 1035,5 hPa 0,0 l/m 0,0 km/h (0 Bft) W-SW 242 0 min 0,000 mm 0,0 UV-I 0 W/m -2,2 C -1,1 C 0,0 km/h (0 Bft) 97,87 %
15.02.2017 23:16 -1,2 C 92 % 1035,5 hPa 0,0 l/m 0,5 km/h (0 Bft) W-SW 242 0 min 0,000 mm 0,0 UV-I 0 W/m -2,3 C -1,2 C 1,6 km/h (1 Bft) 98,00 %
15.02.2017 23:18 -1,3 C 92 % 1035,6 hPa 0,0 l/m 0,8 km/h (0 Bft) W-SW 242 0 min 0,000 mm 0,0 UV-I 0 W/m -2,4 C -1,3 C 3,2 km/h (1 Bft) 100,00 %
15.02.2017 23:20 -1,4 C 92 % 1035,6 hPa 0,0 l/m 2,1 km/h (1 Bft) W-SW 242 0 min 0,000 mm 0,0 UV-I 0 W/m -2,5 C -1,4 C 3,2 km/h (1 Bft) 97,78 %
15.02.2017 23:22 -1,5 C 92 % 1035,6 hPa 0,0 l/m 1,4 km/h (1 Bft) W-SW 242 0 min 0,000 mm 0,0 UV-I 0 W/m -2,6 C -1,5 C 3,2 km/h (1 Bft) 100,00 %
15.02.2017 23:24 -1,6 C 92 % 1035,6 hPa 0,0 l/m 1,6 km/h (1 Bft) W-SW 242 0 min 0,000 mm 0,0 UV-I 0 W/m -2,7 C -1,6 C 3,2 km/h (1 Bft) 98,00 %
15.02.2017 23:26 -1,7 C 93 % 1035,6 hPa 0,0 l/m 1,8 km/h (1 Bft) W-SW 242 0 min 0,000 mm 0,0 UV-I 0 W/m -2,7 C -1,7 C 3,2 km/h (1 Bft) 97,62 %
15.02.2017 23:28 -1,7 C 93 % 1035,7 hPa 0,0 l/m 1,1 km/h (1 Bft) W-SW 242 0 min 0,000 mm 0,0 UV-I 0 W/m -2,7 C -1,7 C 3,2 km/h (1 Bft) 97,87 %
15.02.2017 23:30 -1,7 C 93 % 1035,7 hPa 0,0 l/m 0,0 km/h (0 Bft) W-SW 242 0 min 0,000 mm 0,0 UV-I 0 W/m -2,7 C -1,7 C 0,0 km/h (0 Bft) 100,00 %
15.02.2017 23:32 -1,7 C 93 % 1035,7 hPa 0,0 l/m 0,0 km/h (0 Bft) W-SW 242 0 min 0,000 mm 0,0 UV-I 0 W/m -2,7 C -1,7 C 0,0 km/h (0 Bft) 98,00 %
15.02.2017 23:34 -1,6 C 93 % 1035,7 hPa 0,0 l/m 0,0 km/h (0 Bft) W-SW 242 0 min 0,000 mm 0,0 UV-I 0 W/m -2,6 C -1,6 C 0,0 km/h (0 Bft) 95,74 %
15.02.2017 23:36 -1,4 C 93 % 1035,7 hPa 0,0 l/m 0,0 km/h (0 Bft) W-SW 242 0 min 0,000 mm 0,0 UV-I 0 W/m -2,4 C -1,4 C 0,0 km/h (0 Bft) 97,87 %
15.02.2017 23:38 -1,3 C 93 % 1035,7 hPa 0,0 l/m 0,0 km/h (0 Bft) W-SW 242 0 min 0,000 mm 0,0 UV-I 0 W/m -2,3 C -1,3 C 0,0 km/h (0 Bft) 97,56 %
15.02.2017 23:40 -1,3 C 93 % 1035,7 hPa 0,0 l/m 0,6 km/h (0 Bft) W-SW 242 0 min 0,000 mm 0,0 UV-I 0 W/m -2,3 C -1,3 C 1,6 km/h (1 Bft) 96,00 %
15.02.2017 23:42 -1,2 C 93 % 1035,7 hPa 0,0 l/m 0,0 km/h (0 Bft) W-SW 242 0 min 0,000 mm 0,0 UV-I 0 W/m -2,2 C -1,2 C 0,0 km/h (0 Bft) 98,00 %
15.02.2017 23:44 -1,2 C 93 % 1035,7 hPa 0,0 l/m 0,0 km/h (0 Bft) W-SW 242 0 min 0,000 mm 0,0 UV-I 0 W/m -2,2 C -1,2 C 0,0 km/h (0 Bft) 91,49 %
15.02.2017 23:46 -1,2 C 93 % 1035,7 hPa 0,0 l/m 0,0 km/h (0 Bft) W-SW 242 0 min 0,000 mm 0,0 UV-I 0 W/m -2,2 C -1,2 C 0,0 km/h (0 Bft) 97,87 %
15.02.2017 23:48 -1,3 C 92 % 1035,8 hPa 0,0 l/m 0,4 km/h (0 Bft) W-SW 242 0 min 0,000 mm 0,0 UV-I 0 W/m -2,4 C -1,3 C 1,6 km/h (1 Bft) 95,74 %
15.02.2017 23:50 -1,4 C 92 % 1035,8 hPa 0,0 l/m 0,9 km/h (0 Bft) W-SW 242 0 min 0,000 mm 0,0 UV-I 0 W/m -2,5 C -1,4 C 1,6 km/h (1 Bft) 96,00 %
15.02.2017 23:52 -1,6 C 92 % 1035,8 hPa 0,0 l/m 0,9 km/h (0 Bft) W-SW 242 0 min 0,000 mm 0,0 UV-I 0 W/m -2,7 C -1,6 C 3,2 km/h (1 Bft) 97,87 %
15.02.2017 23:54 -1,7 C 93 % 1035,8 hPa 0,0 l/m 0,0 km/h (0 Bft) W-SW 242 0 min 0,000 mm 0,0 UV-I 0 W/m -2,7 C -1,7 C 0,0 km/h (0 Bft) 100,00 %
15.02.2017 23:56 -1,7 C 93 % 1035,8 hPa 0,0 l/m 0,1 km/h (0 Bft) W-SW 242 0 min 0,000 mm 0,0 UV-I 0 W/m -2,7 C -1,7 C 1,6 km/h (1 Bft) 98,00 %
15.02.2017 23:58 -1,8 C 93 % 1035,8 hPa 0,0 l/m 0,1 km/h (0 Bft) W-SW 242 0 min 0,000 mm 0,0 UV-I 0 W/m -2,8 C -1,8 C 1,6 km/h (1 Bft) 97,87 %
_ Min-Zeit 07:26 15:20 00:00 - 00:56 - - - - - - 07:26 07:26 00:58 06:04
Minimum _ -4,7 C 70 % 1034,0 hPa - 0,0 km/h (0 Bft) - - - - - - -5,4 C -4,7 C 0,0 km/h (0 Bft) 86,00 %
_ Max-Zeit 15:24 10:44 10:50 00:00 00:28 - - 07:22 13:00 11:52 12:08 13:56 15:24 00:26 00:02
Maximum _ 5,3 C 98 % 1037,3 hPa 0,0 l/m 7,4 km/h
O-NO (2 Bft)
- - 2 min 0,178 mm 1,4 UV-I 499 W/m 1,7 C 5,3 C 12,9 km/h
O (3 Bft)
100,00 %
Durchschnitt _ -0,5 C 90 % 1035,5 hPa #0,0 l/m 1,8 km/h (1 Bft) W-SW - #7:58 h #0,991 mm 1,0 UV-I 254 W/m -2,1 C -0,5 C 3,4 km/h (1 Bft) 96,69 %